[[{"header":{"parameterUnit":"m.s-1","parameterCategory":1,"la1":30.6,"la2":28.766,"lo1":-90.7593,"lo2":-88.6598,"dy":0.0162,"dx":0.0183,"nx":116,"ny":114,"refTime":"2023-11-21T18:00:00:Z","depth":0,"parameterNumber":2,"parameterNumberName":"U-component_of_WINDS"},"data":[0.0,0.0,0.0,0.0,0.0,0.0,0.0,0.0,0.0,0.0,0.0,0.0,0.0,0.0,0.0,0.0,0.0,0.0,0.0,0.0,0.0,0.0,0.0,0.0,0.0,0.0,0.0,0.0,0.0,0.0,0.0,0.0,0.0,0.0,0.0,0.0,0.0,0.0,0.0,0.0,0.0,0.0,0.0,0.0,0.0,0.0,0.0,0.0,0.0,0.0,0.0,0.0,0.0,0.0,0.0,0.0,0.0,0.0,0.0,0.0,0.0,0.0,0.0,0.0,0.0,0.0,0.0,0.0,0.0,0.0,0.0,0.0,0.0,0.0,0.0,0.0,0.0,0.0,0.0,0.0,0.0,0.0,0.0,0.0,0.0,0.0,0.0,0.0,0.0,0.0,0.0,0.0,0.0,0.0,0.0,0.0,0.0,0.0,0.0,0.0,0.0,0.0,0.0,0.0,0.0,0.0,0.0,0.0,0.0,0.0,0.0,0.0,0.0,0.0,0.0,0.0,0.0,0.0,0.0,0.0,0.0,0.0,0.0,0.0,0.0,0.0,0.0,0.0,0.0,0.0,0.0,0.0,0.0,0.0,0.0,0.0,0.0,0.0,0.0,0.0,0.0,0.0,0.0,0.0,0.0,0.0,0.0,0.0,0.0,0.0,0.0,0.0,0.0,0.0,0.0,0.0,0.0,0.0,0.0,0.0,0.0,0.0,0.0,0.0,0.0,0.0,0.0,0.0,0.0,0.0,0.0,0.0,0.0,0.0,0.0,0.0,0.0,0.0,0.0,0.0,0.0,0.0,0.0,0.0,0.0,0.0,0.0,0.0,0.0,0.0,0.0,0.0,0.0,0.0,0.0,0.0,0.0,0.0,0.0,0.0,0.0,0.0,0.0,0.0,0.0,0.0,0.0,0.0,0.0,0.0,0.0,0.0,0.0,0.0,0.0,0.0,0.0,0.0,0.0,0.0,0.0,0.0,0.0,0.0,0.0,0.0,0.0,0.0,0.0,0.0,0.0,0.0,0.0,0.0,0.0,0.0,0.0,0.0,0.0,0.0,0.0,0.0,0.0,0.0,0.0,0.0,0.0,0.0,0.0,0.0,0.0,0.0,0.0,0.0,0.0,0.0,0.0,0.0,0.0,0.0,0.0,0.0,0.0,0.0,0.0,0.0,0.0,0.0,0.0,0.0,0.0,0.0,0.0,0.0,0.0,0.0,0.0,0.0,0.0,0.0,0.0,0.0,0.0,0.0,0.0,0.0,0.0,0.0,0.0,0.0,0.0,0.0,0.0,0.0,0.0,0.0,0.0,0.0,0.0,0.0,0.0,0.0,0.0,0.0,0.0,0.0,0.0,0.0,0.0,0.0,0.0,0.0,0.0,0.0,0.0,0.0,0.0,0.0,0.0,0.0,0.0,0.0,0.0,0.0,0.0,0.0,0.0,0.0,0.0,0.0,0.0,0.0,0.0,0.0,0.0,0.0,0.0,0.0,0.0,0.0,0.0,0.0,0.0,0.0,0.0,0.0,0.0,0.0,0.0,0.0,0.0,0.0,0.0,0.0,0.0,0.0,0.0,0.0,0.0,0.0,0.0,0.0,0.0,0.0,0.0,0.0,0.0,0.0,0.0,0.0,0.0,0.0,0.0,0.0,0.0,0.0,0.0,0.0,0.0,0.0,0.0,0.0,0.0,0.0,0.0,0.0,0.0,0.0,0.0,0.0,0.0,0.0,0.0,0.0,0.0,0.0,0.0,0.0,0.0,0.0,0.0,0.0,0.0,0.0,0.0,0.0,0.0,0.0,0.0,0.0,0.0,0.0,0.0,0.0,0.0,0.0,0.0,0.0,0.0,0.0,0.0,0.0,0.0,0.0,0.0,0.0,0.0,0.0,0.0,0.0,0.0,0.0,0.0,0.0,0.0,0.0,0.0,0.0,0.0,0.0,0.0,0.0,0.0,0.0,0.0,0.0,0.0,0.0,0.0,0.0,0.0,0.0,0.0,0.0,0.0,0.0,0.0,0.0,0.0,0.0,0.0,0.0,0.0,0.0,0.0,0.0,0.0,0.0,0.0,0.0,0.0,0.0,0.0,0.0,0.0,0.0,0.0,0.0,0.0,0.0,0.0,0.0,0.0,0.0,0.0,0.0,0.0,0.0,0.0,0.0,0.0,0.0,0.0,0.0,0.0,0.0,0.0,0.0,0.0,0.0,0.0,0.0,0.0,0.0,0.0,0.0,0.0,0.0,0.0,0.0,0.0,0.0,0.0,0.0,0.0,0.0,0.0,0.0,0.0,0.0,0.0,0.0,0.0,0.0,0.0,0.0,0.0,0.0,0.0,0.0,0.0,0.0,0.0,0.0,0.0,0.0,0.0,0.0,0.0,0.0,0.0,0.0,0.0,0.0,0.0,0.0,0.0,0.0,0.0,0.0,0.0,0.0,0.0,0.0,0.0,0.0,0.0,0.0,0.0,0.0,0.0,0.0,0.0,0.0,0.0,0.0,0.0,0.0,0.0,0.0,0.0,0.0,0.0,0.0,0.0,0.0,0.0,0.0,0.0,0.0,0.0,0.0,0.0,0.0,0.0,0.0,0.0,0.0,0.0,0.0,0.0,0.0,0.0,0.0,0.0,0.0,0.0,0.0,0.0,0.0,0.0,0.0,0.0,0.0,0.0,0.0,0.0,0.0,0.0,0.0,0.0,0.0,0.0,0.0,0.0,0.0,0.0,0.0,0.0,0.0,0.0,0.0,0.0,0.0,0.0,0.0,0.0,0.0,0.0,0.0,0.0,0.0,0.0,0.0,0.0,0.0,0.0,0.0,0.0,0.0,0.0,0.0,0.0,0.0,0.0,0.0,0.0,0.0,0.0,0.0,0.0,0.0,0.0,0.0,0.0,0.0,0.0,0.0,0.0,0.0,0.0,0.0,0.0,0.0,0.0,0.0,0.0,0.0,0.0,0.0,0.0,0.0,0.0,0.0,0.0,0.0,0.0,0.0,0.0,0.0,0.0,0.0,0.0,0.0,0.0,0.0,0.0,0.0,0.0,0.0,0.0,0.0,0.0,0.0,0.0,0.0,0.0,0.0,0.0,0.0,0.0,0.0,0.0,0.0,0.0,0.0,0.0,0.0,0.0,0.0,0.0,0.0,0.0,0.0,0.0,0.0,0.0,0.0,0.0,0.0,0.0,0.0,0.0,0.0,0.0,0.0,0.0,0.0,0.0,0.0,0.0,0.0,0.0,0.0,0.0,0.0,0.0,0.0,0.0,0.0,0.0,0.0,0.0,0.0,0.0,0.0,0.0,0.0,0.0,0.0,0.0,0.0,0.0,0.0,0.0,0.0,0.0,0.0,0.0,0.0,0.0,0.0,0.0,0.0,0.0,0.0,0.0,0.0,0.0,0.0,0.0,0.0,0.0,0.0,0.0,0.0,0.0,0.0,0.0,0.0,0.0,0.0,0.0,0.0,0.0,0.0,0.0,0.0,0.0,0.0,0.0,0.0,0.0,0.0,0.0,0.0,0.0,0.0,0.0,0.0,0.0,0.0,0.0,0.0,0.0,0.0,0.0,0.0,0.0,0.0,0.0,0.0,0.0,0.0,0.0,0.0,0.0,0.0,0.0,0.0,0.0,0.0,0.0,0.0,0.0,0.0,0.0,0.0,0.0,0.0,0.0,0.0,0.0,0.0,0.0,0.0,0.0,0.0,0.0,0.0,0.0,0.0,0.0,0.0,0.0,0.0,0.0,0.0,0.0,0.0,0.0,0.0,0.0,0.0,0.0,0.0,0.0,0.0,0.0,0.0,0.0,0.0,0.0,0.0,0.0,0.0,0.0,0.0,0.0,0.0,0.0,0.0,0.0,0.0,0.0,0.0,0.0,0.0,0.0,0.0,0.0,0.0,0.0,0.0,0.0,0.0,0.0,0.0,0.0,0.0,0.0,0.0,0.0,0.0,0.0,0.0,0.0,0.0,0.0,0.0,0.0,0.0,0.0,0.0,0.0,0.0,0.0,0.0,0.0,0.0,0.0,0.0,0.0,0.0,0.0,0.0,0.0,0.0,0.0,0.0,0.0,0.0,0.0,0.0,0.0,0.0,0.0,0.0,0.0,0.0,0.0,0.0,0.0,0.0,0.0,0.0,0.0,0.0,0.0,0.0,0.0,0.0,0.0,0.0,0.0,0.0,0.0,0.0,0.0,0.0,0.0,0.0,0.0,0.0,0.0,0.0,0.0,0.0,0.0,0.0,0.0,0.0,0.0,0.0,0.0,0.0,0.0,0.0,0.0,0.0,0.0,0.0,0.0,0.0,0.0,0.0,0.0,0.0,0.0,0.0,0.0,0.0,0.0,0.0,0.0,0.0,0.0,0.0,0.0,0.0,0.0,0.0,0.0,0.0,0.0,0.0,0.0,0.0,0.0,0.0,0.0,0.0,0.0,0.0,0.0,0.0,0.0,0.0,0.0,0.0,0.0,0.0,0.0,0.0,0.0,0.0,0.0,0.0,0.0,0.0,0.0,0.0,0.0,0.0,0.0,0.0,0.0,0.0,0.0,0.0,0.0,0.0,0.0,0.0,0.0,0.0,0.0,0.0,0.0,0.0,0.0,0.0,0.0,0.0,0.0,0.0,0.0,0.0,0.0,0.0,0.0,0.0,0.0,0.0,0.0,0.0,0.0,0.0,0.0,0.0,0.0,0.0,0.0,0.0,0.0,0.0,0.0,0.0,0.0,0.0,0.0,0.0,0.0,0.0,0.0,0.0,0.0,0.0,0.0,0.0,0.0,0.0,0.0,0.0,0.0,0.0,0.0,0.0,0.0,0.0,0.0,0.0,0.0,0.0,0.0,0.0,0.0,0.0,0.0,0.0,0.0,0.0,0.0,0.0,0.0,0.0,0.0,0.0,0.0,0.0,0.0,0.0,0.0,0.0,0.0,0.0,0.0,0.0,0.0,0.0,0.0,0.0,0.0,0.0,0.0,0.0,0.0,0.0,0.0,0.0,0.0,0.0,0.0,0.0,0.0,0.0,0.0,0.0,0.0,0.0,0.0,0.0,0.0,0.0,0.0,0.0,0.0,0.0,0.0,0.0,0.0,0.0,0.0,0.0,0.0,0.0,0.0,0.0,0.0,0.0,0.0,0.0,0.0,0.0,0.0,0.0,0.0,0.0,0.0,0.0,0.0,0.0,0.0,0.0,0.0,0.0,0.0,0.0,0.0,0.0,0.0,0.0,0.0,0.0,0.0,0.0,0.0,0.0,0.0,0.0,0.0,0.0,0.0,0.0,0.0,0.0,0.0,0.0,0.0,0.0,0.0,0.0,0.0,0.0,0.0,0.0,0.0,0.0,0.0,0.0,0.0,0.0,0.0,0.0,0.0,0.0,0.0,0.0,0.0,0.0,0.0,0.0,0.0,0.0,0.0,0.0,0.0,0.0,0.0,0.0,0.0,0.0,0.0,0.0,0.0,0.0,0.0,0.0,0.0,0.0,0.0,0.0,0.0,0.0,0.0,0.0,0.0,0.0,0.0,0.0,0.0,0.0,0.0,0.0,0.0,0.0,0.0,0.0,0.0,0.0,0.0,0.0,0.0,0.0,0.0,0.0,0.0,0.0,0.0,0.0,0.0,0.0,0.0,0.0,0.0,0.0,0.0,0.0,0.0,0.0,0.0,0.0,0.0,0.0,0.0,0.0,0.0,0.0,0.0,0.0,0.0,0.0,0.0,0.0,0.0,0.0,0.0,0.0,0.0,0.0,0.0,0.0,0.0,0.0,0.0,0.0,0.0,0.0,0.0,0.0,0.0,0.0,0.0,0.0,0.0,0.0,0.0,0.0,0.0,0.0,0.0,0.0,0.0,0.0,0.0,0.0,0.0,0.0,0.0,0.0,0.0,0.0,0.0,0.0,0.0,0.0,0.0,0.0,0.0,0.0,0.0,0.0,0.0,0.0,0.0,0.0,0.0,0.0,0.0,0.0,0.0,0.0,0.0,0.0,0.0,0.0,0.0,0.0,0.0,0.0,0.0,0.0,0.0,0.0,0.0,0.0,0.0,0.0,0.0,0.0,0.0,0.0,0.0,0.0,0.0,0.0,0.0,0.0,0.0,0.0,1.5134,0.0,0.0,0.0,0.0,0.0,0.0,0.0,0.0,0.0,0.0,0.0,0.0,0.0,0.0,0.0,0.0,0.0,0.0,0.0,0.0,0.0,0.0,0.0,0.0,0.0,0.0,0.0,0.0,0.0,0.0,0.0,0.0,0.0,0.0,0.0,0.0,0.0,1.5841,1.5668,1.5255,0.0,0.0,0.0,0.0,0.0,0.0,0.0,0.0,0.0,0.0,0.0,0.0,0.0,0.0,0.0,0.0,0.0,0.0,0.0,0.0,0.0,0.0,0.0,0.0,0.0,0.0,0.0,0.0,0.0,0.0,0.0,0.0,0.0,0.0,0.0,0.0,0.0,0.0,0.0,0.0,0.0,0.0,0.0,0.0,0.0,0.0,0.0,0.0,0.0,0.0,0.0,0.0,0.0,0.0,0.0,0.0,0.0,0.0,0.0,0.0,0.0,0.0,0.0,0.0,0.0,0.0,0.0,0.0,0.0,0.0,0.0,0.0,0.0,0.0,0.0,0.0,1.5013,0.0,0.0,0.0,0.0,0.0,0.0,0.0,0.0,0.0,0.0,0.0,0.0,0.0,0.0,0.0,0.0,0.0,0.0,0.0,0.0,0.0,0.0,0.0,1.6501,1.6675,1.6675,1.6866,1.6917,1.6686,1.6892,1.6892,1.6659,1.6623,1.6436,1.608,1.6011,1.5797,1.5418,1.5196,0.0,0.0,0.0,0.0,0.0,0.0,0.0,0.0,0.0,0.0,0.0,0.0,0.0,0.0,0.0,0.0,0.0,0.0,0.0,0.0,0.0,0.0,0.0,0.0,0.0,0.0,0.0,0.0,0.0,0.0,0.0,0.0,0.0,0.0,0.0,0.0,0.0,0.0,0.0,0.0,0.0,0.0,0.0,0.0,0.0,0.0,0.0,0.0,0.0,0.0,0.0,0.0,0.0,0.0,0.0,0.0,0.0,0.0,0.0,0.0,0.0,0.0,0.0,0.0,0.0,0.0,0.0,0.0,0.0,1.5874,1.4924,1.4924,1.4924,1.69,2.0097,1.6804,1.5676,1.6194,1.6194,0.0,0.0,0.0,0.0,0.0,0.0,0.0,0.0,0.0,0.0,0.0,0.0,0.0,0.0,0.0,0.0,0.0,0.0,0.0,0.0,0.0,1.6789,1.6942,1.6942,1.6993,1.6993,1.6942,1.6993,1.6968,1.6876,1.6644,1.6324,1.5922,1.5696,1.5418,1.5074,1.5311,0.0,1.568,1.6135,1.6059,1.5515,1.4878,0.0,0.0,0.0,0.0,0.0,0.0,0.0,0.0,0.0,0.0,0.0,0.0,0.0,0.0,0.0,0.0,0.0,0.0,0.0,0.0,0.0,0.0,0.0,0.0,0.0,0.0,0.0,0.0,0.0,0.0,0.0,0.0,0.0,0.0,0.0,0.0,0.0,0.0,0.0,0.0,0.0,0.0,0.0,1.0509,1.4137,0.0,0.0,0.0,0.0,0.0,0.0,0.0,0.0,0.0,0.0,0.0,0.0,0.0,1.4383,1.4529,1.6642,1.7754,1.7882,1.7556,1.7407,1.7407,1.7407,1.8469,2.0289,1.9749,0.0,1.6194,1.6194,0.0,0.0,0.0,0.0,0.0,0.0,0.0,0.0,0.0,0.0,0.0,0.0,0.0,0.0,0.0,0.0,0.0,0.0,0.0,0.0,0.0,1.6654,1.683,1.683,1.7599,1.7723,1.6833,1.7228,1.7104,1.6148,1.5994,1.5824,1.5623,1.5315,1.5322,1.5667,1.6455,1.7085,1.7576,1.7815,1.7802,1.7539,1.6921,1.5898,1.4648,1.4298,0.0,0.0,0.0,0.0,0.0,0.0,0.0,0.0,0.0,0.0,0.0,0.0,0.0,0.0,0.0,0.0,0.0,0.0,0.0,0.0,0.0,0.0,0.0,0.0,0.0,0.0,0.0,0.0,0.0,0.0,0.0,0.0,0.0,0.0,0.0,0.0,0.0,0.0,0.0,1.2181,1.192,1.1238,1.3022,1.4811,0.0,0.0,0.0,0.0,0.0,0.0,0.0,0.0,0.0,1.4341,1.5603,1.6308,1.6308,1.7353,1.8547,1.9876,1.9876,1.9876,1.9876,1.9876,2.0249,2.091,2.0466,1.9626,1.8377,1.6853,1.6194,1.6194,0.0,0.0,0.0,0.0,1.6712,1.6622,0.0,0.0,0.0,0.0,0.0,0.0,0.0,0.0,0.0,0.0,0.0,0.0,1.6422,1.7059,1.7424,1.7378,1.8381,1.8425,1.7104,1.7257,1.6803,1.5507,1.5433,1.5359,1.5118,1.5184,1.5689,1.6632,1.781,1.8767,1.9447,1.9597,1.9585,1.9434,1.8958,1.7439,1.5142,1.4979,1.4475,0.0,0.0,0.0,0.0,0.0,0.0,0.0,0.0,0.0,0.0,0.0,0.0,0.0,0.0,0.0,0.0,0.0,0.0,0.0,0.0,0.0,0.0,0.0,0.0,0.0,0.0,0.0,0.0,0.0,0.0,0.0,0.0,0.0,0.0,0.0,0.0,0.0,0.0,1.3038,1.2588,1.0326,1.253,1.4735,0.0,0.0,0.0,0.0,0.0,0.0,1.5182,1.6905,1.7624,1.7054,1.6987,1.7543,1.8777,1.8791,1.9673,2.1423,2.1423,2.1423,2.1423,2.1423,2.1423,2.1363,2.0816,2.0473,2.015,1.8084,1.7253,1.7253,1.7253,1.6838,1.6194,1.6194,1.6409,1.6912,0.0,0.0,0.0,0.0,0.0,0.0,0.0,0.0,0.0,0.0,0.0,1.6714,1.7099,1.8516,1.9389,1.9278,1.9096,1.8786,1.8269,1.6829,1.5784,1.5345,1.5301,1.5015,1.4351,1.5528,1.6686,1.7795,1.9077,2.0039,2.0655,2.1129,2.1079,2.0602,2.0426,1.9495,1.7852,1.5768,1.5141,1.5429,0.0,0.0,0.0,0.0,0.0,0.0,0.0,0.0,0.0,0.0,0.0,0.0,0.0,0.0,0.0,0.0,0.0,0.0,0.0,0.0,0.0,0.0,0.0,0.0,0.0,0.0,0.0,0.0,0.0,0.0,0.0,0.0,0.0,0.0,0.0,0.0,0.0,0.0,0.0,1.3605,1.3893,0.0,0.0,0.0,0.0,1.3854,1.3821,1.4955,1.7583,1.7814,1.9904,2.4327,1.7977,1.6661,2.1192,2.1233,2.1301,2.1423,2.1423,2.1423,2.1423,2.1423,2.1423,2.141,2.1383,2.0969,2.0289,2.0165,2.0104,2.0104,2.0104,1.85,1.6194,1.6194,1.7009,1.8299,0.0,0.0,0.0,0.0,0.0,0.0,0.0,0.0,1.5996,1.6176,1.6475,1.712,1.8298,1.9478,2.0307,2.0707,2.0542,1.9827,1.838,1.7312,1.6364,1.5545,1.5485,1.5488,1.5531,1.7011,1.8228,1.9116,2.0254,2.1284,2.2259,2.2012,2.175,2.1567,2.1174,2.0282,1.8932,1.7114,1.565,1.4546,1.3655,1.3263,0.0,0.0,0.0,0.0,0.0,0.0,0.0,0.0,0.0,0.0,0.0,0.0,0.0,0.0,0.0,0.0,0.0,0.0,0.0,0.0,0.0,0.0,0.0,0.0,0.0,0.0,0.0,0.0,0.0,0.0,0.0,0.0,0.0,0.0,0.0,0.0,0.0,1.6179,1.6188,0.0,1.6758,1.7155,1.7111,1.6496,1.7854,1.8461,1.7923,2.0799,2.3241,2.4951,1.9537,1.8153,2.1396,2.1423,2.1423,2.1423,2.1423,2.1423,2.1423,2.1423,2.2095,2.3275,2.3275,2.314,2.2871,2.2871,2.184,2.0304,2.0304,1.9718,1.8823,1.8823,1.9131,1.9623,0.0,0.0,0.0,0.0,0.0,0.0,0.0,0.0,1.5996,1.6176,1.6787,1.7725,1.9106,2.058,2.1617,2.202,2.1527,2.0465,1.8702,1.7204,1.6014,1.5197,1.5284,1.575,1.6584,1.8234,1.9408,2.0044,2.1073,2.1837,2.2445,2.2175,2.2169,2.2226,2.1717,2.0977,2.0075,1.8614,1.674,1.4731,1.434,1.4227,1.4183,0.0,0.0,0.0,0.0,0.0,0.0,0.0,0.0,0.0,0.0,0.0,0.0,0.0,0.0,0.0,0.0,0.0,0.0,0.0,0.0,0.0,0.0,0.0,0.0,0.0,0.0,0.0,0.0,0.0,0.0,0.0,0.0,0.0,0.0,1.6359,1.7127,1.7757,1.8041,1.8205,1.8162,1.8835,1.9293,1.9381,2.1388,2.1853,2.01,2.2978,2.4677,2.4677,2.1839,2.1043,2.2617,2.2631,2.2224,2.1423,2.1423,2.1844,2.2603,2.1789,2.2558,2.453,2.4389,2.4302,2.4302,2.4302,2.324,2.1547,2.0659,2.0304,2.0304,2.0304,2.0304,2.0304,0.0,0.0,0.0,0.0,0.0,0.0,0.0,1.6203,1.6203,1.6203,1.7362,1.8566,1.9449,2.1839,2.3349,2.3156,2.1927,2.0556,1.9159,1.636,1.4665,1.4368,1.4782,1.5809,1.7451,1.9058,2.0106,2.0589,2.1596,2.1776,2.1158,2.1765,2.2232,2.2514,2.2023,2.1677,2.1387,2.0312,1.8518,1.6395,1.5974,1.6095,1.6274,0.0,0.0,0.0,0.0,0.0,0.0,0.0,0.0,0.0,0.0,0.0,0.0,0.0,0.0,0.0,0.0,0.0,0.0,0.0,0.0,0.0,0.0,0.0,0.0,0.0,0.0,0.0,0.0,0.0,0.0,0.0,0.0,0.0,1.6322,1.7518,1.8458,1.8415,1.9403,2.0117,2.0165,1.983,2.039,2.2163,2.3946,2.4734,2.4112,2.4112,2.4112,2.4112,2.4597,2.4896,2.4896,2.4924,2.3797,2.1532,2.1532,2.2753,2.4924,2.259,2.2766,2.4859,2.4371,2.4225,2.4302,2.4302,2.4256,2.3933,2.1393,2.0428,2.0428,2.0428,2.0428,2.0412,0.0,0.0,0.0,0.0,0.0,0.0,1.5898,1.5898,1.5898,1.5898,1.7452,1.9156,2.0792,2.2359,2.3452,2.3785,2.1484,1.9455,1.8081,1.5769,1.4789,1.5627,1.6727,1.8066,1.9774,2.0471,2.1259,2.2145,2.1827,2.1888,2.2227,2.1758,2.1907,2.2683,2.2795,2.199,2.0705,2.093,2.0151,1.8733,1.7237,1.6871,1.6921,0.0,0.0,0.0,0.0,0.0,0.0,0.0,0.0,0.0,0.0,0.0,0.0,0.0,0.0,0.0,0.0,0.0,0.0,0.0,0.0,0.0,0.0,0.0,0.0,0.0,0.0,0.0,0.0,0.0,0.0,0.0,1.8051,1.8354,1.7642,1.8995,2.0197,2.0555,2.1249,2.1773,2.1747,2.2181,2.2497,2.2705,2.3877,2.4447,2.4112,2.4112,2.4287,2.4721,2.3217,2.2414,2.2414,2.3282,2.3825,2.4015,2.4015,2.4367,2.4991,2.4313,2.3431,2.2365,2.1673,2.2486,2.4302,2.4302,2.3148,2.1501,2.2717,2.3194,2.3194,2.3194,2.3194,2.2917,0.0,0.0,0.0,0.0,0.0,0.0,1.5799,1.5799,1.5799,1.5799,1.7682,1.9447,2.0493,2.203,2.2875,2.2597,2.0372,1.8372,1.7116,1.5589,1.5349,1.6645,1.8014,1.9417,2.0858,2.1353,2.1712,2.2113,2.1534,2.1294,2.1363,2.1239,2.1248,2.1539,2.2444,2.2429,2.1603,2.1871,2.1712,2.1072,1.9609,1.9022,1.8885,1.7031,1.6977,1.7824,1.7041,1.7152,1.7589,1.6697,0.0,0.0,0.0,0.0,0.0,0.0,0.0,0.0,0.0,0.0,0.0,0.0,0.0,0.0,0.0,0.0,0.0,0.0,0.0,0.0,0.0,0.0,0.0,0.0,1.9074,2.0061,2.0218,2.091,2.1694,2.2505,2.2897,2.3106,2.3119,2.3476,2.3677,2.3446,2.3966,2.4229,2.4112,2.4112,2.4287,2.462,2.3285,2.2511,2.2511,2.287,2.3622,2.4835,2.4948,2.4476,2.3499,2.3499,2.3169,2.2593,2.2179,2.2855,2.4302,2.4302,2.3379,0.0,0.0,0.0,0.0,0.0,2.2609,2.2394,0.0,0.0,0.0,0.0,0.0,0.0,1.5799,1.5799,1.5799,1.577,1.7852,1.9302,1.9222,2.0939,2.1636,2.0415,1.8727,1.7215,1.6045,1.5757,1.6235,1.7572,1.8999,2.0263,2.1474,2.1843,2.182,2.1371,2.0994,2.0462,1.9859,2.0614,2.0642,2.0159,2.1653,2.2637,2.3144,2.2807,2.2897,2.3112,2.2216,2.1787,2.1377,1.9221,1.9431,2.076,1.9679,1.8978,1.8459,1.7877,0.0,0.0,0.0,0.0,0.0,0.0,0.0,0.0,0.0,0.0,0.0,0.0,0.0,0.0,0.0,0.0,0.0,0.0,0.0,0.0,0.0,0.0,0.0,0.0,2.0335,2.2152,2.3433,2.3145,2.3171,2.4191,2.4308,2.4308,2.4308,2.4269,2.4243,2.4243,2.4282,2.4256,2.4125,2.4112,0.0,0.0,0.0,2.4112,2.4112,2.3292,2.3402,2.4563,2.4835,2.3689,2.1326,2.1326,2.2267,2.3894,2.3937,2.4078,2.4302,2.4302,2.4302,2.4302,2.4302,2.4302,2.401,2.1645,2.0767,2.0767,0.0,0.0,0.0,0.0,0.0,0.0,1.5799,1.5799,1.577,1.5639,1.714,1.818,1.81,1.9077,1.9614,1.9238,1.7327,1.5658,1.4502,1.6036,1.7629,1.9018,2.0795,2.2251,2.3285,2.254,2.2168,2.2168,2.1453,2.1231,2.139,2.1227,2.142,2.198,2.1235,2.1615,2.2613,2.2661,2.2867,2.3135,2.2565,2.226,2.1924,2.0151,1.9802,2.0156,1.9627,1.9977,2.0471,1.9617,1.9572,1.9522,1.7526,0.0,0.0,0.0,0.0,0.0,0.0,0.0,0.0,0.0,0.0,0.0,0.0,0.0,0.0,0.0,0.0,0.0,0.0,0.0,0.0,2.1315,2.2296,2.3616,2.5707,2.5524,2.5249,2.5471,2.5497,2.5497,2.5497,2.5197,2.5001,2.5001,2.5301,2.5092,2.4164,2.4112,2.4112,2.4112,2.4112,2.4112,2.4112,2.3418,2.3474,2.4229,0.0,0.0,2.0848,2.0848,2.1033,2.1444,2.1827,2.286,2.4302,2.4302,2.4302,2.4302,2.4302,2.4302,2.4241,2.3717,2.3533,2.3533,0.0,0.0,0.0,0.0,0.0,0.0,1.5712,1.5712,1.561,1.5329,1.6484,1.7135,1.6614,1.7301,1.7544,1.6871,1.54,1.4584,1.4737,1.6563,1.8301,1.9895,2.1677,2.2766,2.3011,2.2713,2.2357,2.1963,2.1669,2.154,2.1587,2.1678,2.2145,2.2735,2.2134,2.2183,2.2764,2.2827,2.2982,2.3113,2.2922,2.2785,2.2691,2.1835,2.1615,2.1694,2.1479,2.1276,2.0965,2.0203,2.0084,1.9895,1.8203,1.7384,1.6784,0.0,0.0,0.0,0.0,0.0,0.0,0.0,0.0,0.0,0.0,0.0,0.0,0.0,0.0,1.7453,1.8544,0.0,2.1224,2.2962,2.3955,2.4922,2.6086,2.6491,2.6569,2.6282,2.5994,2.5746,2.5537,2.5328,2.5053,2.4687,2.4857,2.5223,2.5798,2.5824,2.5301,2.4151,2.4112,2.4112,2.4112,2.3778,2.3778,2.4112,2.4287,2.3668,2.2387,2.2387,2.2549,2.2858,2.3109,2.4397,2.6257,2.4872,2.4302,2.4302,2.4302,2.4302,2.4302,2.4302,2.4302,2.4302,0.0,0.0,0.0,0.0,0.0,0.0,0.0,1.5551,1.5418,1.4937,1.5802,1.6096,1.5101,1.5615,1.5578,1.4484,1.384,1.4061,0.0,1.7094,1.882,2.0543,2.2242,2.2903,2.2439,2.2675,2.2389,2.1589,2.1791,2.1797,2.1641,2.208,2.2598,2.3135,2.3135,2.3135,2.3135,2.3135,2.3135,2.3105,2.3117,2.3183,2.3106,2.3075,2.3168,2.3186,2.3055,2.1992,2.059,2.0205,1.9715,1.9107,1.8187,1.763,1.7152,1.5877,1.4977,0.0,0.0,0.0,0.0,0.0,0.0,0.0,0.0,1.597,1.7303,1.6493,1.7904,1.9512,2.0322,2.1407,2.2714,2.4347,2.5354,2.5994,2.6138,2.6752,2.7027,2.6569,2.6295,2.602,2.5694,2.5667,2.5419,2.4831,2.4779,2.5576,2.7432,2.7314,2.6255,2.4178,2.4112,2.4112,2.4112,2.4112,2.4112,2.4112,2.4112,2.4112,2.4112,2.4112,2.439,2.4808,2.4874,2.5915,2.7442,2.521,2.4302,2.4302,2.4302,2.4641,2.5041,2.4502,2.4302,2.4302,0.0,0.0,0.0,0.0,0.0,0.0,0.0,0.0,1.5329,1.4564,1.4996,1.5006,1.3993,1.4169,1.4094,1.344,1.3813,0.0,1.5446,1.7677,1.9581,2.0941,2.2907,2.3617,2.3078,2.2729,2.2285,2.1889,2.1865,2.206,2.2383,2.2324,2.2598,2.3135,2.3135,2.3135,2.3135,2.3135,2.3135,2.3135,2.3086,2.3024,2.2894,2.2479,2.2281,2.2216,2.1901,2.0819,1.9625,1.9861,1.9016,1.7809,1.7526,1.7411,1.6943,1.5116,1.472,1.4613,1.3318,1.3285,1.3581,1.3615,1.4849,1.6061,0.0,1.746,1.8832,1.9237,2.1525,2.3315,2.291,2.3799,2.4975,2.619,2.636,2.6556,2.7249,2.6582,2.5994,2.5929,2.6752,2.7314,2.7275,2.7262,2.7236,2.7157,2.7144,2.7262,2.751,2.6569,2.5432,2.4151,2.4112,2.4112,2.4112,2.4112,2.4112,2.4112,2.4112,2.4112,2.4112,2.4112,2.4112,2.4226,2.4316,2.4536,2.4733,2.4441,2.4302,2.4302,2.4302,2.5795,2.7657,2.521,2.4302,2.4302,0.0,0.0,0.0,0.0,0.0,0.0,0.0,0.0,0.0,1.4433,1.4345,1.4098,1.3484,1.3503,1.3366,1.2885,1.3148,0.0,1.5477,1.727,1.9019,2.0659,2.2521,2.3215,2.2451,2.2169,2.1872,2.1466,2.108,2.1282,2.207,2.2013,2.237,2.3135,2.3135,2.3135,2.3135,2.3135,2.3135,2.3115,2.2871,2.2605,2.2188,2.1134,2.0392,1.9919,1.9979,1.9145,0.0,0.0,1.7102,1.661,1.6216,1.6166,1.5924,1.4725,1.4458,1.4532,1.4175,1.4308,1.4616,1.4938,1.632,1.7613,1.7434,1.8963,2.0401,2.0322,2.206,2.372,2.4151,2.4909,2.5837,2.6987,2.7105,2.7013,2.6883,2.6269,2.5576,2.4909,2.406,2.4583,2.7262,2.7523,2.7523,2.7523,2.7523,2.7523,2.7523,2.7079,2.5981,2.4178,2.4112,2.4112,2.4112,2.4112,2.4112,2.4112,2.4112,2.4112,2.4112,2.4112,2.4112,2.4118,2.4161,2.4175,2.4329,2.5978,2.5749,2.4471,2.6072,2.7396,2.8073,2.5318,2.4302,2.4302,0.0,0.0,0.0,0.0,0.0,0.0,0.0,0.0,0.0,0.0,1.3815,1.3581,1.3232,1.3094,1.2943,1.2638,0.0,0.0,0.0,1.6389,1.7924,1.9825,2.153,2.2274,2.1885,2.1892,2.1711,2.1273,2.0829,2.0872,2.1329,2.1606,2.2059,2.2687,2.296,2.3135,2.3135,2.3135,2.3076,2.293,2.251,2.1865,2.1006,1.9649,1.8448,1.7506,1.7762,1.7083,0.0,0.0,1.497,1.4925,1.466,1.4717,1.4817,1.431,1.4009,1.4017,1.4516,1.4697,1.4923,1.5686,1.7192,1.8361,1.8017,1.9862,2.1375,2.0553,2.1905,2.3425,2.417,2.4835,2.5714,2.6831,2.7314,2.7183,2.6203,2.5654,2.4805,2.3341,2.1681,2.2022,2.5301,2.6216,2.6844,2.7484,2.7523,2.7392,2.7079,2.7066,2.6229,2.4413,2.4204,2.4112,2.4112,2.4112,2.4112,2.4112,2.4112,2.4112,2.4112,2.4112,2.4112,2.4112,2.4112,2.4112,2.4332,2.7225,2.7226,2.5641,2.7626,2.8411,2.8165,2.6164,2.4964,2.4302,0.0,0.0,0.0,0.0,0.0,0.0,0.0,0.0,0.0,0.0,0.0,0.0,0.0,1.2861,1.2603,1.2603,0.0,0.0,0.0,1.5036,1.6475,1.8327,1.9856,2.1095,2.1865,2.2314,2.2198,2.1676,2.1686,2.115,2.0232,2.1239,2.1695,2.1784,2.2687,2.3135,2.3135,2.3135,2.29,2.249,2.207,2.0889,1.9268,1.8389,1.6928,1.534,1.5507,0.0,0.0,1.3129,1.271,1.2463,1.2834,1.3318,0.0,1.3718,1.3328,1.3116,1.3816,1.3836,1.3979,1.5302,1.6581,1.7548,1.7536,1.983,2.1539,1.9937,2.1564,2.3031,2.2564,2.3419,2.4542,2.5647,2.6804,2.6987,2.5458,2.4622,2.3315,2.1079,2.0751,2.0751,2.0895,2.2897,2.5145,2.7353,2.7523,2.704,2.5929,2.5876,2.5589,2.4962,2.4413,2.4112,2.4112,2.4112,2.4112,2.4112,2.4112,2.4112,2.4112,2.4112,2.4112,2.4112,2.4112,2.4112,2.4332,2.7225,2.835,2.8288,2.8365,2.8411,2.8396,2.8319,2.6595,2.4302,0.0,0.0,0.0,0.0,0.0,0.0,0.0,0.0,0.0,0.0,0.0,0.0,0.0,0.0,0.0,0.0,0.0,0.0,0.0,1.374,1.4654,1.5975,1.7239,1.8082,1.8476,1.8444,1.8473,1.8515,1.8083,1.8016,1.8354,1.8854,1.9487,2.0104,2.0458,2.0897,2.1419,2.1419,2.1368,2.1162,2.0449,1.938,1.7976,1.6103,1.4749,1.3761,0.0,0.0,0.0,1.1809,1.1499,1.1395,1.151,1.1683,1.2042,1.2944,1.3223,1.3568,1.5142,1.5808,1.631,1.7455,1.8475,1.9209,1.9344,2.0217,2.0758,2.0012,2.0514,2.1299,2.202,2.2324,2.3352,2.5814,2.6308,2.6478,2.6713,2.5236,2.325,2.0987,2.0699,2.0699,2.0699,2.1419,2.2779,2.5092,2.5262,2.5092,2.4713,2.4687,2.4818,2.5118,2.4465,2.4112,2.4112,2.4112,2.4112,2.4112,2.4112,2.4112,2.4112,2.4112,2.4112,2.4112,2.4112,2.4978,2.6481,2.7458,2.789,2.789,2.825,2.8186,2.794,2.825,2.7811,2.7026,0.0,0.0,0.0,0.0,0.0,0.0,0.0,0.0,0.0,0.0,0.0,0.0,0.0,0.0,0.0,0.0,0.0,0.0,0.0,0.0,1.2953,1.412,1.5239,1.586,1.604,1.5668,1.5591,1.5831,1.5575,1.5579,1.5802,1.646,1.7106,1.7751,1.8072,1.8559,1.9122,1.9289,1.9211,1.8914,1.8348,1.735,1.5999,1.4218,1.3125,0.0,0.0,0.0,0.0,1.1077,1.0891,1.0891,1.0891,1.1253,1.1754,1.237,1.2981,1.3944,1.5818,1.6822,1.7534,1.8441,1.9148,1.9598,1.9392,1.9667,1.9691,1.8704,1.8802,1.9246,1.9891,2.0091,2.0946,2.3395,2.3901,2.4211,2.4937,2.4525,2.3406,2.155,2.1695,2.189,2.189,2.1197,2.1328,2.2766,2.3642,2.4295,2.47,2.4857,2.5079,2.5419,2.5105,2.4792,2.4504,2.4661,2.4517,2.4112,2.4112,2.4112,2.4112,2.4112,2.4112,2.4112,2.4112,2.5412,2.7509,2.6707,2.6864,2.7625,2.7989,2.8465,2.9034,2.9623,2.9827,2.9689,0.0,0.0,0.0,0.0,0.0,0.0,0.0,0.0,0.0,0.0,0.0,0.0,0.0,0.0,0.0,0.0,0.0,0.0,0.0,0.0,0.0,1.2642,1.3746,1.4396,1.4541,1.3996,1.3743,1.3802,1.416,1.3868,1.2914,1.4144,1.4719,1.4798,1.5782,1.62,1.6347,1.683,1.657,1.5851,1.5921,1.5044,1.3561,1.2679,0.0,0.0,0.0,0.0,1.0891,1.0891,1.0902,1.0922,1.0953,1.1903,1.282,1.2009,1.2785,1.4215,1.5905,1.6889,1.7625,1.8278,1.8744,1.8796,1.7905,1.8276,1.8214,1.621,1.6499,1.698,1.65,1.6894,1.7705,1.9085,2.0055,2.0644,2.074,2.271,2.3728,2.2662,2.3498,2.4204,2.4282,2.2191,2.0882,2.0882,2.2923,2.47,2.585,2.6177,2.6177,2.5863,2.6177,2.602,2.5328,2.5602,2.5197,2.4112,2.4112,2.4112,2.4112,2.4112,2.4178,2.4282,2.4282,2.5508,2.7343,2.5197,2.5605,2.7601,2.7667,2.9256,3.164,3.2176,3.2398,3.2028,0.0,0.0,0.0,0.0,0.0,0.0,0.0,0.0,0.0,0.0,0.0,0.0,0.0,0.0,0.0,0.0,0.0,0.0,0.0,0.0,0.0,0.0,0.0,0.0,0.0,0.0,0.0,0.0,0.0,1.1817,1.1575,1.2146,1.2626,1.2876,1.3132,1.3823,1.4711,1.4835,1.4796,1.47,0.0,1.377,1.2836,0.0,0.0,0.0,0.0,0.0,1.0891,1.0891,1.1137,1.1468,1.1809,1.2392,1.295,1.3065,1.4363,1.6111,1.7892,1.8749,1.9235,1.9432,1.8982,1.8383,1.7601,1.6747,1.5839,1.4733,1.4655,1.4949,1.537,1.6064,1.7456,2.0189,2.0734,2.1079,2.1736,2.3223,2.4306,2.4535,2.4529,2.5078,2.6479,2.4583,2.3237,2.3237,2.457,2.589,2.704,2.6086,2.5733,2.6229,2.6073,2.6282,2.6935,2.5354,2.44,2.4112,2.4112,2.4112,2.4112,2.4112,2.5053,2.6661,2.6661,2.6466,2.6302,2.6549,2.7019,2.7561,2.8132,2.9943,3.2176,3.2342,3.2398,3.229,0.0,0.0,0.0,0.0,0.0,0.0,0.0,0.0,0.0,0.0,0.0,0.0,0.0,0.0,0.0,0.0,0.0,0.0,0.0,0.0,0.0,0.0,0.0,0.0,0.0,0.0,0.0,0.0,0.0,0.0,0.0,1.0082,1.0461,1.0675,1.0825,1.1372,1.2092,1.252,0.0,0.0,0.0,0.0,0.0,0.0,0.0,0.0,0.0,0.0,0.0,1.1147,1.1768,1.2513,1.2782,1.3445,1.4231,1.4687,1.5939,1.7564,1.9375,2.0255,2.0514,1.9983,1.9375,1.8653,1.7207,1.6001,1.4819,1.3726,1.3772,1.4,1.4181,1.5082,1.6362,1.8024,1.8692,1.938,2.0437,2.206,2.3631,2.4868,2.5064,2.5467,2.6374,2.5968,2.5328,2.4648,2.5354,2.6177,2.6987,2.6203,2.6086,2.687,2.6687,2.6883,2.7523,2.6255,2.5615,2.5615,2.5615,2.5615,2.5576,2.4583,2.5367,2.7523,0.0,2.717,2.6595,2.6909,2.7223,2.7656,2.9247,3.094,3.2398,3.2398,3.2398,3.2398,0.0,0.0,0.0,0.0,0.0,0.0,0.0,0.0,0.0,0.0,0.0,0.0,0.0,0.0,0.0,0.0,0.0,0.0,0.0,0.0,0.0,0.0,0.0,0.0,0.0,0.0,0.0,0.0,0.0,0.0,0.0,0.0,0.0,0.0,0.0,0.0,0.0,0.0,0.0,0.0,0.0,0.0,0.0,0.0,0.0,0.0,0.0,0.0,0.0,0.0,1.2534,1.3631,1.3765,1.4749,1.598,1.656,1.7522,1.8775,2.0524,2.1393,2.1487,2.0172,1.9665,1.893,1.6777,1.5432,1.4273,1.3055,1.3291,1.3565,1.3245,1.4208,1.5039,1.4942,1.5913,1.7191,1.8538,2.0514,2.2536,2.4469,2.5201,2.5484,2.5413,2.6596,2.6792,2.5449,2.5733,2.6073,2.6373,2.6491,2.6844,2.751,2.7523,2.7523,2.7523,2.7523,2.7523,2.7523,2.7523,2.7523,2.7458,2.5471,2.5654,2.7523,2.7523,2.7523,2.7471,2.6817,2.6935,2.7776,3.0464,3.1796,3.2287,3.2287,3.2287,3.2287,0.0,0.0,0.0,0.0,0.0,0.0,0.0,0.0,0.0,0.0,0.0,0.0,0.0,0.0,0.0,0.0,0.0,0.0,0.0,0.0,0.0,0.0,0.0,0.0,0.0,0.0,0.0,0.0,0.0,0.0,0.0,0.0,0.0,0.0,0.0,0.0,0.0,0.0,0.0,0.0,0.0,0.0,0.0,0.0,0.0,0.0,0.0,0.0,0.0,0.0,1.2793,1.3745,1.4511,1.5701,1.7046,1.8257,1.9023,1.9799,2.1259,2.1725,2.1569,2.0565,1.9189,1.7688,1.6156,1.426,1.2686,1.2388,1.2446,1.2765,1.3387,1.4028,1.4805,1.5954,1.6645,1.7734,1.9547,2.151,2.3207,2.4406,2.5299,2.5955,2.6416,2.6528,2.6505,2.6194,2.6426,2.6491,2.6399,2.6987,2.7392,2.7523,2.7523,2.7523,2.7523,2.7523,2.7523,2.7523,2.7523,2.7523,2.7523,2.7118,2.7157,2.7523,2.7523,0.0,2.7523,2.7392,2.7406,2.7776,3.0464,3.1582,3.164,3.164,3.164,3.164,0.0,0.0,0.0,0.0,0.0,0.0,0.0,0.0,0.0,0.0,1.2337,1.1251,0.0,0.0,0.0,0.0,0.0,0.0,0.0,0.0,0.0,0.0,0.0,0.0,0.0,0.0,0.7985,0.7536,0.0,0.0,0.0,0.7631,0.7953,0.8447,0.0,0.0,0.0,0.0,0.0,0.0,0.0,0.0,0.0,0.0,0.0,0.0,0.0,0.0,0.0,0.0,1.2839,1.3496,1.4914,1.6301,1.7667,1.9034,1.965,2.0058,2.1435,2.1807,2.1528,2.0369,1.8899,1.7243,1.539,1.3569,1.2152,1.1612,1.1943,1.2462,1.2929,1.3948,1.4844,1.5316,1.6153,1.7422,1.9284,2.1026,2.2674,2.4144,2.5247,2.5828,2.5691,2.609,2.6168,2.5712,2.6557,2.6948,2.6556,2.717,2.7523,2.7523,2.7523,2.7523,2.7523,2.7523,2.7523,2.7523,2.7523,2.7523,2.7523,2.7523,2.7523,2.7523,2.7523,2.7523,2.7523,2.7523,2.7523,2.7656,2.8903,2.9407,2.9594,3.097,3.1482,3.1482,0.0,0.0,0.0,0.0,0.0,0.0,0.0,1.4641,1.4467,1.3866,1.331,1.2342,1.0733,0.938,0.0,0.0,0.0,0.0,0.0,0.0,0.0,0.0,0.0,0.0,0.0,0.0,0.0,0.7678,0.7825,0.0,0.0,0.0,0.0,0.0,0.8967,0.9288,0.954,0.0,0.0,0.0,0.0,1.0891,0.0,0.0,0.0,0.0,0.0,0.0,0.0,0.0,1.2715,1.3051,1.4706,1.6233,1.7678,1.8837,1.9385,1.9893,2.1166,2.158,2.1352,2.0079,1.8589,1.6891,1.479,1.3103,1.1819,1.118,1.164,1.2222,1.251,1.3806,1.4776,1.4616,1.5725,1.7122,1.8838,2.0447,2.2065,2.3824,2.5027,2.5459,2.4957,2.5613,2.5884,2.5439,2.6713,2.734,2.6883,2.7288,2.7523,2.7523,2.7523,2.7523,2.7523,2.7523,2.7523,2.7523,2.7523,2.7523,2.7523,2.7523,2.7523,2.7523,2.7523,2.7523,2.7523,2.7523,2.7523,2.7523,2.7523,2.7523,2.7842,3.0524,3.1482,3.1482,0.0,0.0,0.0,0.0,0.0,0.0,0.0,1.3892,1.3866,1.3801,1.3741,1.3753,1.3928,1.1482,0.0,0.0,0.0,0.0,0.0,0.0,0.0,0.0,0.0,0.0,0.0,0.0,0.0,0.8594,0.817,0.0,0.0,0.0,0.0,0.0,0.0,0.9128,0.9279,0.8805,0.0,0.0,0.0,0.0,0.0,0.0,0.0,0.0,0.0,1.1575,1.1058,1.2296,1.2538,1.2507,1.3395,1.5014,1.6612,1.714,1.8164,1.9344,2.0296,2.0855,2.0948,1.9996,1.8123,1.6115,1.4645,1.2617,1.1089,1.14,1.1563,1.1909,1.2656,1.3346,1.4058,1.4833,1.6316,1.7784,1.885,2.0699,2.2289,2.3318,2.4343,2.5113,2.5588,2.5268,2.5524,2.6758,2.7245,2.751,2.7458,2.7497,2.7523,2.7523,2.7523,2.7523,2.7523,2.7523,2.7523,2.7523,2.7523,2.7523,2.7523,2.7523,2.7523,2.7523,2.7523,2.7523,0.0,2.7523,2.7523,2.7523,2.7523,2.7523,2.7842,3.0524,3.1482,3.1482,0.0,0.0,0.0,0.0,0.0,0.0,0.0,1.4467,1.4807,1.5722,1.584,1.5489,1.4516,1.2319,1.0708,0.0,0.0,0.0,0.0,0.0,0.0,0.0,0.0,0.0,0.0,0.0,0.9518,0.8529,0.8594,0.0,0.0,0.0,0.0,0.0,0.0,0.9518,1.0069,0.9961,0.0,0.0,0.0,0.0,0.0,0.0,0.0,0.0,0.0,0.0,1.1745,1.271,1.2652,1.2246,1.2553,1.339,1.4539,1.615,1.7222,1.8226,1.9955,2.0555,2.0483,1.9572,1.7636,1.5597,1.421,1.2348,1.0957,1.1099,1.1378,1.1909,1.2874,1.3379,1.3865,1.4508,0.0,1.6446,1.7896,1.9327,2.0894,2.2705,2.3775,2.4368,2.4415,2.5,2.5923,2.7191,2.7403,2.7523,2.7523,2.7523,2.7523,2.7523,2.7523,2.7523,2.7523,2.7523,2.7523,2.7523,2.7523,2.7523,2.7523,2.7523,2.7523,2.7523,2.7523,2.7523,0.0,2.7523,2.7523,2.7523,2.7523,2.7523,2.7842,3.0524,3.1482,3.1482,0.0,0.0,0.0,0.0,0.0,0.0,1.4507,1.455,1.4977,1.6049,1.6781,1.671,1.5344,1.4029,1.2578,1.1047,0.0,0.0,0.0,0.0,0.0,0.0,0.0,0.0,0.0,0.0,0.0,0.9136,0.9151,0.8941,0.0,0.0,0.9359,0.9991,0.0,0.0,0.0,0.0,0.0,0.0,0.0,0.0,0.0,0.0,0.0,0.0,0.0,0.0,0.0,0.0,0.0,1.2113,1.2222,0.0,0.0,1.4662,1.5866,1.6995,1.8589,1.9323,1.9375,1.833,1.6663,1.4914,1.3527,1.2027,1.0891,1.0891,1.1378,1.1988,1.2617,1.3316,1.3967,0.0,0.0,1.5984,1.7612,1.8659,2.0002,2.198,2.3213,2.3834,2.3607,2.5192,2.6762,2.7913,2.7092,2.6517,2.6517,2.7157,2.7523,2.7523,2.7523,2.7523,2.7523,2.7523,2.7523,2.7523,2.7523,2.7523,2.7523,2.7523,2.7523,2.7523,2.7523,2.7523,0.0,2.7523,2.7523,2.7523,2.7523,2.7941,2.8749,3.0628,3.0931,3.0404,0.0,0.0,0.0,0.0,0.0,0.0,0.0,1.3801,1.3801,1.3814,1.5787,1.7199,1.7157,1.7131,1.5446,1.1267,0.0,0.0,0.0,0.0,0.0,0.0,0.0,0.0,0.0,0.0,0.0,1.0881,1.0021,0.9579,0.9579,0.8765,0.9288,1.0891,0.0,0.0,0.0,0.0,0.0,0.0,0.0,0.0,0.0,0.0,0.0,0.0,0.0,0.0,0.0,0.0,0.0,0.0,0.0,1.2102,1.1611,0.0,1.3921,1.5711,1.5732,1.6726,1.744,1.6063,1.5018,1.3962,1.2629,1.1571,1.0891,1.0891,1.1651,1.216,1.1692,1.3153,1.4425,1.4572,1.5695,0.0,1.8423,1.9282,2.0167,2.1198,2.266,2.3569,2.3628,2.5973,2.8007,2.917,2.6086,2.4151,2.4151,2.6295,2.7523,2.7523,2.7523,2.7523,2.7523,2.7523,2.7523,2.7523,2.7523,2.7523,2.7523,2.7523,2.7523,2.7523,2.7523,2.7523,0.0,2.7523,2.7523,2.7523,2.7523,2.8935,3.0947,3.1022,2.9568,2.7908,0.0,0.0,0.0,0.0,0.0,0.0,0.0,1.3788,1.3788,1.3788,1.4415,1.4872,1.4872,1.6271,1.594,1.277,0.0,0.0,0.0,0.0,0.0,0.0,0.0,0.0,0.0,0.0,0.0,0.0,0.0,0.0,1.0477,1.0244,1.04,1.0891,1.0891,1.0891,0.0,0.0,0.0,0.0,0.0,0.0,0.0,0.0,0.0,0.0,0.0,0.0,0.0,0.0,0.0,0.0,0.0,0.0,0.0,1.1839,1.271,1.4003,1.4956,1.5535,1.5753,1.5328,1.4471,1.3485,1.2517,1.1792,1.1239,1.0957,1.1378,1.2093,1.2889,1.3117,1.3682,1.5164,1.6144,1.7112,1.8172,1.9522,2.086,2.2031,2.3684,2.4666,2.4532,2.6699,2.7793,2.6987,2.6634,2.5772,2.4204,2.6282,2.7523,2.7523,2.7523,2.7523,2.7523,2.7523,2.7523,2.7523,2.7523,2.7523,2.7523,2.7523,2.8399,2.9889,2.9889,2.9889,2.9889,2.9889,2.9889,2.9889,2.9889,3.0346,3.0986,3.0986,3.0516,3.0294,0.0,0.0,0.0,0.0,0.0,0.0,0.0,1.3788,1.3788,1.3788,1.3788,1.3788,1.3788,1.5055,1.5255,1.3565,0.0,0.0,0.0,0.0,0.0,0.0,0.0,0.0,0.0,0.0,0.0,0.0,0.0,0.0,0.0,0.0,1.0891,1.0891,1.0891,1.1212,0.0,0.0,0.0,0.0,0.0,0.0,1.2861,0.0,0.0,0.0,0.0,0.0,0.0,0.0,0.0,0.0,0.0,0.0,0.0,0.0,1.2034,1.2551,1.3471,1.3952,1.4138,1.3786,1.3233,1.2595,1.1944,1.1509,1.1201,1.0957,1.1418,1.2071,1.2782,1.296,1.3535,1.5073,1.6394,1.746,1.8223,1.9497,2.097,2.2576,2.4038,2.5019,2.5369,2.7009,2.7858,2.7366,2.7183,2.6412,2.4844,2.653,2.7523,2.7523,2.7523,2.7523,2.7523,2.6674,2.6674,2.7523,2.7523,2.7523,2.7562,2.8438,2.9627,3.0986,3.0986,3.0986,0.0,3.0986,3.0986,3.0986,3.0986,3.0986,3.0986,3.0986,3.169,3.2818,0.0,0.0,0.0,0.0,0.0,0.0,0.0,0.0,0.0,0.0,1.3788,1.3788,1.3788,1.3788,1.3788,0.0,0.0,0.0,0.0,0.0,0.0,0.0,0.0,0.0,0.0,0.0,0.0,1.1071,1.2775,1.3548,1.3382,0.0,0.0,0.0,1.1071,0.0,0.0,0.0,0.0,0.0,1.3198,1.3198,0.0,0.0,0.0,0.0,0.0,0.0,0.0,0.0,0.0,0.0,0.0,0.0,0.0,0.0,0.0,0.0,0.0,1.2172,1.2619,1.1778,1.16,1.1496,1.1012,1.0919,0.0,1.0919,1.1619,1.2127,1.1724,1.271,1.3845,1.4666,1.6456,1.8018,1.8618,1.9472,2.084,2.2927,2.3821,2.478,2.5973,2.6945,2.8082,2.9483,2.7706,2.6347,2.589,2.6922,2.7523,2.7523,2.7523,2.7497,2.7406,2.5301,2.5341,2.7523,2.7523,2.7523,2.7602,2.9758,3.083,0.0,3.0986,3.0986,3.0986,3.0986,3.0986,3.0986,3.0986,3.0986,3.0986,3.0986,3.2747,3.4802,0.0,0.0,0.0,0.0,0.0,0.0,0.0,0.0,0.0,0.0,0.0,1.3788,1.3788,1.3788,0.0,0.0,0.0,0.0,0.0,0.0,0.0,0.0,0.0,0.0,0.0,0.0,0.0,1.2662,1.3281,1.2906,1.1551,1.2295,0.0,0.0,0.0,0.0,0.0,0.0,0.0,0.0,1.3288,1.3301,0.0,0.0,0.0,0.0,1.3198,1.3198,0.0,0.0,0.0,0.0,0.0,0.0,0.0,0.0,1.221,1.2222,1.1647,0.0,1.1705,1.1204,1.1513,1.1782,0.0,1.1389,1.1638,1.1033,1.1324,1.1795,1.209,1.2415,1.3445,1.5946,1.719,1.8254,1.951,2.1184,2.267,2.3698,2.5134,2.5815,2.5061,2.678,2.7832,2.7445,2.7876,2.7615,2.6334,2.7066,2.7523,2.7523,2.7523,2.7105,2.6229,2.5694,2.6125,2.7523,2.7523,2.7523,2.7549,2.8098,2.9314,3.0986,3.0986,3.0986,3.0986,3.0986,3.0986,3.0986,3.0986,3.0986,3.0986,3.0986,3.1482,3.2259,0.0,0.0,0.0,0.0,0.0,0.0,0.0,0.0,0.0,0.0,0.0,0.0,0.0,0.0,0.0,0.0,0.0,0.0,0.0,0.0,0.0,0.0,0.0,0.0,0.0,0.0,0.0,0.0,0.0,1.4554,0.0,0.0,0.0,0.0,0.0,1.3472,1.3472,1.3391,1.3323,1.3301,1.3301,0.0,0.0,0.0,0.0,0.0,1.3198,1.3198,0.0,1.3198,1.3198,1.3198,0.0,0.0,0.0,0.0,1.2461,1.2496,1.192,1.1774,1.17,1.1501,1.1638,1.17,1.1276,1.1351,1.1463,1.1239,1.1551,1.1992,1.2388,1.3129,1.4362,1.6328,1.8377,2.0055,2.1049,2.158,2.2555,2.4285,2.5231,2.5589,2.5302,2.6809,2.7494,2.6739,2.7602,2.7798,2.6961,2.7301,2.7523,2.7523,2.7523,2.7236,2.6608,2.6608,2.6922,2.7523,2.7523,2.7523,2.7523,2.7523,2.8216,2.9457,3.0516,3.0986,3.0986,3.0986,3.0986,3.0986,3.0986,3.0986,3.0986,3.0986,3.1272,3.185,0.0,0.0,0.0,0.0,0.0,0.0,0.0,0.0,0.0,0.0,0.0,0.0,0.0,0.0,0.0,0.0,0.0,0.0,0.0,0.0,0.0,0.0,0.0,0.0,0.0,0.0,0.0,0.0,0.0,0.0,0.0,0.0,1.6796,0.0,0.0,1.3788,1.3788,1.3438,1.3369,1.3425,1.3288,0.0,0.0,0.0,0.0,0.0,0.0,0.0,0.0,1.3198,1.3198,1.3198,1.3198,0.0,0.0,0.0,0.0,0.0,1.2222,1.2207,1.2242,1.2052,1.1793,1.1625,1.1625,1.1475,1.1425,1.1773,1.2246,1.2681,1.2861,1.415,1.5487,1.6531,1.9763,2.2293,2.2841,2.1874,2.2097,2.4616,2.4906,2.5159,2.5892,2.6852,2.7261,2.6844,2.7249,2.7523,2.7523,2.7523,2.7523,2.7523,2.7523,2.7523,2.7523,2.7523,2.7523,2.7523,2.7523,2.7523,2.7536,2.7719,2.7889,2.8164,0.0,0.0,3.0986,3.0986,3.0986,3.0986,3.0986,3.0986,3.0986,3.0986,3.1556,3.22,0.0,0.0,0.0,0.0,0.0,0.0,0.0,0.0,0.0,0.0,0.0,0.0,0.0,0.0,0.0,0.0,0.0,0.0,0.0,0.0,0.0,0.0,0.0,0.0,0.0,0.0,0.0,0.0,0.0,0.0,1.7199,1.7199,1.6127,1.4193,0.0,1.3788,1.3788,1.3708,1.3641,1.3581,1.3547,0.0,0.0,0.0,0.0,0.0,0.0,0.0,0.0,1.3198,1.3198,1.3198,1.3198,0.0,0.0,0.0,0.0,0.0,1.2294,1.2609,1.2869,1.1838,1.1823,1.209,1.2157,1.2687,1.3242,1.3351,1.3701,1.4066,1.4346,1.4083,1.4857,1.7793,2.1028,2.3414,2.4164,2.4177,2.4295,2.4652,2.5562,2.597,2.5423,2.6384,2.7175,2.7339,2.7471,2.7523,2.7523,2.7523,2.7523,2.7523,2.7523,2.7523,2.7523,2.7523,2.7523,2.7523,2.7523,2.7523,2.7562,2.8556,2.9536,3.0477,0.0,3.0986,3.0986,3.0986,3.0986,3.0986,3.0986,3.0986,3.0986,3.0986,3.1136,3.1272,0.0,0.0,0.0,0.0,0.0,0.0,0.0,0.0,0.0,0.0,0.0,0.0,0.0,0.0,0.0,0.0,0.0,0.0,0.0,0.0,0.0,0.0,0.0,0.0,0.0,0.0,0.0,0.0,0.0,1.7839,1.9088,1.7787,1.6637,1.563,0.0,1.5291,1.4703,1.4582,1.4184,1.3581,0.0,0.0,0.0,0.0,0.0,0.0,0.0,0.0,0.0,0.0,1.3198,1.3198,1.3198,0.0,0.0,0.0,0.0,0.0,1.2508,1.2494,1.2475,1.1682,1.2036,1.2476,1.2294,1.2571,1.3039,1.3504,1.3998,1.4497,1.4995,1.5787,1.7352,2.0341,2.208,2.3361,2.4111,2.3935,2.4117,2.5202,2.5622,2.5865,2.6118,2.6845,2.7335,2.7456,2.7523,2.7523,2.7523,2.7523,2.7523,2.7523,2.7523,2.7523,2.7523,2.7523,2.7523,2.7523,2.7523,2.7693,2.7994,2.8229,2.9078,3.0346,0.0,3.0581,3.0986,3.0986,3.0986,3.0986,3.0986,3.0986,3.0986,3.0986,3.0986,3.1123,0.0,0.0,0.0,0.0,0.0,0.0,0.0,0.0,0.0,0.0,0.0,0.0,0.0,0.0,0.0,0.0,0.0,0.0,0.0,0.0,0.0,0.0,0.0,0.0,0.0,0.0,1.746,1.8009,1.8009,1.8636,1.986,1.8022,1.7199,0.0,1.7199,1.6558,1.5474,1.5038,1.4382,1.3628,0.0,0.0,0.0,0.0,0.0,0.0,0.0,0.0,0.0,0.0,0.0,0.0,0.0,0.0,0.0,1.3198,1.3198,1.3129,1.2708,1.24,1.2141,1.1734,1.216,1.2668,1.2704,1.2915,1.3369,1.4305,1.4785,1.5199,1.5695,1.7666,2.0048,2.2642,2.3268,2.368,2.4396,2.4006,2.4297,2.5829,2.5732,2.5963,2.6905,2.7214,2.7403,2.7456,2.7469,2.7469,2.7523,2.7523,2.7523,2.7523,2.7523,2.7523,2.7523,2.7523,2.7523,2.7523,2.7667,2.7889,2.8177,2.815,2.8699,2.9693,2.9967,3.0424,3.0986,3.0986,3.0986,3.0986,3.0986,3.0986,3.0986,3.0986,3.0986,3.1048,0.0,0.0,0.0,0.0,0.0,0.0,0.0,0.0,0.0,0.0,0.0,0.0,0.0,0.0,0.0,0.0,0.0,0.0,0.0,0.0,0.0,0.0,0.0,0.0,0.0,1.712,1.8257,2.0463,2.0463,1.9441,1.7447,1.7277,1.7199,1.7199,1.7199,1.6558,1.5421,1.4363,1.3866,1.3788,1.3788,0.0,0.0,0.0,0.0,0.0,0.0,0.0,0.0,0.0,0.0,0.0,0.0,0.0,1.3198,1.3198,1.3198,1.3129,1.2708,1.2621,1.2564,1.2144,1.221,1.2689,1.3933,1.4882,1.5847,1.7196,1.7209,1.6904,1.6956,1.9023,2.1487,2.3729,2.4703,2.5494,2.6239,2.6271,2.6283,2.6471,2.6526,2.6676,2.6943,2.7024,2.7146,2.7469,2.7403,2.7403,2.7456,2.7523,2.7523,2.7523,2.7523,2.7523,2.7523,2.7523,2.7523,2.7536,2.8072,2.8059,2.7641,2.9235,2.9719,2.9379,3.0438,3.0934,3.0986,3.0986,3.0986,3.0986,3.0986,3.0986,3.0986,3.0986,3.0986,3.0986,0.0,0.0,0.0,0.0,0.0,0.0,0.0,0.0,0.0,0.0,0.0,0.0,0.0,0.0,0.0,0.0,0.0,0.0,0.0,0.0,0.0,0.0,0.0,1.7199,1.7199,1.861,1.9821,2.0699,1.9258,1.8061,1.7199,1.7199,0.0,0.0,1.7199,1.6963,1.6532,1.6101,1.5095,1.3788,1.3788,1.3708,0.0,0.0,0.0,0.0,0.0,0.0,0.0,0.0,1.3198,1.3198,1.3198,1.3198,1.3198,1.3198,1.3198,1.3129,1.2708,1.2644,1.2601,1.224,1.2412,1.2968,1.4036,1.5006,1.5923,1.6781,1.7231,1.7615,1.7997,1.9553,2.1141,2.2559,2.4325,2.559,2.5718,2.6176,2.6533,2.6533,2.6589,2.6794,2.6943,2.7079,2.7268,2.7469,2.7469,2.7469,2.7523,2.7523,2.7523,2.7523,2.7523,2.7523,2.7523,2.7523,2.7523,2.7536,2.8111,2.8464,2.8647,2.9301,2.968,2.9836,3.0268,3.066,3.0986,3.0986,3.0986,3.0986,3.0986,3.0986,3.0986,3.0986,3.0986,3.0986,0.0,0.0,0.0,0.0,0.0,0.0,0.0,0.0,0.0,0.0,0.0,0.0,0.0,0.0,0.0,0.0,0.0,0.0,0.0,0.0,0.0,0.0,0.0,1.7199,1.7199,1.8754,1.9612,1.9612,1.797,1.7199,1.7199,0.0,0.0,0.0,1.7199,1.7199,1.7199,1.7199,1.5879,1.3801,1.4049,1.395,0.0,0.0,0.0,0.0,0.0,0.0,0.0,0.0,1.3198,1.3198,1.3198,1.3198,1.3198,1.3198,1.3129,1.2943,1.2673,1.257,1.2502,1.2396,1.2733,1.3465,1.4767,1.5595,1.6332,1.7067,1.7605,1.8155,1.8957,1.9689,2.0694,2.222,2.4038,2.5314,2.566,2.6164,2.6533,2.6533,2.6589,2.6726,2.6875,2.7079,2.7268,2.7403,2.7469,2.7469,2.7523,2.7523,2.7523,2.7523,2.7523,2.7523,2.7523,2.7523,2.7719,2.8085,2.8477,2.8686,2.8739,2.9301,2.9666,2.9889,3.0241,3.062,3.0986,3.0986,3.0986,3.0986,3.0986,3.0986,3.0986,3.0986,3.0986,3.0986,0.0,0.0,0.0,0.0,0.0,0.0,0.0,0.0,0.0,0.0,0.0,0.0,0.0,0.0,0.0,0.0,0.0,0.0,0.0,0.0,0.0,0.0,0.0,1.7199,1.7199,1.7199,1.7199,1.7199,1.7199,1.7199,1.7199,1.7199,0.0,0.0,1.7199,1.7199,1.7199,1.7199,1.5892,1.3892,1.4602,1.448,1.3788,0.0,0.0,0.0,0.0,0.0,0.0,0.0,1.3198,1.3198,1.3198,1.3198,1.3198,1.3198,1.2943,1.2603,1.2615,1.2396,1.2289,1.263,1.3162,1.4205,1.6371,1.6937,1.7429,1.8796,1.8702,1.872,1.9836,1.9714,2.0355,2.3173,2.409,2.4986,2.6308,2.6533,2.6533,2.6533,2.6589,2.6714,2.6714,2.6875,2.7079,2.7268,2.7268,2.7335,2.7456,2.7523,2.7523,2.7523,2.7523,2.7523,2.7523,2.7523,2.8111,2.9274,2.9274,2.8673,2.7615,2.9353,2.9836,2.9353,3.049,3.0986,3.0986,3.0986,3.0986,3.0986,3.0986,3.0986,3.0986,3.0986,3.0986,3.0986,0.0,0.0,0.0,0.0,0.0,0.0,0.0,0.0,0.0,0.0,0.0,0.0,0.0,0.0,0.0,0.0,0.0,0.0,0.0,0.0,0.0,0.0,0.0,0.0,0.0,0.0,1.7199,1.7199,1.7199,1.7199,0.0,0.0,0.0,1.7199,0.0,0.0,1.7199,1.7199,1.6807,1.6166,1.6066,1.4968,1.3404,0.0,0.0,0.0,0.0,0.0,0.0,0.0,0.0,0.0,1.3198,1.3198,1.3198,1.3198,1.2943,1.2674,1.2985,1.2872,1.2813,1.3587,1.418,1.4976,1.6602,1.7002,1.7461,1.921,1.9189,1.9267,2.0389,2.0928,2.1728,2.349,2.4627,2.553,2.6377,2.6533,2.6533,2.6533,2.6521,2.6589,2.6714,2.6726,2.6863,2.7079,2.7079,2.7079,2.7146,2.7146,2.7214,2.7335,2.7335,2.7403,2.7523,2.7523,2.7902,2.8647,2.8647,2.8895,2.9392,3.032,3.0424,2.9928,3.066,3.0986,3.0986,3.0986,3.0986,3.0986,3.0986,3.0986,3.0986,3.0849,3.0773,3.0761,0.0,0.0,0.0,0.0,0.0,0.0,0.0,0.0,0.0,0.0,0.0,0.0,0.0,0.0,0.0,0.0,0.0,0.0,0.0,0.0,0.0,0.0,0.0,0.0,0.0,1.7199,1.7199,0.0,0.0,0.0,0.0,0.0,0.0,1.7199,0.0,1.7199,1.7199,1.7199,1.7199,1.7199,1.6892,1.5694,1.4136,0.0,0.0,0.0,0.0,0.0,0.0,0.0,0.0,0.0,1.3198,1.3198,1.3163,1.3012,1.2685,1.2424,1.2545,1.2596,1.2807,1.3754,1.465,1.568,1.7222,1.7988,1.8796,2.0265,2.0338,2.0407,2.1559,2.2026,2.2721,2.4218,2.5025,2.571,2.6414,2.6533,2.6533,2.6533,2.6533,2.6521,2.6589,2.6658,2.6726,2.6875,2.7011,2.7079,2.7024,2.7297,2.7378,2.7227,2.742,2.7488,2.7403,2.7403,2.7756,2.8386,2.8386,2.9,3.015,3.049,3.0451,3.0163,3.0738,3.0986,3.0986,3.0986,3.0986,3.0986,3.0986,3.0986,3.0986,3.0773,3.0698,3.0698,0.0,0.0,0.0,0.0,0.0,0.0,0.0,0.0,0.0,0.0,1.7199,0.0,0.0,0.0,0.0,0.0,0.0,0.0,0.0,0.0,0.0,0.0,0.0,0.0,0.0,0.0,0.0,0.0,0.0,0.0,0.0,0.0,1.7199,1.7199,0.0,1.7199,1.7199,1.7199,1.7199,1.7199,1.7199,1.6584,1.5644,1.5389,0.0,0.0,0.0,0.0,0.0,0.0,0.0,0.0,1.3198,1.3235,1.3191,1.2768,1.246,1.2141,1.1797,1.2039,1.2661,1.3569,1.4945,1.6498,1.8185,1.9592,2.0762,2.1518,2.1647,2.1942,2.29,2.2962,2.3477,2.5155,2.5382,2.5664,2.6383,2.6533,2.6533,2.6533,2.6533,2.6533,2.6533,2.6589,2.6658,2.6658,2.6998,2.7146,2.6943,2.7567,2.77,2.7046,2.7442,2.7593,2.7359,2.7294,2.7621,2.8386,2.8386,2.893,3.0064,3.0064,3.009,3.0168,3.069,3.0986,3.0986,3.0986,3.0986,3.0986,3.0986,3.0986,3.0911,3.0698,3.0622,3.0622,0.0,0.0,0.0,0.0,0.0,0.0,0.0,0.0,0.0,0.0,0.0,0.0,0.0,0.0,0.0,0.0,0.0,0.0,0.0,0.0,0.0,0.0,0.0,0.0,0.0,0.0,0.0,0.0,0.0,0.0,0.0,0.0,0.0,1.7199,0.0,1.7199,1.7199,1.7199,1.7199,1.7199,1.7199,1.7055,1.6792,1.6367,1.5017,0.0,0.0,0.0,0.0,0.0,0.0,0.0,1.3232,1.3534,1.3785,1.3253,1.3165,1.322,1.3048,1.3141,1.3631,1.4925,1.7077,1.9075,1.982,2.0772,2.1362,2.0834,2.1282,2.2222,2.3576,2.3876,2.4366,2.5988,2.6245,2.6314,2.6465,2.6533,2.6533,2.6533,2.6533,2.6533,2.6533,2.6521,2.6521,2.6521,2.6589,2.6658,2.6602,2.6784,2.7069,2.7468,2.7138,2.7181,2.7708,2.7284,2.7361,2.7983,2.7983,2.8576,2.9609,2.9818,3.0138,3.0605,3.0545,3.0609,3.0773,3.0773,3.0685,3.052,3.0685,3.0685,3.052,3.0305,3.0228,3.0241,0.0,0.0,0.0,0.0,0.0,0.0,0.0,0.0,0.0,0.0,0.0,0.0,0.0,0.0,0.0,0.0,0.0,0.0,0.0,0.0,0.0,0.0,0.0,0.0,0.0,0.0,0.0,0.0,0.0,0.0,0.0,0.0,0.0,1.7199,0.0,1.7199,1.7199,1.7199,1.7199,1.7199,1.7199,1.7199,1.7157,1.6947,1.572,1.4069,1.3433,0.0,0.0,0.0,0.0,0.0,0.0,0.0,1.3998,1.3494,1.3612,1.3778,1.3042,1.3238,1.401,1.5621,1.774,1.9603,2.0276,2.0969,2.1404,2.1135,2.2041,2.318,2.3975,2.4696,2.5499,2.6383,2.6533,2.6533,2.6533,2.6533,2.642,2.6076,2.605,2.605,2.605,2.605,2.6163,2.6508,2.6589,2.6463,2.6063,2.637,2.6602,2.6627,2.6602,2.6784,2.7271,2.7003,2.7084,2.746,2.746,2.7979,2.9017,2.9764,3.0237,3.0533,3.0444,3.0444,3.0533,3.0533,3.052,3.0444,3.0533,3.052,3.0368,3.0152,3.0075,3.0075,0.0,0.0,0.0,0.0,0.0,0.0,0.0,0.0,0.0,0.0,0.0,0.0,0.0,0.0,0.0,0.0,0.0,0.0,0.0,0.0,0.0,0.0,0.0,0.0,0.0,0.0,0.0,0.0,0.0,0.0,0.0,0.0,0.0,1.7199,0.0,1.7199,1.7199,1.7199,1.7199,1.7199,1.7199,1.7199,1.7199,1.7199,1.649,1.5389,1.4131,1.375,1.3795,1.3709,0.0,0.0,0.0,0.0,1.4275,1.3889,1.415,1.4273,1.2946,1.3226,1.4333,1.6061,1.7729,1.9189,2.01,2.0669,2.1124,2.159,2.2754,2.3756,2.3902,2.5063,2.6164,2.6245,2.6383,2.6533,2.6533,2.6533,2.6251,2.5661,2.5598,2.5561,2.5473,2.546,2.5661,2.6138,2.6312,2.6097,2.5485,2.6047,2.6123,2.5611,2.5975,2.6332,2.6645,2.6557,2.6625,2.6875,2.6977,2.7494,2.8379,2.9604,3.0203,3.0368,3.0292,3.0292,3.0368,3.0368,3.0292,3.0292,3.0292,3.0292,3.0292,3.0075,3.0088,3.0011,0.0,0.0,0.0,0.0,0.0,0.0,0.0,0.0,0.0,0.0,1.7199,0.0,0.0,0.0,0.0,0.0,0.0,0.0,1.969,0.0,0.0,1.9384,1.9369,0.0,0.0,0.0,0.0,0.0,0.0,0.0,0.0,0.0,0.0,1.7199,0.0,0.0,1.7199,1.7199,1.7199,1.7199,1.7199,1.7199,1.7199,1.7199,0.0,1.6818,1.5853,1.5518,1.5415,1.5006,1.4815,0.0,0.0,0.0,1.5379,1.4863,1.5114,1.5389,1.4324,1.4424,1.5185,1.6581,1.7719,1.8713,1.9644,2.0193,2.0648,2.1114,2.1668,2.2317,2.299,2.3841,2.4636,2.5382,2.6025,2.6533,2.6533,2.6533,2.6251,2.5661,2.5598,2.5423,2.4971,2.4921,2.4958,2.5034,2.5034,2.5008,2.4921,2.4996,2.5209,2.5586,2.5234,2.5498,2.6521,2.603,2.603,2.6602,2.7024,2.7578,2.8134,2.8824,2.9454,3.0152,2.9934,3.0011,3.0152,3.0152,3.0011,2.9856,3.0075,3.0011,2.9869,2.9869,2.9869,2.9869,0.0,0.0,0.0,0.0,0.0,0.0,0.0,0.0,0.0,0.0,0.0,1.7557,0.0,0.0,0.0,1.9566,1.8831,1.8717,1.9639,1.969,1.9295,1.8316,1.8291,1.8408,1.8602,0.0,0.0,0.0,0.0,0.0,0.0,1.7199,1.7199,0.0,0.0,0.0,0.0,1.7199,1.7157,1.7073,1.7157,1.7115,1.7002,0.0,0.0,0.0,0.0,0.0,1.5518,1.5261,1.5121,1.5095,1.5412,0.0,0.0,0.0,1.577,1.5971,1.501,1.4729,1.4914,1.5842,1.7077,1.8257,1.9168,1.952,1.9862,2.0586,2.1177,2.198,2.2956,2.4019,2.4814,2.5007,2.5573,2.5875,2.5586,2.5548,2.5335,2.477,2.4707,2.4607,2.4381,2.4356,2.4494,2.4795,2.482,2.4695,2.4381,2.4356,2.4469,2.4695,2.4481,2.4883,2.5963,2.5724,2.5887,2.6533,2.6703,2.7268,2.8109,2.836,2.9026,2.9934,2.9869,2.9869,2.9934,2.9934,2.9869,2.9792,2.9856,2.9869,2.9792,2.9792,2.9792,2.9792,0.0,0.0,0.0,0.0,0.0,0.0,0.0,0.0,0.0,0.0,0.0,0.0,0.0,0.0,0.0,0.0,1.8563,1.8408,1.9747,1.9869,1.9258,1.7894,1.7828,1.8212,1.9058,0.0,0.0,0.0,0.0,0.0,1.7199,1.7199,1.7199,0.0,1.7199,1.7199,0.0,0.0,0.0,1.7002,1.7086,1.7002,0.0,0.0,0.0,0.0,0.0,0.0,1.5711,1.5593,1.5515,1.5539,1.5998,1.603,0.0,0.0,0.0,1.6163,1.5412,1.496,1.4708,1.4904,1.6067,1.7395,1.8238,1.8475,1.8775,1.9572,2.0371,2.1281,2.2503,2.3884,2.4788,2.4542,2.5003,2.5259,2.487,2.482,2.4619,2.4067,2.4004,2.3941,2.3791,2.3778,2.3891,2.4155,2.418,2.4004,2.359,2.3565,2.364,2.3778,2.3778,2.423,2.5184,2.546,2.5812,2.6239,2.6458,2.703,2.8109,2.8109,2.8725,2.9792,2.9792,2.9792,2.9792,2.9792,2.9792,2.9792,2.9792,2.9792,2.9792,2.9792,2.9792,2.9792,0.0,0.0,0.0,0.0,0.0,0.0,0.0,0.0,0.0,0.0,0.0,0.0,0.0,1.9006,2.001,1.9726,1.9603,1.9747,2.0235,2.027,2.0045,1.9603,1.9566,0.0,1.7352,0.0,0.0,0.0,0.0,0.0,1.7199,1.7199,1.7199,1.7199,1.7199,1.7199,1.7199,0.0,0.0,0.0,0.0,1.6846,0.0,0.0,0.0,0.0,0.0,0.0,0.0,1.6629,1.6544,1.6434,1.6471,1.6471,1.6471,0.0,0.0,0.0,1.5635,1.5357,1.4845,1.3931,1.4768,1.5945,1.6425,1.685,1.7224,1.7709,1.8701,1.9775,2.1019,2.2568,2.3694,2.3634,2.4353,2.4858,2.482,2.482,2.4619,2.4067,2.4004,2.3791,2.3226,2.3175,2.2975,2.2485,2.2447,2.2435,2.2397,2.2397,2.2636,2.3103,2.3175,2.3477,2.4079,2.5084,2.5611,2.5649,2.6201,2.703,2.8109,2.8109,2.8725,2.9792,2.9792,2.9792,2.9792,2.9792,2.9792,2.9792,2.9792,2.9792,2.9792,2.9792,2.9792,2.9792,0.0,0.0,0.0,0.0,0.0,0.0,0.0,0.0,0.0,0.0,0.0,0.0,0.0,1.8817,1.994,2.008,2.0096,2.0045,1.9904,1.9904,1.9869,1.9726,1.969,1.9406,1.8831,1.833,0.0,0.0,0.0,1.7199,1.7199,1.7199,1.7199,1.7199,1.7199,1.7199,1.7199,1.7199,0.0,0.0,0.0,0.0,0.0,0.0,0.0,0.0,0.0,1.6803,1.6876,1.6718,1.6748,1.6791,0.0,1.6633,1.662,1.6522,1.612,1.5668,1.5712,1.5412,1.4971,1.4398,1.4281,1.4597,1.5558,1.6208,1.6847,1.767,1.8751,1.9796,2.0558,2.1735,2.2754,2.3206,2.3542,2.3615,2.3263,2.3213,2.3012,2.2447,2.2698,2.2836,2.2623,2.2924,2.2912,2.2347,2.2309,2.2309,2.2309,2.2309,2.2573,2.3053,2.3078,2.3414,2.3991,2.5059,2.5598,2.5598,2.6189,2.6854,2.7595,2.7946,2.8524,2.9252,2.9628,2.9792,2.9792,2.9792,2.9792,2.9792,2.9792,2.9792,2.9792,2.9792,2.9792,2.9792,0.0,0.0,0.0,0.0,0.0,0.0,0.0,0.0,0.0,0.0,0.0,0.0,0.0,0.0,1.9207,2.0045,2.008,1.9975,1.9726,1.969,1.9457,1.8869,1.8869,1.8869,1.8869,0.0,0.0,0.0,0.0,0.0,0.0,1.7199,1.7199,1.7199,1.7199,1.7199,0.0,0.0,0.0,1.7199,0.0,0.0,1.6633,0.0,0.0,1.6633,1.6675,1.6761,1.682,1.6663,1.662,1.6595,0.0,0.0,1.662,1.6522,1.6207,1.5901,1.602,1.5812,1.5457,1.504,1.4617,1.4475,1.494,1.5636,1.6325,1.6819,1.7978,1.909,1.9617,2.0246,2.1125,2.2343,2.2585,2.2447,2.2083,2.2033,2.1895,2.1531,2.1807,2.2033,2.2033,2.2372,2.2347,2.1794,2.1757,2.1845,2.202,2.2033,2.2372,2.3053,2.3078,2.3314,2.3703,2.4795,2.5335,2.5347,2.6101,2.6854,2.757,2.7946,2.8511,2.9239,2.9628,2.9792,2.9792,2.9792,2.9792,2.9792,2.9792,2.9792,2.9792,2.9792,2.9792,2.9792,0.0,0.0,0.0,0.0,0.0,0.0,0.0,0.0,0.0,0.0,0.0,0.0,0.0,0.0,0.0,1.9479,1.969,1.969,1.969,1.9639,1.8907,1.7282,1.7199,1.7199,1.7199,0.0,0.0,0.0,0.0,0.0,0.0,0.0,1.7199,1.7199,1.7199,1.7199,1.7199,0.0,1.7199,1.7157,1.7044,1.6778,1.6522,1.6633,1.662,1.6522,1.6633,1.662,1.6522,1.6522,1.6194,1.592,0.0,0.0,0.0,0.0,1.6522,1.6522,0.0,0.0,0.0,1.5768,1.5712,1.5567,1.464,1.5148,1.5618,1.5158,1.6221,1.7471,1.7998,1.8142,1.8907,2.1041,2.1418,2.1443,2.1443,2.1443,2.143,2.1418,2.143,2.1443,2.1455,2.1481,2.1255,2.0756,2.0718,2.0957,2.1443,2.1493,2.202,2.304,2.3078,2.3078,2.3078,2.4255,2.482,2.4833,2.5937,2.703,2.8084,2.8097,2.8712,2.9767,2.9779,2.9792,2.9792,2.9792,2.9792,2.9792,2.9792,2.9792,2.9792,2.9792,2.9792,2.9792,0.0,0.0,0.0,0.0,0.0,0.0,0.0,0.0,0.0,0.0,0.0,0.0,0.0,0.0,0.0,1.7854,1.8983,1.969,1.969,1.8549,1.7666,1.724,1.7199,1.7199,1.7199,0.0,0.0,0.0,0.0,0.0,0.0,0.0,0.0,0.0,1.7199,1.7199,1.7199,1.7199,1.6989,1.6693,1.6791,1.6791,1.6705,1.662,1.6522,1.6522,1.6522,1.6577,1.6633,1.6522,1.6552,1.6607,1.662,0.0,0.0,0.0,0.0,1.6522,1.6522,0.0,0.0,0.0,0.0,0.0,1.5051,1.512,1.5453,1.6033,1.6503,1.7073,1.8017,1.8209,1.8405,1.9007,1.9761,2.0263,2.0263,2.0263,2.0125,1.9748,2.0037,2.0426,2.0853,2.1255,2.1255,2.0756,2.0718,2.0781,2.0891,2.1656,2.241,2.3053,2.3078,2.3078,2.3078,2.4255,2.482,2.4833,2.5937,2.6829,2.7519,2.7921,2.8499,2.9189,2.9616,2.9792,2.9792,2.9792,2.9792,2.9792,2.9792,2.9792,2.9792,2.9792,2.9792,2.9792,0.0,0.0,0.0,0.0,0.0,0.0,0.0,0.0,0.0,0.0,0.0,0.0,0.0,0.0,0.0,1.7199,1.8094,1.8679,1.8679,1.7747,1.7199,1.7199,1.7199,1.7199,1.7199,0.0,0.0,0.0,0.0,0.0,0.0,0.0,0.0,0.0,0.0,0.0,0.0,1.6905,1.6863,1.6778,1.6705,1.6436,1.6088,1.625,1.612,1.5901,1.5988,1.6267,1.6559,1.6061,1.6163,1.638,1.6132,0.0,0.0,0.0,0.0,0.0,1.6522,1.6522,1.6423,1.6151,0.0,0.0,1.549,1.5546,1.5808,1.6185,1.6438,1.6774,1.7393,1.7501,1.7576,1.7827,1.8392,1.8869,1.9108,1.9133,1.9108,1.8983,1.9296,1.9698,2.025,2.0602,2.0652,2.0326,2.03,2.0401,2.0706,2.1707,2.246,2.2786,2.2952,2.3078,2.3078,2.4029,2.4594,2.4833,2.5686,2.6515,2.7306,2.7858,2.8285,2.8637,2.944,2.9654,2.9453,2.9691,2.9792,2.9792,2.9792,2.9792,2.9792,2.9792,2.9792,2.9792,0.0,0.0,0.0,0.0,0.0,0.0,0.0,0.0,0.0,0.0,0.0,0.0,0.0,0.0,0.0,0.0,1.7199,1.7199,1.7199,1.7199,1.7199,1.7199,1.7199,1.7199,1.7199,0.0,0.0,0.0,0.0,0.0,0.0,0.0,0.0,0.0,0.0,0.0,0.0,1.6522,1.6723,1.7073,1.6693,1.5988,1.5322,1.5856,1.5724,1.5277,1.54,1.5909,1.638,1.544,1.5367,1.5668,1.5232,1.568,0.0,0.0,1.648,0.0,0.0,0.0,0.0,1.6622,1.666,0.0,1.6001,1.62,1.6411,1.5988,1.6151,1.6423,1.6479,1.6522,1.6685,1.72,1.7287,1.7476,1.8028,1.8116,1.8292,1.8794,1.8795,1.9045,1.9572,1.9623,1.9648,1.971,1.9773,2.0049,2.0693,2.1594,2.2184,2.2309,2.2786,2.3015,2.3078,2.3703,2.428,2.4833,2.5347,2.6189,2.7306,2.7795,2.8047,2.816,2.9164,2.9352,2.8976,2.9478,2.9729,2.9792,2.9792,2.9792,2.9792,2.9792,2.9792,2.9792,0.0,0.0,0.0,0.0,0.0,0.0,0.0,0.0,0.0,0.0,0.0,0.0,0.0,0.0,0.0,0.0,0.0,1.7199,1.7199,1.7199,1.7199,1.7199,1.7199,1.7199,1.7199,1.7199,0.0,0.0,0.0,0.0,0.0,0.0,0.0,0.0,0.0,0.0,0.0,1.6522,1.6552,1.665,1.6522,1.6392,1.625,1.6337,1.6337,1.6207,1.625,1.6137,1.5888,1.5312,1.5153,1.5232,1.5108,1.5244,1.5449,1.5835,1.6253,0.0,0.0,0.0,0.0,1.7325,1.7551,0.0,1.6592,1.6495,1.6544,1.638,1.6151,1.6064,1.6423,1.6522,1.6559,1.6672,1.6685,1.6886,1.7463,1.7551,1.7576,1.7689,1.7702,1.7915,1.8468,1.8518,1.8694,1.9096,1.9572,2.0049,2.0693,2.092,2.1393,2.2284,2.2422,2.2686,2.3125,2.3703,2.428,2.4833,2.5347,2.6189,2.7281,2.7394,2.7682,2.8109,2.8348,2.8624,2.8938,2.9051,2.9365,2.9792,2.9792,2.9792,2.9792,2.9792,2.9792,2.9792,0.0,0.0,0.0,0.0,0.0,0.0,0.0,0.0,0.0,0.0,0.0,0.0,0.0,0.0,0.0,0.0,0.0,0.0,0.0,0.0,1.7199,1.7199,1.7199,1.7199,1.7199,1.7199,1.7199,0.0,0.0,0.0,0.0,0.0,0.0,0.0,0.0,0.0,0.0,1.6522,1.6349,1.6076,1.638,1.6107,1.5579,1.5724,1.549,1.5062,1.5062,1.4892,1.4743,1.5058,1.5101,1.5009,1.4821,1.5085,1.5521,1.5749,1.5997,1.6362,1.7087,1.7533,1.7772,1.7806,1.779,0.0,0.0,1.6747,1.6613,1.6892,1.6536,1.6324,1.6854,1.6948,1.6861,1.6559,1.676,1.6948,1.6948,1.6948,1.7061,1.735,1.7388,1.7601,1.8154,1.8204,1.8317,1.8593,1.9108,1.9547,1.9836,2.0363,2.1041,2.1882,2.2171,2.2573,2.3065,2.3427,2.3853,2.4418,2.4958,2.5636,2.6465,2.703,2.7281,2.7318,2.7871,2.826,2.8536,2.8812,2.9277,2.9792,2.9792,2.9792,2.9792,2.9792,2.9792,2.9792,1.7199,0.0,0.0,0.0,0.0,0.0,0.0,0.0,0.0,0.0,0.0,0.0,0.0,0.0,0.0,0.0,0.0,0.0,0.0,0.0,1.7199,1.7199,1.7199,1.7199,1.7199,1.7199,1.7199,0.0,0.0,0.0,0.0,0.0,0.0,0.0,0.0,0.0,0.0,1.625,1.5944,1.5635,1.6076,1.5623,1.472,1.5006,1.4593,1.3894,1.381,1.3752,1.3873,1.4736,1.4936,1.4833,1.4601,1.5052,1.5654,1.574,1.5849,1.6184,1.7187,1.7428,1.7579,1.8099,1.7847,1.7464,0.0,0.0,0.0,1.7137,1.6848,1.666,1.7137,1.7212,1.7061,1.6597,1.6999,1.7187,1.6597,1.6609,1.6861,1.7325,1.7287,1.7438,1.799,1.8053,1.8053,1.8053,1.8656,1.8983,1.8983,1.9962,2.0803,2.1468,2.192,2.2472,2.3065,2.3078,2.3427,2.4004,2.4556,2.5096,2.5636,2.6653,2.6879,2.6584,2.7406,2.7908,2.8134,2.8586,2.9176,2.9792,2.9792,2.9792,2.9792,2.9792,2.9792,2.9792,1.7199,1.7199,0.0,0.0,0.0,0.0,0.0,0.0,0.0,0.0,0.0,0.0,0.0,0.0,0.0,0.0,0.0,0.0,1.7199,0.0,0.0,1.7199,1.7199,1.7199,1.7199,1.7199,1.7199,1.7199,0.0,0.0,0.0,0.0,0.0,0.0,1.5635,0.0,1.6423,1.5299,1.513,1.5591,1.5367,1.5153,1.5062,1.5108,1.5017,1.488,1.4466,1.4326,1.4309,1.4395,1.4403,1.4466,1.4831,1.5028,1.5154,1.5572,1.6053,1.666,1.7729,1.8028,1.8031,1.8141,1.8105,1.7775,1.6816,0.0,1.7162,1.671,0.0,1.6534,1.6609,0.0,0.0,1.6522,1.6999,1.7187,1.6597,1.6961,1.73,1.7375,1.6936,1.6848,1.7413,1.7476,1.7476,1.7476,1.8442,1.8983,1.8983,1.9572,2.0388,2.1455,2.1543,2.2083,2.3065,2.3078,2.3427,2.4004,2.4556,2.5096,2.5624,2.6264,2.6584,2.6533,2.6659,2.7205,2.8109,2.8172,2.8825,2.9792,2.9792,2.9792,2.9792,2.9792,2.9792,2.9792,1.7199,1.7199,0.0,0.0,0.0,0.0,0.0,0.0,0.0,0.0,0.0,0.0,0.0,0.0,0.0,0.0,0.0,1.8636,1.729,0.0,0.0,1.7199,1.7199,1.7199,1.7199,1.7199,1.7199,1.7199,1.6947,0.0,0.0,0.0,0.0,0.0,1.58,1.5888,1.6436,1.5656,1.5164,1.504,1.5096,1.4731,1.4269,1.4605,1.4501,1.4255,1.4307,1.4355,1.438,0.0,1.4883,0.0,0.0,1.5183,1.5432,1.5628,1.5844,1.6255,1.7302,1.7589,1.7639,0.0,0.0,0.0,1.7102,0.0,1.6911,1.6999,0.0,0.0,0.0,0.0,0.0,0.0,1.6999,1.7187,1.6597,1.6722,1.6886,1.6886,1.6961,1.7112,1.7363,1.7074,1.6886,1.6886,1.7915,1.8555,1.8555,1.9346,2.0175,2.0991,2.133,2.187,2.2648,2.2915,2.3427,2.4004,2.4556,2.5096,2.5611,2.6189,2.6533,2.6533,2.6533,2.6904,2.7657,2.7971,2.8499,2.9149,2.9474,2.9599,2.9599,2.9599,2.9521,2.9378,1.7199,0.0,0.0,0.0,0.0,0.0,0.0,0.0,0.0,0.0,0.0,0.0,1.7238,1.7761,1.814,1.814,1.9153,1.9035,1.7303,1.7199,1.7199,1.7199,1.7199,1.7199,1.7199,1.7073,1.7031,1.7031,0.0,0.0,0.0,0.0,0.0,0.0,0.0,1.5932,1.6436,1.5721,1.5315,1.5129,1.4956,1.4388,1.3658,1.4046,1.4026,1.3848,1.419,1.4386,1.4562,1.5028,1.5411,0.0,1.5442,1.5608,1.5877,1.5877,1.5877,1.6106,1.6948,0.0,0.0,0.0,0.0,0.0,0.0,0.0,0.0,0.0,1.7287,0.0,0.0,0.0,0.0,0.0,0.0,1.735,1.6622,1.666,1.681,1.6961,1.735,1.7551,1.74,1.6861,1.6584,1.6735,1.7652,1.8204,1.8204,1.9221,2.0075,2.0706,2.1204,2.1757,2.2297,2.2862,2.3427,2.4004,2.4556,2.5096,2.5611,2.6189,2.6533,2.6533,2.6533,2.6854,2.7544,2.7873,2.8363,2.8872,2.9192,2.9263,2.9263,2.9275,2.9197,2.9131,1.7199,1.7199,0.0,0.0,0.0,0.0,0.0,0.0,0.0,0.0,1.9551,1.8427,1.7316,1.9245,2.0594,2.0594,1.8558,1.7277,1.7199,1.7199,1.7199,1.7199,1.7199,1.7199,1.7199,1.6765,1.6522,1.6522,0.0,0.0,0.0,0.0,0.0,0.0,1.5546,1.5635,1.6417,1.4938,1.5148,1.6313,1.4881,1.4014,1.3621,1.3621,1.389,1.4283,1.4304,0.0,0.0,1.5515,1.568,0.0,0.0,0.0,0.0,0.0,0.0,0.0,0.0,0.0,0.0,1.7826,0.0,0.0,0.0,0.0,1.8643,0.0,0.0,0.0,0.0,0.0,0.0,0.0,0.0,0.0,0.0,1.6999,1.7551,1.8091,1.8166,1.7965,1.7438,1.6861,1.6748,1.7313,1.789,1.8204,1.8204,1.9221,2.0075,2.0706,2.1204,2.1757,2.2297,2.2862,2.3427,2.4004,2.4556,2.5096,2.5611,2.6189,2.6533,2.6533,2.6533,2.708,2.8084,2.7889,2.845,2.9394,2.9197,2.8961,2.8882,2.9052,2.9131,2.9131,0.0,0.0,0.0,1.7199,1.7199,1.7369,1.7904,1.831,1.9191,2.094,2.103,2.0759,2.0373,2.0549,2.1108,2.2178,2.0233,1.8935,1.8935,1.9283,1.9533,1.9533,1.7746,1.6892,1.7199,1.6723,1.6522,1.6522,0.0,0.0,0.0,0.0,0.0,0.0,0.0,1.5567,1.5775,1.489,1.4909,1.5415,1.4715,1.449,1.449,1.419,1.4169,1.4386,1.4997,1.5328,0.0,1.5991,1.6146,1.6177,1.6332,1.6384,1.6384,1.6384,1.6384,1.6431,0.0,0.0,1.6486,1.6902,0.0,0.0,0.0,0.0,0.0,0.0,0.0,0.0,0.0,0.0,0.0,0.0,0.0,0.0,0.0,1.7024,1.7313,1.7112,1.7087,1.7162,1.7363,1.6861,1.6597,1.6798,1.7677,1.8204,1.8204,1.9221,1.9886,2.0087,2.1004,2.1581,2.1769,2.2673,2.3427,2.4004,2.4556,2.5096,2.5611,2.6189,2.6533,2.6465,2.6339,2.6681,2.7391,2.7533,2.7938,2.85,2.8423,2.8499,2.8657,2.8803,2.8816,2.8657,1.7199,1.7199,1.7199,1.7199,1.7539,1.7944,1.8323,1.8969,1.9863,2.1158,2.1589,2.1857,2.2031,2.1583,2.1786,2.2987,2.182,2.0652,1.9849,2.0169,2.0485,2.0712,1.8741,1.7827,0.0,1.7827,0.0,0.0,0.0,1.7287,0.0,0.0,0.0,0.0,0.0,1.5384,1.5322,1.5017,1.5137,1.5452,1.5101,1.4966,1.4987,1.4852,1.48,1.4883,0.0,1.5794,1.598,1.628,1.6384,1.6384,1.6384,1.6384,1.6384,1.6384,1.6384,1.6384,1.6384,1.6384,0.0,1.6634,1.697,0.0,1.7272,0.0,1.9029,0.0,0.0,0.0,0.0,0.0,0.0,0.0,0.0,0.0,0.0,1.6835,1.6936,1.6559,1.6697,1.6974,1.735,1.6861,1.6609,1.681,1.7501,1.8003,1.8191,1.9045,1.961,1.9798,2.0715,2.1292,2.1493,2.2385,2.3226,2.4004,2.4556,2.5096,2.5624,2.6133,2.6396,2.6396,2.6201,2.6371,2.6915,2.7226,2.7602,2.8013,2.8142,2.8276,2.8486,2.844,2.8421,2.851,1.7199,1.7199,1.7238,1.7356,1.8218,1.8806,1.8493,1.9982,2.1184,2.1236,2.1531,2.1922,2.2388,2.2337,2.2475,2.3015,2.3005,2.2118,2.0112,1.9913,2.0016,2.0498,2.0067,1.9798,1.9798,0.0,0.0,0.0,0.0,0.0,0.0,0.0,0.0,0.0,1.5529,1.5154,1.5165,1.5339,1.5784,1.6343,1.5898,1.5463,1.5121,1.5556,1.5722,1.5722,1.5722,1.6001,1.6384,1.6384,1.6384,1.6384,1.6384,1.6384,1.6384,1.6384,1.6384,1.6384,1.6384,1.6384,1.6534,1.7045,1.7202,0.0,0.0,0.0,1.9316,0.0,0.0,0.0,0.0,0.0,0.0,0.0,0.0,0.0,0.0,1.6597,1.6609,1.6635,1.7087,1.742,1.7338,1.6835,1.6748,1.73,1.7388,1.7652,1.8179,1.8744,1.9296,1.9786,2.0388,2.0953,2.1481,2.2071,2.2887,2.3966,2.4544,2.5084,2.5573,2.5996,2.6213,2.6131,2.598,2.623,2.6723,2.7078,2.7539,2.8086,2.8361,2.8474,2.8414,2.7933,2.8077,2.851,1.7199,1.7199,1.7748,1.952,1.929,1.9028,1.9381,1.9978,2.0861,2.2137,2.2167,2.2592,2.4017,2.285,2.1994,2.2125,2.1815,2.1774,2.2193,2.1115,1.9579,1.7611,1.9004,1.9798,1.9798,1.8147,1.8093,1.9798,0.0,0.0,1.897,0.0,0.0,0.0,0.0,1.585,1.5521,1.5227,1.5597,1.6363,1.6249,1.6125,1.6042,0.0,1.6208,1.6208,1.6208,1.628,1.6384,1.6384,1.6384,1.6384,1.6384,1.6384,1.6384,1.6384,1.6384,1.6384,1.6384,1.6384,1.6431,1.6591,1.6899,1.7224,0.0,0.0,0.0,0.0,0.0,0.0,0.0,0.0,0.0,0.0,0.0,0.0,0.0,1.7857,1.8008,1.8329,1.7869,1.7333,1.6785,1.6609,1.6572,1.6722,1.7526,1.8053,1.8191,1.9095,1.966,1.9798,2.0765,2.1343,2.1493,2.2447,2.3015,2.3364,2.4153,2.4676,2.4838,2.5617,2.598,2.598,2.5758,2.6212,2.709,2.7013,2.7541,2.8349,2.8017,2.7933,2.7957,2.821,2.839,2.851,1.7199,1.8022,1.9166,2.0476,2.0162,1.9736,1.982,2.0122,2.0806,2.2096,2.2177,2.2575,2.3897,2.2586,2.1789,2.2104,2.1312,2.1123,2.1877,2.0748,1.9285,1.7676,1.8069,1.8309,1.8309,1.7078,0.0,1.9798,0.0,0.0,1.9798,0.0,0.0,0.0,1.6384,1.6239,1.597,1.5711,1.5908,1.6384,1.6384,1.6498,0.0,1.6663,1.6798,1.6974,1.6974,1.6715,1.6384,1.6384,1.6508,1.6663,1.6663,1.6808,1.6974,1.6974,1.6974,1.6974,1.6974,1.6974,1.6974,1.6974,1.7179,1.7392,1.7392,1.8112,1.8574,0.0,1.8554,1.9215,0.0,0.0,0.0,0.0,0.0,0.0,0.0,1.8251,1.8412,1.8631,1.8163,1.7604,1.6948,1.666,1.6522,1.6522,1.7564,1.8204,1.8204,1.9221,1.9798,1.9798,2.1129,2.1732,2.1493,2.2836,2.3328,2.303,2.4014,2.4471,2.4455,2.5338,2.5758,2.5758,2.5535,2.5924,2.6723,2.6827,2.7416,2.8162,2.8089,2.8065,2.8102,2.8402,2.851,2.851,1.7656,1.9525,2.1157,2.1157,2.1157,2.0936,2.0228,2.0446,2.0851,2.1403,2.1792,2.2228,2.2862,2.2094,2.1779,2.2434,2.1197,2.0402,2.0369,1.9571,1.9075,1.9075,1.7347,1.6384,1.6384,1.6384,1.7346,0.0,0.0,0.0,0.0,0.0,0.0,0.0,1.6384,1.6384,1.6384,1.6374,1.6374,1.6384,1.6446,1.6636,1.6927,1.7049,1.7327,1.7606,1.7606,1.7131,1.6477,1.6539,1.6777,1.6997,1.7049,1.7348,1.7668,1.7668,1.7668,1.7668,1.7668,1.7668,1.7668,1.7668,1.7668,1.7668,1.7668,1.8139,1.8194,1.7262,1.7984,1.8623,1.8288,0.0,0.0,0.0,0.0,0.0,0.0,1.8417,1.8442,1.8518,1.8405,0.0,1.7739,1.7049,1.6597,1.6522,1.7564,1.8204,1.8204,0.0,1.9798,1.9798,2.1368,2.2046,2.1707,2.3226,2.3667,2.3145,2.4099,2.4415,2.4271,2.5188,2.5535,2.5535,2.5382,2.5648,2.6238,2.6731,2.7284,2.7873,2.833,2.851,2.851,2.851,2.851,2.851,2.0096,2.1917,2.3511,2.3511,2.3511,2.3032,2.1556,2.0873,2.0505,2.039,2.1396,2.2254,2.2648,2.1956,2.1712,2.232,2.1122,2.0289,2.0048,1.9489,1.9075,1.9075,1.7347,1.6384,1.6384,1.6384,1.6602,0.0,0.0,0.0,0.0,0.0,0.0,1.6384,1.6384,1.6384,1.6384,1.6134,1.6124,1.6212,1.6581,1.6666,1.6658,1.7216,1.7348,1.7294,1.7294,1.7134,1.6925,1.7367,1.7234,1.7049,1.743,1.7606,1.7668,1.7668,1.7668,1.7668,1.7668,1.7668,1.7668,1.7668,1.7668,1.7668,1.7668,1.7791,1.7822,1.7626,1.8134,1.8618,1.8646,0.0,0.0,0.0,0.0,0.0,0.0,1.9585,1.9825,2.024,1.9535,1.9106,1.9346,1.8078,1.7036,1.6559,1.7564,1.8204,1.8204,0.0,1.9798,0.0,2.0991,2.202,0.0,0.0,2.3915,2.43,2.4578,2.4505,2.4049,2.4969,2.5382,2.5382,2.5312,2.5877,2.6803,2.6899,2.75,2.8378,2.8474,2.851,2.851,2.851,2.851,2.851,2.1956,2.3103,2.3986,2.3604,2.3503,2.3099,2.1909,2.1382,2.0971,2.0364,2.068,2.1178,2.1843,2.1739,2.1744,2.2041,2.1272,2.0617,2.0245,1.9799,1.9406,1.9085,1.8237,1.7336,1.6394,1.6384,1.6384,1.6384,0.0,0.0,0.0,0.0,0.0,1.6384,1.6384,1.6516,1.6828,1.6595,1.6556,1.6668,1.6941,1.7112,1.7282,1.7557,1.7779,1.7851,1.7851,1.7698,1.7439,1.7429,1.7491,1.7584,1.781,1.8173,1.8423,1.8423,1.8423,1.8423,1.8423,1.8423,1.8423,1.8423,1.8423,1.8423,1.8423,1.8423,1.8361,1.8123,1.8302,1.8639,1.9111,1.9737,0.0,0.0,0.0,0.0,0.0,0.0,1.9963,2.0188,1.9799,1.9472,1.9397,1.8694,1.8003,1.7438,1.8417,1.892,1.8643,1.966,2.025,0.0,0.0,0.0,2.2593,0.0,2.423,2.3894,2.4066,2.4032,2.3682,2.4012,2.4348,2.4707,2.4707,2.5384,2.655,2.7115,2.7801,2.851,2.851,2.851,2.851,2.851,2.851,2.851,2.337,2.349,2.3487,2.3185,2.2914,2.2562,2.2146,2.1889,2.1538,2.0814,2.05,2.0506,2.0944,2.1503,2.1807,2.1807,2.1476,2.1104,2.0741,2.0379,1.9934,1.9385,1.9178,1.8402,1.6984,1.6953,1.6953,0.0,0.0,0.0,0.0,0.0,0.0,1.6384,1.6384,1.6532,0.0,0.0,1.7211,1.7259,1.7289,1.752,1.7785,1.7941,1.8181,1.8414,1.8414,1.8195,1.7855,1.7506,1.7674,1.809,1.8182,1.8522,1.9008,1.9008,1.9075,1.9075,1.9075,1.9075,1.9075,1.9075,1.9075,1.9075,1.9075,1.9075,1.8971,1.8599,1.8572,1.8859,1.9746,2.0241,0.0,0.0,0.0,0.0,0.0,0.0,1.9849,1.9974,1.9874,1.9635,1.9233,1.9196,1.9007,1.8581,1.9221,1.9459,1.8995,2.0075,2.0718,2.0718,0.0,2.2698,2.2611,0.0,2.4408,2.3472,2.3651,2.3477,2.3126,2.3032,2.339,2.4108,2.4108,2.4926,2.6346,2.732,2.8041,2.851,2.851,2.851,2.851,2.851,2.851,2.851,2.4169,2.3108,2.2285,2.3296,2.2604,2.2135,2.28,2.2255,2.1776,2.1683,2.1668,2.1345,2.0582,2.1271,2.1807,2.1807,2.1766,2.1725,2.1683,2.1124,2.0648,2.0317,1.951,1.8992,1.8816,1.8816,1.8816,0.0,0.0,1.6384,0.0,0.0,0.0,0.0,0.0,0.0,0.0,1.7252,1.7757,1.7506,1.7571,1.752,1.7488,1.8071,1.8172,1.8076,1.8076,1.8056,1.8017,1.7968,1.7932,1.7966,1.8368,1.8519,1.8617,1.8741,1.8808,1.8875,1.9065,1.9075,1.9075,1.9075,1.9075,1.9075,1.9075,1.9075,1.9054,1.9013,1.9125,1.9569,2.0717,2.0734,2.0892,0.0,0.0,0.0,0.0,0.0,1.9999,2.0567,2.0125,1.9786,1.9736,1.9736,1.971,1.966,1.9309,1.9033,1.8983,2.0075,2.0718,2.0718,2.1681,2.2859,2.4236,2.4186,2.4174,2.4377,2.416,2.3451,2.233,2.2812,2.339,2.4108,2.4108,2.5137,2.6899,2.7488,2.8041,2.851,2.851,2.851,2.851,2.851,2.851,2.851,2.346,2.3066,2.2684,2.2853,2.2505,2.2255,2.2317,2.1998,2.1807,2.1807,2.1807,2.1662,2.129,2.159,2.1807,2.1807,2.1807,2.1807,2.1807,2.1569,2.0897,1.9665,1.9261,1.9075,1.9075,1.9075,1.9075,0.0,0.0,0.0,0.0,0.0,0.0,0.0,0.0,1.7238,1.7021,1.7715,1.7948,1.7799,1.7858,1.7821,1.7783,1.8007,1.8076,1.8008,1.8008,1.8008,1.8008,1.8008,1.8026,1.8185,1.8355,1.8414,1.8549,1.8617,1.8617,1.8674,1.8875,1.8942,1.8942,1.9075,1.9075,1.9075,1.9075,1.9075,1.9075,1.9075,1.9117,1.9555,2.0835,2.0989,2.1175,2.2147,0.0,0.0,0.0,0.0,0.0,2.0693,2.0162,1.9798,1.9798,1.9798,1.9949,2.0288,1.9811,1.9497,1.9497,2.012,2.0694,2.1154,0.0,2.2813,2.386,2.4171,2.4148,2.3849,2.3548,2.3075,2.2292,2.202,2.2791,2.428,2.4824,2.5931,2.7428,2.7633,2.8041,2.851,2.851,2.851,2.851,2.851,2.851,2.851,2.331,2.3092,2.2735,2.2661,2.2735,2.2561,2.1928,2.1807,2.1807,2.1807,2.1807,2.1807,2.1807,2.1807,2.1807,2.1807,2.1807,2.1807,2.1807,2.1807,2.1228,1.9934,1.9872,1.9624,1.9085,1.9075,1.9075,1.9075,1.9075,0.0,0.0,0.0,0.0,0.0,1.8212,1.8008,1.8008,1.8008,1.8008,1.8008,1.8008,1.7872,1.7657,1.7657,1.7657,1.7657,1.7657,1.7794,1.8008,1.8008,1.8076,1.8202,1.8202,1.8279,1.8347,1.8414,1.8414,1.8472,1.8674,1.8674,1.8751,1.8875,1.8942,1.9008,1.9008,1.9075,1.9075,1.9075,1.9075,1.9462,2.0613,2.0996,2.1323,2.2124,0.0,0.0,0.0,2.1217,0.0,2.0945,2.025,1.9798,1.9798,1.9798,2.0037,2.0668,2.0235,2.0072,2.0182,2.0449,2.0996,0.0,0.0,0.0,2.3879,2.4292,2.4107,2.3259,2.3231,2.2819,2.2007,2.183,2.2683,2.441,2.5283,2.6368,2.7717,2.7717,2.8041,2.851,2.851,2.851,2.851,2.851,2.8431,2.8351,2.4509,2.306,2.2108,2.3018,2.3163,2.2853,2.1942,2.1807,2.1807,2.1807,2.1807,2.1807,2.1807,2.1807,2.1807,2.1807,2.1807,2.1807,2.1807,2.1807,2.1797,2.1776,2.1776,2.0928,1.9106,1.9075,1.9075,1.9075,0.0,0.0,1.8482,0.0,1.8008,1.8008,1.8008,1.8008,1.8008,1.8008,1.8008,1.8008,1.8008,1.7579,1.6932,1.6932,1.6932,1.6932,1.6932,1.7364,1.8008,1.8008,1.8008,1.8008,1.8008,1.8008,1.8076,1.8269,1.8269,1.8337,1.8482,1.8482,1.8482,1.8482,1.8684,1.8808,1.8808,1.8942,1.9075,1.9075,1.9075,1.933,1.9977,2.0677,2.1313,2.1978,0.0,0.0,0.0,2.1707,0.0,2.1418,2.0489,1.9798,1.9798,1.9798,2.0037,2.0668,2.049,2.0593,2.1138,0.0,0.0,2.2592,2.2982,0.0,2.4779,2.4587,2.3991,2.3032,2.3416,2.2741,2.125,2.2544,2.3545,2.441,2.5283,2.6368,2.7717,2.7717,2.8041,2.851,2.851,2.851,2.851,2.851,2.8283,2.7893,2.454,2.4074,2.3764,2.4064,2.308,2.2149,2.1849,2.1807,2.1807,2.1807,2.1807,2.1807,2.1807,2.1807,2.1807,2.1807,2.1807,2.1807,2.1807,2.0638,1.9944,1.9944,1.9944,1.9665,1.9085,1.9075,1.9075,1.9075,0.0,0.0,0.0,1.8279,1.8008,1.8008,1.8008,1.8008,1.8008,1.8008,1.8008,1.794,1.6881,1.6585,1.6862,1.6298,1.6097,1.6158,1.6724,1.7079,1.7295,1.7794,1.8008,1.8008,1.8008,1.8008,1.8008,1.8076,1.8076,1.8144,1.8337,1.8337,1.8414,1.8482,1.8549,1.8617,1.8617,1.8741,1.8942,1.9075,1.9075,1.933,1.9977,2.0291,2.0794,2.1916,2.2165,0.0,2.298,0.0,2.1845,2.2033,2.1393,2.0953,2.0953,2.0953,2.1179,2.1744,2.1375,2.1181,0.0,0.0,0.0,0.0,2.3232,0.0,2.4803,2.4436,2.3815,2.3032,2.2839,2.2551,2.2119,2.2794,2.3568,2.4566,2.5382,2.6368,2.7439,2.8009,2.8366,2.851,2.851,2.851,2.8431,2.8203,2.8042,2.7881,2.454,2.454,2.454,2.454,2.3598,2.2604,2.1911,2.1807,2.1807,2.1807,2.1807,2.1807,2.1807,2.1807,2.1807,2.1807,2.1807,2.1807,2.1807,2.0089,1.9075,1.9075,1.9075,1.9075,1.9075,1.9075,0.0,1.9075,1.8808,1.8808,1.9065,1.8347,1.8008,1.8008,1.8008,1.8008,1.8008,1.8008,1.8008,1.7872,1.6306,1.6026,1.6376,1.5596,1.5463,1.5745,1.6237,1.6802,1.7364,1.7862,1.8008,1.8037,1.8193,1.8135,1.8008,1.8008,1.8008,1.8008,1.8144,1.8212,1.8212,1.8279,1.8347,1.8414,1.8482,1.8684,1.8808,1.8942,1.9075,1.9198,1.9649,1.9911,2.0484,2.1553,2.1741,2.2063,2.2944,0.0,2.2005,2.2251,2.1832,2.1493,0.0,2.1425,2.1594,2.2156,2.1952,0.0,0.0,0.0,2.2311,2.3055,2.346,2.4044,2.4814,2.4185,2.3619,2.3056,2.26,2.2559,2.2754,2.3018,2.381,2.4988,2.5568,2.6494,2.7765,2.8271,2.851,2.851,2.8351,2.8271,2.8203,2.7788,2.7545,2.729,2.454,2.454,2.4413,2.4374,2.4353,2.3774,2.2066,2.1807,2.1807,2.1807,2.1807,2.1807,2.1807,2.1807,2.1807,2.1807,2.1807,2.1807,2.1807,2.0089,1.9075,1.9075,1.9075,1.9075,1.9075,1.9075,1.9075,1.9008,1.8347,1.8347,1.9008,1.8347,1.8008,1.8008,1.8008,1.8008,1.8018,1.8135,1.8086,1.7812,1.6298,1.5718,1.5568,1.4856,1.4999,1.5647,1.5743,1.6727,1.7988,1.8086,1.8076,1.8125,1.8545,1.8389,1.8057,1.8057,1.8037,1.8008,1.8008,1.8008,1.8008,1.8008,1.8163,1.8377,1.8482,1.8637,1.8782,1.8751,1.8942,1.9065,1.9065,1.9584,2.0226,2.0933,2.0996,2.1502,2.2763,2.1994,2.1499,2.2185,0.0,0.0,2.1606,2.1425,2.1535,0.0,2.2371,0.0,0.0,0.0,2.3077,2.3766,2.356,2.3853,2.4773,2.3963,2.337,2.3053,2.2651,2.2734,2.3135,2.3135,2.4059,2.5735,2.5735,2.6741,2.8351,2.8431,2.8431,2.8351,2.7962,2.7881,2.78,2.7348,2.6857,2.6528,2.454,2.454,2.4095,2.2697,2.2449,2.2304,2.188,2.1807,2.1807,2.1807,2.1807,2.1807,2.1807,2.1807,2.1807,2.1807,2.1807,2.1807,2.1807,2.0089,1.9075,1.9075,1.9075,1.9075,1.9075,1.9075,1.8808,1.8269,1.8076,1.8076,1.8279,1.8076,1.8008,1.8008,1.8008,1.8008,1.8096,1.9404,1.8817,1.6963,1.6176,1.5601,1.5153,1.4439,1.4661,1.5503,1.6294,1.7016,1.7759,1.8653,1.8769,1.8564,1.8994,1.8838,1.8486,1.8486,1.8262,1.8008,1.8008,1.8008,1.8008,1.8008,1.8252,1.8468,1.8349,1.8596,1.8804,1.861,1.8741,1.8875,1.8875,1.9131,1.9584,2.0226,2.0355,2.0613,2.1439,2.1335,2.1377,0.0,2.1946,2.2007,2.2511,2.2404,2.2578,0.0,0.0,2.3399,2.3794,2.3819,2.3863,2.3918,2.389,2.3999,2.437,2.3615,2.3063,2.2606,2.2546,2.2734,2.3135,2.3135,2.3724,2.4829,2.5495,2.6257,2.7021,2.7788,2.7857,2.751,2.7429,2.736,2.7278,2.6857,2.6704,2.6644,2.454,2.454,2.4229,2.3236,2.2366,2.1807,2.1807,2.1807,2.1807,2.1807,2.1807,2.1807,2.1807,2.1807,2.1807,2.1807,2.1807,2.1807,2.1807,2.0876,1.9944,1.9106,1.9075,1.9075,1.9075,1.9075,1.8741,1.8008,1.8008,1.8008,1.8018,1.8408,1.7993,1.6839,1.7234,1.7868,1.8682,2.0,1.9352,1.7266,1.6514,1.5826,1.5221,1.45,1.4729,1.5487,1.6127,1.6672,1.7276,1.8377,1.8521,1.848,1.9286,1.9277,1.8975,1.917,1.8652,1.8008,1.8008,1.8008,1.8008,1.8008,1.832,1.8525,1.8242,1.8379,1.8547,1.8464,1.8539,1.8674,1.8674,1.8741,1.9065,1.977,1.9573,1.9704,2.073,2.0602,2.0666,2.1342,2.1487,2.1905,2.2623,2.2727,2.3003,2.3692,2.3544,0.0,2.3999,2.3979,2.392,2.3986,2.376,2.374,2.4002,2.3412,2.2983,2.2793,2.2793,2.2833,2.2969,2.2969,2.3396,2.4231,2.4648,2.5411,2.6362,2.6869,2.7115,2.7185,2.694,2.6857,2.6857,2.6373,2.6302,2.6324,2.454,2.454,2.4372,2.4178,2.307,2.2221,2.2221,2.1983,2.1807,2.1807,2.1807,2.1807,2.1807,2.1807,2.1807,2.1807,2.1807,2.1807,2.1807,2.1807,2.103,1.9414,1.9342,1.9342,1.9342,1.9342,1.901,1.8389,1.8389,1.833,1.8213,1.8818,1.7868,1.5584,1.6204,1.7351,1.876,1.9697,1.9095,1.751,1.6752,1.6068,1.5436,1.4766,1.5071,1.5668,1.5715,1.6316,1.7121,1.7929,1.821,1.8527,1.9638,1.9727,1.9453,1.9814,1.9102,1.8203,1.8203,1.8203,1.8203,1.8203,1.8516,1.8701,1.8213,1.8291,1.8428,1.8299,1.8347,1.8482,1.8482,1.8482,1.8674,1.9309,1.8931,1.8931,2.0085,0.0,1.9801,2.0444,2.0864,2.1431,2.2236,2.25,2.297,2.3752,2.3549,2.3629,2.4033,2.3798,2.3722,2.3958,2.3466,2.331,2.3584,2.3295,2.3047,2.3047,2.3047,2.2969,2.2715,2.2715,2.3125,2.38,2.38,2.4648,2.6102,2.6102,2.6434,2.694,2.6528,2.6456,2.6373,2.6063,2.5895,2.5895,2.454,2.454,2.4053,2.2501,2.3277,2.4115,2.4115,2.2801,2.1807,2.1807,2.1807,2.1807,2.1807,2.1807,2.1807,2.1807,2.1807,2.1807,2.1807,2.1807,2.1369,2.0404,2.0394,2.0394,2.0394,2.0394,2.0318,2.0166,2.0166,1.9795,1.9082,1.8486,1.7576,1.6467,1.5867,1.5755,1.6083,1.7139,1.6903,1.5868,1.611,1.5738,1.502,1.4867,1.5405,1.6126,1.6428,1.7296,1.842,1.8912,1.9343,1.9732,2.0322,2.0166,1.9824,1.9893,1.9521,1.9092,1.9092,1.9092,1.9092,1.9092,1.9404,1.9512,1.8721,1.8828,1.8948,1.8233,1.8212,1.8337,1.8337,1.8414,1.8549,1.8674,1.8549,1.8549,1.8808,0.0,1.9507,2.0204,2.0504,2.093,2.1672,2.1963,2.2352,2.2904,2.3273,2.3689,2.4148,2.3837,2.3731,2.375,2.3639,2.3436,2.3201,2.3105,2.2969,2.2891,2.2891,2.2706,2.2441,2.2441,2.295,2.38,2.38,2.4478,2.5579,2.5579,2.5768,2.6063,2.6063,2.5979,2.5979,2.5895,2.5895,2.5895,2.454,2.454,2.4271,2.3432,2.3163,2.307,2.307,2.2346,2.1807,2.1807,2.1807,2.1807,2.1807,2.1807,2.1807,2.1807,2.1415,2.1185,2.1185,2.1185,2.0954,2.0644,2.0566,2.0566,2.0566,2.0566,2.0566,2.0566,2.0566,1.9403,1.7162,1.6825,1.6387,1.6014,1.6246,1.6229,1.6139,1.6617,1.6542,1.6131,1.6362,1.599,1.5204,1.5204,1.5435,1.5851,1.648,1.7073,1.7757,1.8912,1.9409,1.9676,2.0343,2.043,2.0264,2.0264,1.9805,1.9287,1.9287,1.9453,1.957,1.9346,1.96,1.9756,1.9131,1.9141,1.918,1.8779,1.8576,1.8478,1.8478,1.837,1.8291,1.8518,1.836,1.8291,1.8518,1.8725,1.8984,1.9302,2.007,2.0859,2.1638,2.222,2.2892,2.348,2.3417,2.3429,2.3882,2.338,2.3193,2.3338,2.3348,2.3275,2.2969,2.2969,2.2794,2.2618,2.2618,2.2441,2.2274,2.2274,2.2441,2.2677,2.2677,2.3367,2.4553,2.4553,2.5094,2.5895,2.5895,2.5895,2.5895,2.5895,2.5895,2.5895,2.454,2.454,2.454,2.454,2.3018,2.1807,2.1807,2.1807,2.1807,2.1807,2.1807,2.1807,2.1807,2.1807,2.1721,2.1568,2.0954,2.0566,2.0566,1.9844,1.9756,2.0566,2.0566,2.0566,2.0566,2.0566,2.0167,1.9362,1.9362,1.7997,1.5431,1.5431,1.5431,1.5431,1.6304,1.6624,1.6378,1.6378,1.6378,1.6378,1.6378,1.5982,1.5431,1.5431,1.5506,1.5824,1.646,1.6944,1.7513,1.8816,1.946,1.9696,2.0401,2.0566,2.0566,2.0566,2.0098,1.9561,1.9463,1.9736,1.999,1.9668,1.9824,1.9951,1.9531,1.9434,1.9404,1.9307,1.9023,1.8789,1.8789,1.8437,1.8262,1.8584,0.0,1.8271,1.8594,1.8896,1.9082,1.9082,2.0137,2.1174,2.1788,2.2522,2.3227,2.3773,2.3401,2.3205,2.354,2.2903,2.2726,2.295,2.2969,2.2969,2.2803,2.2715,2.2618,2.2353,2.2353,2.2185,2.2008,2.2008,2.1919,2.1731,2.1909,2.2687,2.379,2.3973,2.4765,2.5895,2.5895,2.5895,2.5895,2.5895,2.5895,2.5895,2.454,2.454,2.454,2.454,2.3018,2.1807,2.1807,2.1807,2.1807,2.1807,2.1807,2.1807,2.1807,2.1807,2.1502,2.0722,2.0644,2.0566,2.0566,1.7594,1.7196,2.0479,2.0566,2.0566,2.0566,2.0566,1.9036,1.5748,1.5748,1.5665,1.5431,1.5431,1.5431,1.5431,1.5506,1.5506,1.5506,1.5506,1.5506,1.5506,1.5506,1.5431,1.5431,1.5431,1.5906,1.6617,1.6698,1.7755,1.9134,1.9222,1.9854,2.0489,2.0566,2.0566,2.0566,2.0566,2.0518,2.0381,1.9971,2.0185,2.0508,2.0478,2.0498,2.041,1.9971,1.9873,1.9756,1.9365,1.9268,1.9238,1.9238,1.8887,1.8603,1.8633,0.0,0.0,1.8633,1.9668,2.042,2.042,2.123,2.1869,2.1869,2.2281,2.2546,2.263,2.2908,2.3144,2.3173,2.2921,2.2677,2.2432,2.2706,2.2794,2.2803,2.253,2.2353,2.2097,2.2097,2.2008,2.1741,2.1741,2.1741,2.1741,2.2451,2.3125,2.3887,2.4509,2.5211,2.5895,2.5895,2.5895,2.5895,2.5895,2.5895,2.5895,2.454,2.454,2.454,2.454,2.396,2.3505,2.3505,2.3505,2.3091,2.1952,2.1807,2.1998,2.2549,2.168,2.0954,2.0644,1.8638,1.7359,1.7359,1.6154,1.5989,1.7359,1.7359,1.7359,1.7359,1.7359,1.6714,1.5431,1.5431,1.5431,1.5431,1.5431,1.5431,1.5431,1.5431,1.5431,1.5438,1.5643,1.5731,1.5745,1.5935,1.5899,1.5752,1.5935,1.6141,1.6385,1.7448,1.8266,1.8975,1.9781,2.0333,2.0566,2.0566,2.0566,2.0566,2.0566,2.0566,2.0527,2.0361,2.0439,2.0566,2.0566,2.0566,2.0518,2.0352,2.0312,2.0273,2.0117,1.9863,1.9678,1.9678,1.9326,1.9121,1.9385,0.0,1.9228,1.9756,2.0254,2.0674,2.0947,2.1748,2.2275,2.2275,2.2656,2.29,2.29,2.3047,2.3057,2.2882,2.2706,2.253,2.2441,2.2353,2.2362,2.2362,2.2274,2.2218,2.2189,2.194,2.2097,2.2483,2.2217,2.2279,2.273,2.3089,2.3634,2.4509,2.4765,2.5295,2.5895,2.5895,2.5895,2.5895,2.5895,2.5895,2.5895,2.454,2.454,2.454,2.454,2.454,2.454,2.454,2.454,2.3916,2.2422,2.218,2.2401,2.3008,2.095,1.9407,1.9002,1.6796,1.5431,1.5431,1.5431,1.5431,1.5431,1.5431,1.5431,1.5431,1.5431,1.5431,1.5431,1.5431,1.5431,1.5431,1.5431,1.5431,1.5431,1.5562,1.5621,1.5643,1.5935,1.606,1.6074,1.6287,1.6243,1.6082,1.6287,1.6411,1.665,1.8153,1.8826,1.9265,2.0432,2.0781,2.0752,2.0605,2.0566,2.0566,2.0566,2.0566,2.0596,2.0732,2.0781,2.0742,2.0596,2.0674,2.0781,2.0781,2.0879,2.0977,2.0977,2.0742,2.0537,2.0537,2.0185,1.999,2.0283,2.0088,2.0107,2.0693,2.1006,2.1289,2.1602,2.2275,2.2715,2.2715,2.2969,2.3135,2.3135,2.3057,2.2882,2.2627,2.2441,2.2264,2.2176,2.2128,2.2138,2.2008,2.2008,2.2057,2.2135,2.1869,2.2098,2.2749,2.2732,2.3032,2.3611,2.3918,2.449,2.5156,2.5179,2.5464,2.5895,2.5895,2.5895,2.5895,2.5895,2.5895,2.5895,2.454,2.454,2.454,2.454,2.454,2.454,2.4454,2.4454,2.4186,2.3222,2.3047,2.3047,2.3047,1.9596,1.6813,1.554,1.5431,1.5431,1.5431,1.5431,1.5431,1.5431,1.5431,1.5431,1.5431,1.5431,1.5431,1.5431,1.5431,1.5431,1.5431,1.5431,1.5431,1.5445,1.5862,1.6132,1.6154,1.6279,1.6374,1.6374,1.6374,1.6374,1.6374,1.6374,1.6984,1.7842,1.8784,1.9639,2.0522,2.1053,2.123,2.1152,2.0703,2.0566,2.0566,2.0566,2.0566,2.0664,2.1113,2.123,2.1133,2.0684,2.0908,2.124,2.124,2.1572,2.1885,2.1885,2.1885,2.1885,2.1885,2.1533,2.124,2.124,2.124,2.124,2.125,2.1973,2.251,2.2519,2.2881,2.3135,2.3135,2.3135,2.3135,2.3135,2.2882,2.2627,2.2097,2.2097,2.2008,2.1741,2.2116,2.2135,2.1741,2.1741,2.1741,2.175,2.1741,2.1951,2.2337,2.3148,2.3741,2.4127,2.5142,2.5564,2.562,2.5838,2.5906,2.5906,2.5906,2.5906,2.5895,2.5895,2.5895,2.5895,2.454,2.454,2.454,2.454,2.454,2.4282,2.3667,2.3493,2.3406,2.3144,2.0683,1.9055,1.9055,1.7963,1.6813,1.554,1.5431,1.5431,1.5431,1.5431,1.5431,1.5431,1.5431,1.5431,1.5431,1.5431,1.5431,1.5431,1.5431,1.5431,1.5431,1.5431,1.5431,1.5445,1.5796,1.6162,1.6506,1.6645,1.6711,1.6733,1.6952,1.6908,1.6733,1.696,1.7523,1.8201,1.9163,2.0043,2.0955,2.1495,2.1484,2.1152,2.0703,2.0781,2.0977,2.0654,2.0566,2.0664,2.1113,2.123,2.1279,2.1445,2.1592,2.1689,2.1689,2.1787,2.1885,2.1885,2.1885,2.1885,2.1885,2.1777,2.1689,2.1689,2.1689,2.1797,2.209,2.2353,2.2617,2.292,2.3066,2.3135,2.3135,2.2969,2.2882,2.2882,2.2539,2.2274,2.2097,2.1919,2.1741,2.1741,2.1851,2.1851,2.1741,2.2006,2.23,2.2501,2.2291,2.2657,2.3593,2.349,2.3815,2.4477,2.4496,2.4586,2.472,2.4522,2.4765,2.5126,2.4669,2.502,2.5812,2.538,2.5464,2.595,2.454,2.454,2.454,2.454,2.4196,2.3754,2.3232,2.3135,2.2511,2.1051,1.8788,1.7326,1.7326,1.7326,1.7018,1.625,1.6177,1.5965,1.546,1.5431,1.5431,1.5431,1.5906,1.595,1.5438,1.5431,1.5431,1.5431,1.5431,1.5431,1.5431,1.5679,1.5935,1.6184,1.625,1.6528,1.6945,1.7011,1.704,1.7062,1.7252,1.7216,1.7154,1.771,1.811,1.8651,1.9995,2.0801,2.1456,2.1928,2.1728,2.1221,2.1113,2.1035,2.0986,2.1064,2.0967,2.0967,2.1572,2.1738,2.1846,2.2275,2.2256,2.2139,2.2139,2.2266,2.2383,2.2383,2.2383,2.2383,2.2383,2.2383,2.2383,2.2383,2.2383,2.2471,2.2725,2.2764,2.2852,2.3105,2.3135,2.3057,2.2969,2.2882,2.2706,2.2539,2.2274,2.2008,2.1919,2.183,2.1741,2.1741,2.1887,2.1896,2.1741,2.2291,2.2621,2.2703,2.2447,2.2878,2.3904,2.3938,2.4296,2.49,2.4565,2.4522,2.4596,2.4052,2.4059,2.4413,2.3973,2.4317,2.502,2.4946,2.5243,2.5883,2.454,2.4454,2.4368,2.4368,2.3387,2.2589,2.2589,2.2589,2.132,1.7785,1.7326,1.7326,1.7326,1.7326,1.7326,1.7326,1.7326,1.6835,1.5679,1.5599,1.5599,1.5599,1.6711,1.6784,1.5621,1.5489,1.5489,1.5599,1.5489,1.5431,1.5445,1.6133,1.6769,1.7311,1.6982,1.7018,1.7326,1.7326,1.7326,1.7326,1.7326,1.7326,1.7419,1.8427,1.888,1.9155,2.106,2.1784,2.1906,2.2389,2.2021,2.1465,2.1787,2.1357,2.0889,2.166,2.1602,2.1475,2.2295,2.251,2.2617,2.3037,2.2852,2.2568,2.2568,2.2861,2.3135,2.3135,2.3135,2.3135,2.3135,2.3135,2.3047,2.3057,2.3057,2.3047,2.3047,2.3057,2.3047,2.3047,2.3057,2.2969,2.2794,2.2715,2.2539,2.2097,2.2097,2.1937,2.1786,2.1759,2.175,2.1786,2.2135,2.2153,2.1796,2.2566,2.2758,2.2382,2.2419,2.2823,2.3547,2.4335,2.4823,2.5101,2.4972,2.4975,2.4866,2.4027,2.3657,2.3714,2.3627,2.3714,2.3887,2.4594,2.5133,2.5675,2.454,2.3927,2.3406,2.3406,2.0683,1.8603,1.8603,1.8603,1.8234,1.7419,1.7326,1.7326,1.7326,1.7326,1.7326,1.7326,1.7326,1.7208,1.6938,1.6916,1.6916,1.6916,1.7179,1.7201,1.6923,1.5935,1.5921,1.6916,1.5921,1.5431,1.5452,1.6587,1.7194,1.7311,1.6908,1.6952,1.7326,1.7326,1.7326,1.7326,1.7326,1.7326,1.7419,1.8427,1.9239,2.0051,2.1239,2.2148,2.2804,2.2561,2.2607,2.2627,2.206,2.1982,2.206,2.1924,2.1816,2.1855,2.2373,2.251,2.2617,2.3037,2.3066,2.2998,2.2998,2.3076,2.3135,2.3135,2.3135,2.3135,2.3135,2.3135,2.3047,2.2882,2.2891,2.2794,2.2618,2.2706,2.2794,2.2618,2.2706,2.2794,2.253,2.2353,2.2097,2.183,2.183,2.1869,2.2181,2.1906,2.1878,2.219,2.2282,2.2282,2.2199,2.2703,2.2811,2.2729,2.3134,2.3373,2.3556,2.4063,2.418,2.3851,2.3858,2.3692,2.3364,2.285,2.2805,2.296,2.2344,2.2853,2.38,2.3973,2.4475,2.5242,2.1382,2.2129,2.2501,2.0683,1.8696,1.7326,1.7326,1.7326,1.7326,1.7326,1.7326,1.7326,1.7326,1.7326,1.7326,1.7326,1.7326,1.7326,1.7326,1.7326,1.7326,1.7326,1.7326,1.7326,1.7326,1.6674,1.666,1.7326,1.666,1.6338,1.6352,1.7018,1.7326,1.7318,1.7091,1.7113,1.7326,1.7326,1.7326,1.7326,1.7326,1.7326,1.7419,1.8872,1.9778,2.0413,2.1872,2.2687,2.3105,2.2881,2.2822,2.2793,2.2559,2.2353,2.2246,2.2432,2.2344,2.2275,2.2695,2.2812,2.2861,2.3086,2.3135,2.3135,2.3135,2.3135,2.3135,2.3135,2.3135,2.3057,2.2969,2.2969,2.2882,2.2618,2.2618,2.253,2.2441,2.253,2.253,2.2441,2.253,2.253,2.2264,2.2008,2.1903,2.1997,2.2016,2.2199,2.2602,2.2428,2.241,2.2621,2.2621,2.2621,2.2621,2.3033,2.3235,2.314,2.3446,2.3648,2.384,2.4051,2.4033,2.3822,2.3629,2.3222,2.2829,2.2502,2.227,2.2274,2.183,2.2167,2.2853,2.3202,2.4125,2.5314,1.7963,1.9869,2.1051,1.787,1.7326,1.7326,1.7326,1.7326,1.7326,1.7326,1.7326,1.7326,1.7326,1.7326,1.7326,1.7326,1.7326,1.7326,1.7326,1.7326,1.7326,1.7326,1.7326,1.7326,1.7326,1.7326,1.7326,1.7326,1.7326,1.7326,1.7326,1.7326,1.7326,1.7326,1.7326,1.7326,1.7326,1.7326,1.7326,1.7326,1.7326,1.7326,1.7512,1.9422,2.0232,2.0413,2.2413,2.3135,2.3135,2.3135,2.291,2.2676,2.294,2.2571,2.2152,2.2756,2.2717,2.2609,2.296,2.3047,2.3057,2.3057,2.3057,2.3047,2.3047,2.3047,2.3047,2.3047,2.3047,2.2969,2.2794,2.2773,2.2704,2.2362,2.241,2.2457,2.2368,2.2391,2.2381,2.2358,2.2368,2.2279,2.211,2.1931,2.2006,2.2401,2.2364,2.2538,2.2939,2.2902,2.2893,2.2957,2.2957,2.2957,2.2957,2.3446,2.3648,2.3648,2.3648,2.3785,2.4051,2.4115,2.4115,2.4033,2.3767,2.3382,2.2829,2.2575,2.2153,2.1741,2.1741,2.1741,2.182,2.2618,2.4112,2.5651,1.7419,1.7692,1.7963,1.7419,1.7326,1.7326,1.7326,1.7326,1.7326,1.7326,1.7326,1.7326,1.7326,1.7326,1.7326,1.7326,1.7326,1.7326,1.7326,1.7326,1.7326,1.7326,1.7326,1.7326,1.7326,1.7326,1.7326,1.7326,1.7326,1.7326,1.7326,1.7326,1.7326,1.7326,1.7326,1.7326,1.7326,1.7326,1.7326,1.7326,1.7326,1.7326,1.7512,1.9422,2.0232,2.0413,2.2413,2.3135,2.3135,2.3135,2.3096,2.2979,2.2862,2.2814,2.265,2.2492,2.2492,2.2454,2.2784,2.2794,2.2882,2.3057,2.2969,2.2794,2.2794,2.2794,2.2794,2.2794,2.2618,2.253,2.2441,2.2725,2.2759,2.2241,2.2385,2.2609,2.2336,2.2221,2.2218,2.2299,2.2336,2.2336,2.2245,2.2245,2.2419,2.2747,2.2529,2.2657,2.3419,2.3048,2.3012,2.3455,2.3464,2.3464,2.3464,2.3868,2.407,2.407,2.407,2.3914,2.3639,2.3987,2.396,2.3639,2.3941,2.3648,2.2857,2.2802,2.2419,2.1741,2.1741,2.1741,2.182,2.3202,2.4451,2.5651,1.7326,1.7326,1.7326,1.7326,1.7326,1.7326,1.7326,1.7326,1.7326,1.7326,1.7326,1.7326,1.7326,1.7326,1.7326,1.7326,1.7326,1.7326,1.7326,1.7326,1.7326,1.7326,1.7326,1.7326,1.7326,1.7326,1.7326,1.7326,1.7326,1.7326,1.7326,1.7044,1.677,1.6487,1.6965,1.7059,1.6958,1.7239,1.7326,1.7326,1.7878,1.8149,1.8334,2.0331,2.1051,2.1239,2.2511,2.2969,2.2882,2.2794,2.2696,2.2696,2.2618,2.2618,2.253,2.2432,2.2441,2.2441,2.253,2.2618,2.2618,2.2706,2.2618,2.2618,2.2618,2.2451,2.2451,2.253,2.2621,2.2692,2.2603,2.2859,2.2991,2.2631,2.2658,2.2769,2.2676,2.2621,2.2575,2.2657,2.2676,2.2676,2.2676,2.2676,2.2841,2.3158,2.3116,2.3263,2.3859,2.3721,2.3703,2.3877,2.3877,2.3877,2.3877,2.406,2.4152,2.4152,2.4152,2.406,2.3895,2.407,2.4051,2.3895,2.4079,2.3694,2.2857,2.2857,2.2474,2.1741,2.1741,2.1741,2.182,2.2422,2.3653,2.5016]},{"header":{"parameterUnit":"m.s-1","parameterCategory":1,"la1":30.6,"la2":28.766,"lo1":-90.7593,"lo2":-88.6598,"dy":0.0162,"dx":0.0183,"nx":116,"ny":114,"refTime":"2023-11-21T18:00:00:Z","depth":0,"parameterNumber":3,"parameterNumberName":"V-component_of_WINDS"},"data":[0.0,0.0,0.0,0.0,0.0,0.0,0.0,0.0,0.0,0.0,0.0,0.0,0.0,0.0,0.0,0.0,0.0,0.0,0.0,0.0,0.0,0.0,0.0,0.0,0.0,0.0,0.0,0.0,0.0,0.0,0.0,0.0,0.0,0.0,0.0,0.0,0.0,0.0,0.0,0.0,0.0,0.0,0.0,0.0,0.0,0.0,0.0,0.0,0.0,0.0,0.0,0.0,0.0,0.0,0.0,0.0,0.0,0.0,0.0,0.0,0.0,0.0,0.0,0.0,0.0,0.0,0.0,0.0,0.0,0.0,0.0,0.0,0.0,0.0,0.0,0.0,0.0,0.0,0.0,0.0,0.0,0.0,0.0,0.0,0.0,0.0,0.0,0.0,0.0,0.0,0.0,0.0,0.0,0.0,0.0,0.0,0.0,0.0,0.0,0.0,0.0,0.0,0.0,0.0,0.0,0.0,0.0,0.0,0.0,0.0,0.0,0.0,0.0,0.0,0.0,0.0,0.0,0.0,0.0,0.0,0.0,0.0,0.0,0.0,0.0,0.0,0.0,0.0,0.0,0.0,0.0,0.0,0.0,0.0,0.0,0.0,0.0,0.0,0.0,0.0,0.0,0.0,0.0,0.0,0.0,0.0,0.0,0.0,0.0,0.0,0.0,0.0,0.0,0.0,0.0,0.0,0.0,0.0,0.0,0.0,0.0,0.0,0.0,0.0,0.0,0.0,0.0,0.0,0.0,0.0,0.0,0.0,0.0,0.0,0.0,0.0,0.0,0.0,0.0,0.0,0.0,0.0,0.0,0.0,0.0,0.0,0.0,0.0,0.0,0.0,0.0,0.0,0.0,0.0,0.0,0.0,0.0,0.0,0.0,0.0,0.0,0.0,0.0,0.0,0.0,0.0,0.0,0.0,0.0,0.0,0.0,0.0,0.0,0.0,0.0,0.0,0.0,0.0,0.0,0.0,0.0,0.0,0.0,0.0,0.0,0.0,0.0,0.0,0.0,0.0,0.0,0.0,0.0,0.0,0.0,0.0,0.0,0.0,0.0,0.0,0.0,0.0,0.0,0.0,0.0,0.0,0.0,0.0,0.0,0.0,0.0,0.0,0.0,0.0,0.0,0.0,0.0,0.0,0.0,0.0,0.0,0.0,0.0,0.0,0.0,0.0,0.0,0.0,0.0,0.0,0.0,0.0,0.0,0.0,0.0,0.0,0.0,0.0,0.0,0.0,0.0,0.0,0.0,0.0,0.0,0.0,0.0,0.0,0.0,0.0,0.0,0.0,0.0,0.0,0.0,0.0,0.0,0.0,0.0,0.0,0.0,0.0,0.0,0.0,0.0,0.0,0.0,0.0,0.0,0.0,0.0,0.0,0.0,0.0,0.0,0.0,0.0,0.0,0.0,0.0,0.0,0.0,0.0,0.0,0.0,0.0,0.0,0.0,0.0,0.0,0.0,0.0,0.0,0.0,0.0,0.0,0.0,0.0,0.0,0.0,0.0,0.0,0.0,0.0,0.0,0.0,0.0,0.0,0.0,0.0,0.0,0.0,0.0,0.0,0.0,0.0,0.0,0.0,0.0,0.0,0.0,0.0,0.0,0.0,0.0,0.0,0.0,0.0,0.0,0.0,0.0,0.0,0.0,0.0,0.0,0.0,0.0,0.0,0.0,0.0,0.0,0.0,0.0,0.0,0.0,0.0,0.0,0.0,0.0,0.0,0.0,0.0,0.0,0.0,0.0,0.0,0.0,0.0,0.0,0.0,0.0,0.0,0.0,0.0,0.0,0.0,0.0,0.0,0.0,0.0,0.0,0.0,0.0,0.0,0.0,0.0,0.0,0.0,0.0,0.0,0.0,0.0,0.0,0.0,0.0,0.0,0.0,0.0,0.0,0.0,0.0,0.0,0.0,0.0,0.0,0.0,0.0,0.0,0.0,0.0,0.0,0.0,0.0,0.0,0.0,0.0,0.0,0.0,0.0,0.0,0.0,0.0,0.0,0.0,0.0,0.0,0.0,0.0,0.0,0.0,0.0,0.0,0.0,0.0,0.0,0.0,0.0,0.0,0.0,0.0,0.0,0.0,0.0,0.0,0.0,0.0,0.0,0.0,0.0,0.0,0.0,0.0,0.0,0.0,0.0,0.0,0.0,0.0,0.0,0.0,0.0,0.0,0.0,0.0,0.0,0.0,0.0,0.0,0.0,0.0,0.0,0.0,0.0,0.0,0.0,0.0,0.0,0.0,0.0,0.0,0.0,0.0,0.0,0.0,0.0,0.0,0.0,0.0,0.0,0.0,0.0,0.0,0.0,0.0,0.0,0.0,0.0,0.0,0.0,0.0,0.0,0.0,0.0,0.0,0.0,0.0,0.0,0.0,0.0,0.0,0.0,0.0,0.0,0.0,0.0,0.0,0.0,0.0,0.0,0.0,0.0,0.0,0.0,0.0,0.0,0.0,0.0,0.0,0.0,0.0,0.0,0.0,0.0,0.0,0.0,0.0,0.0,0.0,0.0,0.0,0.0,0.0,0.0,0.0,0.0,0.0,0.0,0.0,0.0,0.0,0.0,0.0,0.0,0.0,0.0,0.0,0.0,0.0,0.0,0.0,0.0,0.0,0.0,0.0,0.0,0.0,0.0,0.0,0.0,0.0,0.0,0.0,0.0,0.0,0.0,0.0,0.0,0.0,0.0,0.0,0.0,0.0,0.0,0.0,0.0,0.0,0.0,0.0,0.0,0.0,0.0,0.0,0.0,0.0,0.0,0.0,0.0,0.0,0.0,0.0,0.0,0.0,0.0,0.0,0.0,0.0,0.0,0.0,0.0,0.0,0.0,0.0,0.0,0.0,0.0,0.0,0.0,0.0,0.0,0.0,0.0,0.0,0.0,0.0,0.0,0.0,0.0,0.0,0.0,0.0,0.0,0.0,0.0,0.0,0.0,0.0,0.0,0.0,0.0,0.0,0.0,0.0,0.0,0.0,0.0,0.0,0.0,0.0,0.0,0.0,0.0,0.0,0.0,0.0,0.0,0.0,0.0,0.0,0.0,0.0,0.0,0.0,0.0,0.0,0.0,0.0,0.0,0.0,0.0,0.0,0.0,0.0,0.0,0.0,0.0,0.0,0.0,0.0,0.0,0.0,0.0,0.0,0.0,0.0,0.0,0.0,0.0,0.0,0.0,0.0,0.0,0.0,0.0,0.0,0.0,0.0,0.0,0.0,0.0,0.0,0.0,0.0,0.0,0.0,0.0,0.0,0.0,0.0,0.0,0.0,0.0,0.0,0.0,0.0,0.0,0.0,0.0,0.0,0.0,0.0,0.0,0.0,0.0,0.0,0.0,0.0,0.0,0.0,0.0,0.0,0.0,0.0,0.0,0.0,0.0,0.0,0.0,0.0,0.0,0.0,0.0,0.0,0.0,0.0,0.0,0.0,0.0,0.0,0.0,0.0,0.0,0.0,0.0,0.0,0.0,0.0,0.0,0.0,0.0,0.0,0.0,0.0,0.0,0.0,0.0,0.0,0.0,0.0,0.0,0.0,0.0,0.0,0.0,0.0,0.0,0.0,0.0,0.0,0.0,0.0,0.0,0.0,0.0,0.0,0.0,0.0,0.0,0.0,0.0,0.0,0.0,0.0,0.0,0.0,0.0,0.0,0.0,0.0,0.0,0.0,0.0,0.0,0.0,0.0,0.0,0.0,0.0,0.0,0.0,0.0,0.0,0.0,0.0,0.0,0.0,0.0,0.0,0.0,0.0,0.0,0.0,0.0,0.0,0.0,0.0,0.0,0.0,0.0,0.0,0.0,0.0,0.0,0.0,0.0,0.0,0.0,0.0,0.0,0.0,0.0,0.0,0.0,0.0,0.0,0.0,0.0,0.0,0.0,0.0,0.0,0.0,0.0,0.0,0.0,0.0,0.0,0.0,0.0,0.0,0.0,0.0,0.0,0.0,0.0,0.0,0.0,0.0,0.0,0.0,0.0,0.0,0.0,0.0,0.0,0.0,0.0,0.0,0.0,0.0,0.0,0.0,0.0,0.0,0.0,0.0,0.0,0.0,0.0,0.0,0.0,0.0,0.0,0.0,0.0,0.0,0.0,0.0,0.0,0.0,0.0,0.0,0.0,0.0,0.0,0.0,0.0,0.0,0.0,0.0,0.0,0.0,0.0,0.0,0.0,0.0,0.0,0.0,0.0,0.0,0.0,0.0,0.0,0.0,0.0,0.0,0.0,0.0,0.0,0.0,0.0,0.0,0.0,0.0,0.0,0.0,0.0,0.0,0.0,0.0,0.0,0.0,0.0,0.0,0.0,0.0,0.0,0.0,0.0,0.0,0.0,0.0,0.0,0.0,0.0,0.0,0.0,0.0,0.0,0.0,0.0,0.0,0.0,0.0,0.0,0.0,0.0,0.0,0.0,0.0,0.0,0.0,0.0,0.0,0.0,0.0,0.0,0.0,0.0,0.0,0.0,0.0,0.0,0.0,0.0,0.0,0.0,0.0,0.0,0.0,0.0,0.0,0.0,0.0,0.0,0.0,0.0,0.0,0.0,0.0,0.0,0.0,0.0,0.0,0.0,0.0,0.0,0.0,0.0,0.0,0.0,0.0,0.0,0.0,0.0,0.0,0.0,0.0,0.0,0.0,0.0,0.0,0.0,0.0,0.0,0.0,0.0,0.0,0.0,0.0,0.0,0.0,0.0,0.0,0.0,0.0,0.0,0.0,0.0,0.0,0.0,0.0,0.0,0.0,0.0,0.0,0.0,0.0,0.0,0.0,0.0,0.0,0.0,0.0,0.0,0.0,0.0,0.0,0.0,0.0,0.0,0.0,0.0,0.0,0.0,0.0,0.0,0.0,0.0,0.0,0.0,0.0,0.0,0.0,0.0,0.0,0.0,0.0,0.0,0.0,0.0,0.0,0.0,0.0,0.0,0.0,0.0,0.0,0.0,0.0,0.0,0.0,0.0,0.0,0.0,0.0,0.0,0.0,0.0,0.0,0.0,0.0,0.0,0.0,0.0,0.0,0.0,0.0,0.0,0.0,0.0,0.0,0.0,0.0,0.0,0.0,0.0,0.0,0.0,0.0,0.0,0.0,0.0,0.0,0.0,0.0,0.0,0.0,0.0,0.0,0.0,0.0,0.0,0.0,0.0,0.0,0.0,0.0,0.0,0.0,0.0,0.0,0.0,0.0,0.0,0.0,0.0,0.0,0.0,0.0,0.0,0.0,0.0,0.0,0.0,0.0,0.0,0.0,0.0,0.0,0.0,0.0,0.0,0.0,0.0,0.0,0.0,0.0,0.0,0.0,0.0,0.0,0.0,0.0,0.0,0.0,0.0,0.0,0.0,0.0,0.0,0.0,0.0,0.0,0.0,0.0,0.0,0.0,0.0,0.0,0.0,0.0,0.0,0.0,0.0,0.0,0.0,0.0,0.0,0.0,0.0,0.0,0.0,0.0,0.0,0.0,0.0,0.0,0.0,0.0,0.0,0.0,0.0,0.0,0.0,0.0,0.0,0.0,0.0,0.0,0.0,0.0,0.0,0.0,0.0,0.0,0.0,0.0,0.0,0.0,0.0,0.0,0.0,0.0,0.0,0.0,0.0,0.0,0.0,0.0,0.0,0.0,0.0,0.0,0.0,0.0,0.0,0.0,0.0,0.0,0.0,0.0,0.0,0.0,0.0,0.0,0.0,0.0,0.0,0.0,0.0,0.0,0.0,0.0,0.0,0.0,0.0,0.0,0.0,0.0,0.0,0.0,0.0,0.0,0.0,0.0,0.0,0.0,0.0,0.0,0.0,0.0,0.0,0.0,0.0,0.0,0.0,0.0,0.0,0.0,0.0,0.0,0.0,0.0,0.0,0.0,0.0,0.0,0.0,0.0,0.0,0.0,0.0,0.0,0.0,0.0,0.0,0.0,0.0,0.0,0.0,0.0,0.0,0.0,0.0,0.0,0.0,0.0,0.0,0.0,0.0,0.0,0.0,0.0,0.0,0.0,0.0,0.0,0.0,0.0,0.0,0.0,0.0,0.0,0.0,0.0,0.0,0.0,0.0,0.0,0.0,0.0,0.0,0.0,0.0,0.0,0.0,0.0,0.0,0.0,0.0,1.3868,0.0,0.0,0.0,0.0,0.0,0.0,0.0,0.0,0.0,0.0,0.0,0.0,0.0,0.0,0.0,0.0,0.0,0.0,0.0,0.0,0.0,0.0,0.0,0.0,0.0,0.0,0.0,0.0,0.0,0.0,0.0,0.0,0.0,0.0,0.0,0.0,0.0,1.3116,1.3323,1.3735,0.0,0.0,0.0,0.0,0.0,0.0,0.0,0.0,0.0,0.0,0.0,0.0,0.0,0.0,0.0,0.0,0.0,0.0,0.0,0.0,0.0,0.0,0.0,0.0,0.0,0.0,0.0,0.0,0.0,0.0,0.0,0.0,0.0,0.0,0.0,0.0,0.0,0.0,0.0,0.0,0.0,0.0,0.0,0.0,0.0,0.0,0.0,0.0,0.0,0.0,0.0,0.0,0.0,0.0,0.0,0.0,0.0,0.0,0.0,0.0,0.0,0.0,0.0,0.0,0.0,0.0,0.0,0.0,0.0,0.0,0.0,0.0,0.0,0.0,0.0,0.0,1.4,0.0,0.0,0.0,0.0,0.0,0.0,0.0,0.0,0.0,0.0,0.0,0.0,0.0,0.0,0.0,0.0,0.0,0.0,0.0,0.0,0.0,0.0,0.0,1.221,1.2004,1.2004,1.17,1.1627,1.1957,1.1664,1.1664,1.1993,1.2077,1.233,1.2791,1.2908,1.3138,1.3581,1.4233,0.0,0.0,0.0,0.0,0.0,0.0,0.0,0.0,0.0,0.0,0.0,0.0,0.0,0.0,0.0,0.0,0.0,0.0,0.0,0.0,0.0,0.0,0.0,0.0,0.0,0.0,0.0,0.0,0.0,0.0,0.0,0.0,0.0,0.0,0.0,0.0,0.0,0.0,0.0,0.0,0.0,0.0,0.0,0.0,0.0,0.0,0.0,0.0,0.0,0.0,0.0,0.0,0.0,0.0,0.0,0.0,0.0,0.0,0.0,0.0,0.0,0.0,0.0,0.0,0.0,0.0,0.0,0.0,0.0,1.6438,1.5455,1.5455,1.5455,1.5554,1.5772,1.5197,1.4114,1.2709,1.2709,0.0,0.0,0.0,0.0,0.0,0.0,0.0,0.0,0.0,0.0,0.0,0.0,0.0,0.0,0.0,0.0,0.0,0.0,0.0,0.0,0.0,1.1811,1.159,1.159,1.1516,1.1516,1.159,1.1516,1.1553,1.1653,1.1982,1.2413,1.2894,1.3229,1.3581,1.3934,1.5786,0.0,1.8278,1.8891,1.8802,1.8085,1.667,0.0,0.0,0.0,0.0,0.0,0.0,0.0,0.0,0.0,0.0,0.0,0.0,0.0,0.0,0.0,0.0,0.0,0.0,0.0,0.0,0.0,0.0,0.0,0.0,0.0,0.0,0.0,0.0,0.0,0.0,0.0,0.0,0.0,0.0,0.0,0.0,0.0,0.0,0.0,0.0,0.0,0.0,0.0,0.9256,1.3953,0.0,0.0,0.0,0.0,0.0,0.0,0.0,0.0,0.0,0.0,0.0,0.0,0.0,1.47,1.4529,1.6642,1.7988,1.8517,1.818,1.8026,1.8026,1.8026,1.7223,1.578,1.5709,0.0,1.2709,1.2709,0.0,0.0,0.0,0.0,0.0,0.0,0.0,0.0,0.0,0.0,0.0,0.0,0.0,0.0,0.0,0.0,0.0,0.0,0.0,0.0,0.0,1.2721,1.2973,1.2973,1.3383,1.3477,1.3034,1.316,1.3065,1.2673,1.2836,1.3045,1.3285,1.3669,1.4668,1.6366,1.8036,1.9567,2.0946,2.1231,2.1216,2.0902,1.9812,1.8451,1.6924,1.6889,0.0,0.0,0.0,0.0,0.0,0.0,0.0,0.0,0.0,0.0,0.0,0.0,0.0,0.0,0.0,0.0,0.0,0.0,0.0,0.0,0.0,0.0,0.0,0.0,0.0,0.0,0.0,0.0,0.0,0.0,0.0,0.0,0.0,0.0,0.0,0.0,0.0,0.0,0.0,1.1309,1.1972,1.1791,1.3544,1.4241,0.0,0.0,0.0,0.0,0.0,0.0,0.0,0.0,0.0,1.485,1.6157,1.6888,1.6888,1.7969,1.9206,2.0583,2.0583,2.0583,2.0583,2.0583,2.0161,1.9245,1.6871,1.5265,1.4357,1.3167,1.2709,1.2709,0.0,0.0,0.0,0.0,1.192,1.2244,0.0,0.0,0.0,0.0,0.0,0.0,0.0,0.0,0.0,0.0,0.0,0.0,1.283,1.363,1.4236,1.4261,1.4885,1.4987,1.4225,1.4162,1.3975,1.3539,1.3535,1.3648,1.3914,1.4727,1.6318,1.8717,2.0308,2.178,2.3176,2.3355,2.334,2.3161,2.2998,2.1061,1.7966,1.7772,1.7251,0.0,0.0,0.0,0.0,0.0,0.0,0.0,0.0,0.0,0.0,0.0,0.0,0.0,0.0,0.0,0.0,0.0,0.0,0.0,0.0,0.0,0.0,0.0,0.0,0.0,0.0,0.0,0.0,0.0,0.0,0.0,0.0,0.0,0.0,0.0,0.0,0.0,0.0,1.2981,1.3499,1.1121,1.3204,1.4543,0.0,0.0,0.0,0.0,0.0,0.0,1.5721,1.7506,1.825,1.766,1.759,1.8166,1.9445,1.9459,2.0372,2.2184,2.2184,2.2184,2.2184,2.2184,2.2184,2.2025,1.8826,1.6801,1.5672,1.4129,1.348,1.348,1.348,1.3155,1.2709,1.2709,1.2878,1.3154,0.0,0.0,0.0,0.0,0.0,0.0,0.0,0.0,0.0,0.0,0.0,1.2481,1.3359,1.408,1.4545,1.4659,1.5054,1.4943,1.4146,1.3386,1.3185,1.3576,1.3596,1.394,1.4732,1.6872,1.8695,2.0114,2.2337,2.3775,2.4507,2.5181,2.5121,2.4552,2.5679,2.4399,2.1276,1.8792,1.8044,1.8388,0.0,0.0,0.0,0.0,0.0,0.0,0.0,0.0,0.0,0.0,0.0,0.0,0.0,0.0,0.0,0.0,0.0,0.0,0.0,0.0,0.0,0.0,0.0,0.0,0.0,0.0,0.0,0.0,0.0,0.0,0.0,0.0,0.0,0.0,0.0,0.0,0.0,0.0,0.0,1.4526,1.4898,0.0,0.0,0.0,0.0,1.5253,1.5283,1.6178,1.8208,1.8447,2.0611,2.5191,1.8616,1.7253,2.1945,2.1988,2.2058,2.2184,2.2184,2.2184,2.2184,2.2184,2.2184,2.217,2.1951,1.9554,1.578,1.5684,1.5636,1.5636,1.5636,1.4454,1.2709,1.2709,1.3348,1.4361,0.0,0.0,0.0,0.0,0.0,0.0,0.0,0.0,1.2896,1.2638,1.3047,1.3679,1.4425,1.5703,1.6665,1.707,1.739,1.6934,1.556,1.4917,1.4605,1.4688,1.4695,1.542,1.6949,1.9059,2.0877,2.2381,2.479,2.6167,2.6527,2.7061,2.7222,2.6993,2.698,2.6313,2.501,2.2711,2.0488,1.8452,1.7957,1.6976,0.0,0.0,0.0,0.0,0.0,0.0,0.0,0.0,0.0,0.0,0.0,0.0,0.0,0.0,0.0,0.0,0.0,0.0,0.0,0.0,0.0,0.0,0.0,0.0,0.0,0.0,0.0,0.0,0.0,0.0,0.0,0.0,0.0,0.0,0.0,0.0,0.0,1.7199,1.7512,0.0,1.8208,1.8078,1.7796,1.7383,1.8814,1.9369,1.8559,2.1538,2.4067,2.5837,2.0231,1.8798,2.2156,2.2184,2.2184,2.2184,2.2184,2.2184,2.2184,2.2184,2.1431,2.0144,2.0144,1.9246,1.7869,1.7869,1.7063,1.5792,1.5792,1.5336,1.4706,1.4706,1.4947,1.5331,0.0,0.0,0.0,0.0,0.0,0.0,0.0,0.0,1.2896,1.2638,1.3533,1.4546,1.5541,1.7345,1.8627,1.9057,1.8879,1.8106,1.6619,1.5627,1.513,1.5131,1.5758,1.7039,1.8994,2.0976,2.2825,2.4532,2.6612,2.7825,2.8091,2.8255,2.8632,2.9228,2.856,2.8479,2.867,2.7211,2.4019,1.9908,1.9468,1.8625,1.7593,0.0,0.0,0.0,0.0,0.0,0.0,0.0,0.0,0.0,0.0,0.0,0.0,0.0,0.0,0.0,0.0,0.0,0.0,0.0,0.0,0.0,0.0,0.0,0.0,0.0,0.0,0.0,0.0,0.0,0.0,0.0,0.0,0.0,0.0,1.6866,1.7969,1.8959,1.9602,1.9955,1.9995,2.0198,2.033,2.0246,2.2245,2.2828,2.1367,2.4426,2.6233,2.6233,2.2814,2.1791,2.3421,2.3435,2.3013,2.2184,2.2184,2.262,2.3407,2.2564,2.1879,2.123,1.9662,1.8987,1.8987,1.8987,1.8157,1.6834,1.6068,1.5792,1.5792,1.5792,1.5792,1.5792,0.0,0.0,0.0,0.0,0.0,0.0,0.0,1.2603,1.2603,1.2603,1.3626,1.4967,1.6685,1.8818,2.0207,2.0487,1.94,1.8267,1.7251,1.539,1.4475,1.4878,1.6781,1.8758,2.0797,2.2712,2.4608,2.6471,2.7766,2.8637,2.9121,2.8622,2.937,3.113,3.0592,3.0958,3.2008,3.1731,2.8379,2.3092,2.1198,2.0786,2.1018,0.0,0.0,0.0,0.0,0.0,0.0,0.0,0.0,0.0,0.0,0.0,0.0,0.0,0.0,0.0,0.0,0.0,0.0,0.0,0.0,0.0,0.0,0.0,0.0,0.0,0.0,0.0,0.0,0.0,0.0,0.0,0.0,0.0,1.6902,1.8541,1.9881,1.9921,2.1082,2.1858,2.1814,2.1831,2.235,2.3664,2.5123,2.6179,2.6779,2.6779,2.6779,2.6779,2.6147,2.5781,2.5781,2.5809,2.4643,2.2297,2.2297,2.3561,2.5809,2.3393,2.3575,2.5518,2.0907,1.8927,1.8987,1.8987,1.8951,1.8698,1.6714,1.5888,1.5888,1.5888,1.5888,1.5876,0.0,0.0,0.0,0.0,0.0,0.0,1.3047,1.3047,1.3047,1.3047,1.4386,1.6003,1.7758,1.9351,2.0476,2.1043,1.9601,1.8142,1.7009,1.5497,1.5449,1.7204,1.9413,2.153,2.3462,2.5393,2.7088,2.8601,3.018,3.0545,2.9765,3.0085,3.0291,3.0376,3.2106,3.2756,3.25,3.2076,3.0882,2.8985,2.6417,2.3544,2.0803,0.0,0.0,0.0,0.0,0.0,0.0,0.0,0.0,0.0,0.0,0.0,0.0,0.0,0.0,0.0,0.0,0.0,0.0,0.0,0.0,0.0,0.0,0.0,0.0,0.0,0.0,0.0,0.0,0.0,0.0,0.0,1.9273,2.003,1.9253,2.0821,2.2235,2.2728,2.3496,2.397,2.4047,2.4312,2.4659,2.4997,2.583,2.6447,2.6779,2.6779,2.6621,2.6165,2.4253,2.321,2.321,2.4109,2.4671,2.4868,2.4868,2.5233,2.5879,2.5177,2.4264,2.2958,1.8592,1.7568,1.8987,1.8987,1.8085,1.6798,1.7748,1.8121,1.8121,1.8121,1.8121,1.7905,0.0,0.0,0.0,0.0,0.0,0.0,1.3198,1.3198,1.3198,1.3198,1.4903,1.6536,1.7658,1.949,2.0597,2.0526,1.9248,1.7975,1.6746,1.6143,1.6824,1.9148,2.1853,2.4085,2.5758,2.7953,2.9612,3.0576,3.1627,3.1718,3.0939,3.1048,3.1207,3.1339,3.2352,3.3567,3.4911,3.4166,3.3594,3.3077,3.1229,2.8468,2.529,2.3766,2.2838,2.2208,2.0857,2.0715,2.0961,1.9899,0.0,0.0,0.0,0.0,0.0,0.0,0.0,0.0,0.0,0.0,0.0,0.0,0.0,0.0,0.0,0.0,0.0,0.0,0.0,0.0,0.0,0.0,0.0,0.0,2.0907,2.228,2.2454,2.3223,2.4094,2.4994,2.5429,2.5662,2.5676,2.5959,2.6067,2.6039,2.6385,2.6674,2.6779,2.6779,2.6621,2.6286,2.4861,2.414,2.414,2.4205,2.4892,2.6056,2.5948,2.5345,2.4334,2.4334,2.3069,2.0703,1.8202,1.7857,1.8987,1.8987,1.8265,0.0,0.0,0.0,0.0,0.0,1.7664,1.7496,0.0,0.0,0.0,0.0,0.0,0.0,1.3198,1.3198,1.3198,1.3232,1.5247,1.6705,1.6857,1.9271,2.0442,1.9458,1.8645,1.7749,1.6761,1.7271,1.8676,2.1128,2.4317,2.6647,2.786,3.0482,3.2046,3.2441,3.2639,3.2746,3.2727,3.2048,3.2401,3.355,3.2253,3.4039,3.7953,3.7037,3.629,3.5759,3.5381,3.3871,3.1544,2.8098,2.7116,2.73,2.5075,2.3436,2.2194,2.1306,0.0,0.0,0.0,0.0,0.0,0.0,0.0,0.0,0.0,0.0,0.0,0.0,0.0,0.0,0.0,0.0,0.0,0.0,0.0,0.0,0.0,0.0,0.0,0.0,2.2585,2.4602,2.6025,2.5705,2.5734,2.6866,2.6997,2.6997,2.6997,2.6953,2.6924,2.6924,2.6968,2.6939,2.6794,2.6779,0.0,0.0,0.0,2.6779,2.6779,2.5307,2.5206,2.634,2.6056,2.4638,2.2278,2.2278,2.1224,1.9436,1.9384,1.9239,1.8987,1.8987,1.8987,1.8987,1.8987,1.8987,1.8758,1.6835,1.6152,1.6152,0.0,0.0,0.0,0.0,0.0,0.0,1.3198,1.3198,1.3232,1.3357,1.5231,1.6586,1.6731,1.8342,1.9359,1.9238,1.8021,1.7466,1.7988,1.9281,2.1385,2.4451,2.7347,2.9528,3.09,3.295,3.3973,3.3973,3.4499,3.5161,3.5954,3.4981,3.5298,3.658,3.5341,3.5796,3.7635,3.7902,3.787,3.7569,3.7185,3.4774,3.131,2.9874,2.8812,2.787,2.5928,2.5685,2.5968,2.3797,2.3325,2.3266,2.0887,0.0,0.0,0.0,0.0,0.0,0.0,0.0,0.0,0.0,0.0,0.0,0.0,0.0,0.0,0.0,0.0,0.0,0.0,0.0,0.0,2.3569,2.4762,2.6228,2.855,2.8347,2.8042,2.8289,2.8318,2.8318,2.8318,2.7984,2.7766,2.7766,2.81,2.7868,2.6837,2.6779,2.6779,2.6779,2.6779,2.6779,2.6779,2.5669,2.5617,2.6674,0.0,0.0,2.2752,2.2752,2.2555,2.2109,2.1732,2.0584,1.8987,1.8987,1.8987,1.8987,1.8987,1.8987,1.8939,1.853,1.8386,1.8386,0.0,0.0,0.0,0.0,0.0,0.0,1.3301,1.3301,1.3391,1.3682,1.5171,1.619,1.6114,1.7529,1.8247,1.7701,1.733,1.777,1.9293,2.1585,2.4287,2.7383,3.0815,3.2818,3.3171,3.5482,3.6305,3.5492,3.6243,3.675,3.7017,3.6986,3.7595,3.8789,3.8145,3.8229,3.884,3.9142,3.9211,3.9043,3.8338,3.6821,3.4775,3.3304,3.2349,3.1565,2.9564,2.8622,2.8075,2.6448,2.5477,2.4678,2.2681,2.1182,1.9826,0.0,0.0,0.0,0.0,0.0,0.0,0.0,0.0,0.0,0.0,0.0,0.0,0.0,0.0,1.9214,2.0148,0.0,2.3572,2.5502,2.6605,2.7679,2.8971,2.9421,2.9508,2.9189,2.8869,2.8594,2.8361,2.8129,2.7824,2.7418,2.7607,2.8013,2.8652,2.8681,2.81,2.6823,2.6779,2.6779,2.6779,2.6292,2.6292,2.6779,2.6621,2.5943,2.4863,2.4863,2.4716,2.4405,2.414,2.2751,2.0514,1.9432,1.8987,1.8987,1.8987,1.8987,1.8987,1.8987,1.8987,1.8987,0.0,0.0,0.0,0.0,0.0,0.0,0.0,1.3459,1.3581,1.4052,1.5127,1.5749,1.5501,1.6818,1.7301,1.6157,1.694,1.8408,0.0,2.3745,2.6878,2.9891,3.3925,3.5778,3.5054,3.7552,3.8199,3.6835,3.7554,3.7753,3.7483,3.8244,3.914,4.007,4.007,4.007,4.007,4.007,4.007,4.002,3.9244,3.8774,3.8455,3.6571,3.5676,3.5198,3.2926,3.0831,2.9,2.8196,2.6643,2.4901,2.3809,2.2363,2.0715,1.926,1.7849,0.0,0.0,0.0,0.0,0.0,0.0,0.0,0.0,1.7737,1.9217,1.8317,1.9885,2.167,2.257,2.3775,2.5226,2.7041,2.8158,2.8869,2.9029,2.9711,3.0016,2.9508,2.9203,2.8898,2.8536,2.8507,2.8231,2.7578,2.752,2.8405,3.0466,3.0335,2.916,2.6852,2.6779,2.6779,2.6779,2.6779,2.6779,2.6779,2.6779,2.6779,2.6779,2.6779,2.65,2.6028,2.4983,2.3437,2.144,1.9696,1.8987,1.8987,1.8987,1.9251,1.9564,1.9143,1.8987,1.8987,0.0,0.0,0.0,0.0,0.0,0.0,0.0,0.0,1.3682,1.4438,1.5194,1.5539,1.5338,1.6228,1.6576,1.5876,1.7288,0.0,2.1754,2.5128,2.849,3.1789,3.5613,3.743,3.6754,3.8203,3.8599,3.7722,3.7872,3.821,3.8768,3.8667,3.914,4.007,4.007,4.007,4.007,4.007,4.007,4.007,3.9986,3.948,3.8673,3.7784,3.69,3.5726,3.2933,3.0577,2.8555,2.7336,2.5581,2.385,2.3793,2.3001,2.1784,2.0059,1.8588,1.7262,1.6156,1.5623,1.5418,1.5389,1.6564,1.776,0.0,1.9391,2.0915,2.1365,2.3905,2.5894,2.5444,2.6431,2.7737,2.9087,2.9276,2.9493,3.0263,2.9523,2.8869,2.8797,2.9711,3.0335,3.0292,3.0277,3.0248,3.0161,3.0147,3.0277,3.0553,2.9508,2.8245,2.6823,2.6779,2.6779,2.6779,2.6779,2.6779,2.6779,2.6779,2.6779,2.6779,2.6779,2.6779,2.6438,2.1798,1.9604,1.9324,1.9095,1.8987,1.8987,1.8987,2.0153,2.1608,1.9696,1.8987,1.8987,0.0,0.0,0.0,0.0,0.0,0.0,0.0,0.0,0.0,1.4624,1.5117,1.5453,1.5581,1.595,1.6142,1.6055,1.7213,0.0,2.2731,2.6091,2.9568,3.3222,3.6571,3.807,3.755,3.9183,3.9662,3.8926,3.9646,4.0026,4.0021,3.9918,3.9944,4.007,4.007,4.007,4.007,4.007,4.007,4.0037,3.9614,3.8956,3.8046,3.5879,3.4275,3.2988,3.1665,2.9765,0.0,0.0,2.4767,2.3394,2.3051,2.2149,2.0942,1.9277,1.8422,1.7787,1.712,1.6753,1.6667,1.7034,1.8446,1.9648,1.9362,2.1061,2.2657,2.257,2.45,2.6344,2.6823,2.7665,2.8695,2.9972,3.0103,3.0001,2.9856,2.9174,2.8405,2.7665,2.6721,2.7302,3.0277,3.0568,3.0568,3.0568,3.0568,3.0568,3.0568,3.0074,2.8855,2.6852,2.6779,2.6779,2.6779,2.6779,2.6779,2.6779,2.6779,2.6779,2.6779,2.6779,2.6779,2.6669,2.4479,2.355,2.3392,2.1606,2.0117,1.9119,2.037,2.1404,2.1933,1.978,1.8987,1.8987,0.0,0.0,0.0,0.0,0.0,0.0,0.0,0.0,0.0,0.0,1.5209,1.5418,1.577,1.5885,1.5983,1.6176,0.0,0.0,0.0,2.6101,2.9538,3.3158,3.6189,3.7814,3.7905,3.9494,4.0195,4.0008,4.0878,4.1185,4.0972,4.0849,4.0628,4.0303,4.0171,4.007,4.007,4.007,3.9969,3.9715,3.8988,3.7872,3.6383,3.3693,3.1318,2.9425,2.9271,2.774,0.0,0.0,2.3162,2.2232,2.194,2.1215,2.0208,1.9077,1.8423,1.8022,1.7926,1.7829,1.8022,1.9114,2.058,2.1689,2.1188,2.295,2.4481,2.3747,2.4978,2.6477,2.7199,2.8071,2.8937,2.9929,3.0335,3.019,2.9102,2.8492,2.7549,2.5923,2.408,2.4351,2.81,2.9116,2.9813,3.0524,3.0568,3.0422,3.0074,3.006,2.9131,2.7113,2.6881,2.6779,2.6779,2.6779,2.6779,2.6779,2.6779,2.6779,2.6779,2.6779,2.6779,2.6779,2.6779,2.6779,2.6553,2.3458,2.1272,2.0033,2.1584,2.2197,2.2005,2.0442,1.9504,1.8987,0.0,0.0,0.0,0.0,0.0,0.0,0.0,0.0,0.0,0.0,0.0,0.0,0.0,1.6024,1.6203,1.6203,0.0,0.0,0.0,2.4779,2.7969,3.0958,3.4047,3.6354,3.7872,3.865,3.9637,4.0767,4.0784,4.1065,4.1481,4.1019,4.0802,4.0754,4.0303,4.007,4.007,4.007,3.9665,3.8954,3.8227,3.618,3.3372,3.185,2.8881,2.5531,2.543,0.0,0.0,2.1114,2.034,1.9849,2.0539,2.0508,0.0,2.0148,1.8946,1.7726,1.8251,1.8529,1.9152,2.1256,2.2717,2.3606,2.3591,2.5155,2.6363,2.5518,2.6393,2.7205,2.6653,2.7542,2.8483,2.8735,2.9769,2.9972,2.8274,2.7345,2.5894,2.3308,2.2946,2.2946,2.3105,2.5429,2.7926,3.0379,3.0568,3.0031,2.8797,2.8739,2.8419,2.7723,2.7113,2.6779,2.6779,2.6779,2.6779,2.6779,2.6779,2.6779,2.6779,2.6779,2.6779,2.6779,2.6779,2.6779,2.6553,2.3458,2.2149,2.2101,2.2161,2.2197,2.2185,2.2125,2.0779,1.8987,0.0,0.0,0.0,0.0,0.0,0.0,0.0,0.0,0.0,0.0,0.0,0.0,0.0,0.0,0.0,0.0,0.0,0.0,0.0,2.321,2.5639,2.8235,3.1422,3.3653,3.4749,3.6394,3.7667,3.8602,3.9451,3.9761,3.9585,3.9976,3.9954,3.9669,3.951,3.9301,3.9042,3.9042,3.8155,3.6654,3.5419,3.3398,3.0825,2.7892,2.5291,2.3016,0.0,0.0,0.0,1.8991,1.8402,1.8236,1.851,1.8517,1.8542,1.9281,1.8972,1.8847,2.0842,2.1758,2.2552,2.4135,2.5082,2.5608,2.5555,2.5993,2.6214,2.5385,2.5559,2.5953,2.6243,2.637,2.6982,2.8795,2.9218,2.9406,2.9668,2.8028,2.5821,2.3207,2.2888,2.2888,2.2888,2.3685,2.5299,2.7868,2.8057,2.7868,2.7447,2.7418,2.7563,2.7897,2.7171,2.6779,2.6779,2.6779,2.6779,2.6779,2.6779,2.6779,2.6779,2.6779,2.6779,2.6779,2.6779,2.5865,2.4266,2.3245,2.2787,2.2787,2.2371,2.242,2.2726,2.2371,2.1728,2.1115,0.0,0.0,0.0,0.0,0.0,0.0,0.0,0.0,0.0,0.0,0.0,0.0,0.0,0.0,0.0,0.0,0.0,0.0,0.0,0.0,2.3369,2.5737,2.8661,3.063,3.1481,3.3035,3.4212,3.494,3.6036,3.6481,3.6342,3.697,3.7106,3.6802,3.6646,3.6423,3.6153,3.6086,3.5018,3.326,3.1941,2.9901,2.7297,2.438,2.2281,0.0,0.0,0.0,0.0,1.7813,1.7515,1.7515,1.7515,1.7749,1.81,1.8254,1.8712,1.973,2.2591,2.4248,2.5512,2.6832,2.7602,2.786,2.7312,2.6945,2.6369,2.5277,2.4838,2.4744,2.5007,2.4922,2.5409,2.7151,2.7617,2.8098,2.8941,2.772,2.5995,2.3829,2.3989,2.4312,2.4312,2.3438,2.3583,2.5284,2.6257,2.6982,2.7432,2.7607,2.7853,2.8231,2.7882,2.7534,2.7215,2.7389,2.7229,2.6779,2.6779,2.6779,2.6779,2.6779,2.6779,2.6779,2.6779,2.5412,2.3185,2.4047,2.3872,2.3078,2.2665,2.3257,2.4255,2.3563,2.3304,2.3195,0.0,0.0,0.0,0.0,0.0,0.0,0.0,0.0,0.0,0.0,0.0,0.0,0.0,0.0,0.0,0.0,0.0,0.0,0.0,0.0,0.0,2.3405,2.5717,2.7362,2.8233,2.8855,2.9473,3.0112,3.0894,3.1517,3.1962,3.2335,3.2485,3.2471,3.2004,3.1794,3.1741,3.1487,3.0518,2.9042,2.7997,2.5797,2.3022,2.1524,0.0,0.0,0.0,0.0,1.7515,1.7515,1.7531,1.7565,1.7614,1.8329,1.8917,1.7555,1.8515,2.0684,2.3691,2.6131,2.807,2.9251,2.9996,3.0079,2.8655,2.7744,2.6751,2.5081,2.4233,2.3586,2.2921,2.3359,2.3927,2.4101,2.5326,2.6304,2.6427,2.6708,2.6468,2.5168,2.6097,2.6881,2.6968,2.4646,2.3091,2.3091,2.5458,2.7432,2.871,2.9073,2.9073,2.8724,2.9073,2.8898,2.8129,2.8434,2.7984,2.6779,2.6779,2.6779,2.6779,2.6779,2.6852,2.6968,2.6968,2.5619,2.356,2.5979,2.5605,2.347,2.3422,2.4658,2.6314,2.5594,2.5312,2.5023,0.0,0.0,0.0,0.0,0.0,0.0,0.0,0.0,0.0,0.0,0.0,0.0,0.0,0.0,0.0,0.0,0.0,0.0,0.0,0.0,0.0,0.0,0.0,0.0,0.0,0.0,0.0,0.0,0.0,2.8528,2.8648,2.9322,2.9565,2.9436,2.9323,2.8981,2.8563,2.8499,2.7392,2.559,0.0,2.3261,2.1362,0.0,0.0,0.0,0.0,0.0,1.7515,1.7515,1.7822,1.8352,1.8899,1.964,2.0327,2.0508,2.2437,2.5168,2.8086,2.9716,3.0634,3.0948,3.0377,2.9277,2.7762,2.6036,2.4274,2.2687,2.2247,2.1956,2.1448,2.2417,2.3916,2.5841,2.6778,2.772,2.9108,2.9195,2.8838,2.8101,2.7847,2.8221,2.9537,2.7302,2.5807,2.5807,2.7287,2.8753,3.0031,2.8971,2.8579,2.9131,2.8956,2.9189,2.9914,2.8158,2.7099,2.6779,2.6779,2.6779,2.6779,2.6779,2.7824,2.961,2.961,2.8757,2.7356,2.8973,2.9229,2.8665,2.8132,2.6961,2.5594,2.5382,2.5312,2.5228,0.0,0.0,0.0,0.0,0.0,0.0,0.0,0.0,0.0,0.0,0.0,0.0,0.0,0.0,0.0,0.0,0.0,0.0,0.0,0.0,0.0,0.0,0.0,0.0,0.0,0.0,0.0,0.0,0.0,0.0,0.0,2.4954,2.5411,2.5301,2.5195,2.4953,2.4655,2.4704,0.0,0.0,0.0,0.0,0.0,0.0,0.0,0.0,0.0,0.0,0.0,1.7839,1.8833,2.0025,2.0456,2.1516,2.2775,2.3503,2.5508,2.8108,3.1007,3.2415,3.2829,3.1824,3.1007,2.9707,2.7271,2.5238,2.3374,2.1546,2.1005,2.0854,2.0731,2.1842,2.3259,2.4808,2.6084,2.7296,2.8389,2.901,2.9444,2.9768,2.8961,2.8659,2.942,2.884,2.8129,2.7374,2.8158,2.9073,2.9972,2.9102,2.8971,2.9842,2.9639,2.9856,3.0568,2.916,2.8448,2.8448,2.8448,2.8448,2.8405,2.7302,2.8173,3.0568,0.0,3.0176,2.9537,2.9885,3.0234,3.0447,2.8867,2.7015,2.5312,2.5312,2.5312,2.5312,0.0,0.0,0.0,0.0,0.0,0.0,0.0,0.0,0.0,0.0,0.0,0.0,0.0,0.0,0.0,0.0,0.0,0.0,0.0,0.0,0.0,0.0,0.0,0.0,0.0,0.0,0.0,0.0,0.0,0.0,0.0,0.0,0.0,0.0,0.0,0.0,0.0,0.0,0.0,0.0,0.0,0.0,0.0,0.0,0.0,0.0,0.0,0.0,0.0,0.0,2.0058,2.1814,2.2029,2.3603,2.5574,2.6501,2.8042,3.0046,3.2845,3.4237,3.4386,3.2282,3.147,3.0294,2.6849,2.4696,2.2841,2.0792,2.0176,2.0111,2.0299,2.1466,2.2508,2.29,2.4622,2.6096,2.6599,2.785,2.9237,3.0624,2.9769,2.8931,2.8473,2.9668,2.9886,2.8388,2.8579,2.8956,2.929,2.9421,2.9813,3.0553,3.0568,3.0568,3.0568,3.0568,3.0568,3.0568,3.0568,3.0568,3.0495,2.8289,2.8492,3.0568,3.0568,3.0568,3.051,2.9784,2.9914,3.0312,2.755,2.6094,2.5453,2.5453,2.5453,2.5453,0.0,0.0,0.0,0.0,0.0,0.0,0.0,0.0,0.0,0.0,0.0,0.0,0.0,0.0,0.0,0.0,0.0,0.0,0.0,0.0,0.0,0.0,0.0,0.0,0.0,0.0,0.0,0.0,0.0,0.0,0.0,0.0,0.0,0.0,0.0,0.0,0.0,0.0,0.0,0.0,0.0,0.0,0.0,0.0,0.0,0.0,0.0,0.0,0.0,0.0,2.0472,2.1996,2.3222,2.5127,2.728,2.9218,3.0444,3.1686,3.4021,3.4767,3.4518,3.2911,3.0709,2.8307,2.5855,2.271,2.0009,1.8806,1.9165,1.9563,1.9119,2.1093,2.3128,2.4104,2.5029,2.6416,2.8844,2.9202,2.9704,3.1098,3.0554,3.0256,3.0658,3.025,2.9827,2.9607,2.9479,2.9421,2.9319,2.9972,3.0422,3.0568,3.0568,3.0568,3.0568,3.0568,3.0568,3.0568,3.0568,3.0568,3.0568,3.0118,3.0161,3.0568,3.0568,0.0,3.0568,3.0422,3.0437,3.0312,2.755,2.6383,2.6314,2.6314,2.6314,2.6314,0.0,0.0,0.0,0.0,0.0,0.0,0.0,0.0,0.0,0.0,1.5791,1.5485,0.0,0.0,0.0,0.0,0.0,0.0,0.0,0.0,0.0,0.0,0.0,0.0,0.0,0.0,1.8698,1.842,0.0,0.0,0.0,1.8888,1.8966,1.8752,0.0,0.0,0.0,0.0,0.0,0.0,0.0,0.0,0.0,0.0,0.0,0.0,0.0,0.0,0.0,0.0,1.9771,2.1599,2.3868,2.6087,2.8274,3.046,3.1295,3.21,3.4303,3.4899,3.4452,3.2597,3.0245,2.7595,2.463,2.1715,1.926,1.8053,1.8303,1.8828,1.9079,2.0582,2.2216,2.3472,2.3948,2.4997,2.7412,2.8029,2.8633,2.9682,3.0088,3.0107,2.9554,2.975,2.9578,2.8808,2.9624,2.9929,2.9493,3.0176,3.0568,3.0568,3.0568,3.0568,3.0568,3.0568,3.0568,3.0568,3.0568,3.0568,3.0568,3.0568,3.0568,3.0568,3.0568,3.0568,3.0568,3.0568,3.0568,3.0447,2.9156,2.8648,2.8454,2.704,2.6533,2.6533,0.0,0.0,0.0,0.0,0.0,0.0,0.0,1.6332,1.6068,1.54,1.5653,1.6084,1.6528,1.4866,0.0,0.0,0.0,0.0,0.0,0.0,0.0,0.0,0.0,0.0,0.0,0.0,0.0,1.798,1.866,0.0,0.0,0.0,0.0,0.0,1.8487,1.8328,1.8132,0.0,0.0,0.0,0.0,1.7515,0.0,0.0,0.0,0.0,0.0,0.0,0.0,0.0,1.894,2.0886,2.3307,2.5853,2.829,3.0145,3.1023,3.1835,3.3872,3.4535,3.417,3.2133,2.9748,2.7031,2.3669,2.0969,1.8823,1.7633,1.7755,1.8377,1.9263,2.0088,2.1103,2.2506,2.2774,2.3459,2.5227,2.6408,2.737,2.8018,2.9302,2.9678,2.8458,2.9078,2.9256,2.8502,2.9799,3.0364,2.9856,3.0306,3.0568,3.0568,3.0568,3.0568,3.0568,3.0568,3.0568,3.0568,3.0568,3.0568,3.0568,3.0568,3.0568,3.0568,3.0568,3.0568,3.0568,3.0568,3.0568,3.0568,3.0568,3.0568,3.0251,2.7484,2.6533,2.6533,0.0,0.0,0.0,0.0,0.0,0.0,0.0,1.5429,1.54,1.5327,1.5328,1.6759,2.036,1.7765,0.0,0.0,0.0,0.0,0.0,0.0,0.0,0.0,0.0,0.0,0.0,0.0,0.0,1.8534,1.8789,0.0,0.0,0.0,0.0,0.0,0.0,1.8408,1.831,1.8565,0.0,0.0,0.0,0.0,0.0,0.0,0.0,0.0,0.0,1.7,1.7526,1.7642,1.8589,1.9822,2.0528,2.3342,2.6584,2.7429,2.9069,3.0957,3.2481,3.3375,3.3524,3.2,2.9003,2.5789,2.3437,2.0191,1.7575,1.7141,1.7805,1.8604,1.9121,1.9787,2.0744,2.22,2.2355,2.2763,2.4236,2.5561,2.6681,2.7423,2.8755,2.9665,2.9696,2.8939,2.9104,3.0646,3.0659,3.0553,3.0495,3.0539,3.0568,3.0568,3.0568,3.0568,3.0568,3.0568,3.0568,3.0568,3.0568,3.0568,3.0568,3.0568,3.0568,3.0568,3.0568,3.0568,0.0,3.0568,3.0568,3.0568,3.0568,3.0568,3.0251,2.7484,2.6533,2.6533,0.0,0.0,0.0,0.0,0.0,0.0,0.0,1.6068,1.6445,1.7461,1.7592,1.8542,2.1022,1.8524,1.6567,0.0,0.0,0.0,0.0,0.0,0.0,0.0,0.0,0.0,0.0,0.0,1.8187,1.8715,1.8642,0.0,0.0,0.0,0.0,0.0,0.0,1.8187,1.7888,1.7971,0.0,0.0,0.0,0.0,0.0,0.0,0.0,0.0,0.0,0.0,1.693,1.6639,1.7098,1.7818,1.801,1.9852,2.2603,2.5721,2.7561,2.9168,3.1934,3.2895,3.2779,3.1321,2.8224,2.4961,2.2742,1.976,1.7451,1.7338,1.7947,1.8604,1.8998,1.9196,1.9618,2.0623,0.0,2.0309,2.2701,2.3655,2.4791,2.6584,2.8085,2.8785,2.8335,2.8887,2.969,3.0733,3.0702,3.0568,3.0568,3.0568,3.0568,3.0568,3.0568,3.0568,3.0568,3.0568,3.0568,3.0568,3.0568,3.0568,3.0568,3.0568,3.0568,3.0568,3.0568,3.0568,0.0,3.0568,3.0568,3.0568,3.0568,3.0568,3.0251,2.7484,2.6533,2.6533,0.0,0.0,0.0,0.0,0.0,0.0,1.6111,1.623,1.6634,1.7824,1.8637,1.9479,2.0548,1.8873,1.7634,1.7509,0.0,0.0,0.0,0.0,0.0,0.0,0.0,0.0,0.0,0.0,0.0,1.8426,1.8353,1.8434,0.0,0.0,1.827,1.7932,0.0,0.0,0.0,0.0,0.0,0.0,0.0,0.0,0.0,0.0,0.0,0.0,0.0,0.0,0.0,0.0,0.0,1.6596,1.6517,0.0,0.0,2.3126,2.5392,2.7197,2.9748,3.0924,3.1007,2.9334,2.6667,2.3868,2.1648,1.9247,1.7515,1.7515,1.7947,1.8461,1.8794,1.893,1.9136,0.0,0.0,1.9476,2.1652,2.2535,2.3627,2.5509,2.7179,2.7906,2.7277,2.898,3.0382,3.1137,3.0089,2.945,2.945,3.0161,3.0568,3.0568,3.0568,3.0568,3.0568,3.0568,3.0568,3.0568,3.0568,3.0568,3.0568,3.0568,3.0568,3.0568,3.0568,3.0568,0.0,3.0568,3.0568,3.0568,3.0568,3.1032,3.1512,2.9577,2.8343,2.7617,0.0,0.0,0.0,0.0,0.0,0.0,0.0,1.5327,1.5327,1.5342,1.7534,1.9101,1.9139,1.9109,1.8654,1.7601,0.0,0.0,0.0,0.0,0.0,0.0,0.0,0.0,0.0,0.0,0.0,1.7498,1.7893,1.8111,1.8111,1.8584,1.8328,1.7515,0.0,0.0,0.0,0.0,0.0,0.0,0.0,0.0,0.0,0.0,0.0,0.0,0.0,0.0,0.0,0.0,0.0,0.0,0.0,1.6581,1.7376,0.0,2.2278,2.5143,2.5176,2.6766,2.7909,2.5706,2.4033,2.2344,2.0114,1.8518,1.7515,1.7515,1.7771,1.8113,1.8442,1.9138,1.9673,1.9515,2.0454,0.0,2.138,2.2676,2.3718,2.4065,2.5953,2.7233,2.7181,2.9229,3.1105,3.2396,2.8971,2.6823,2.6823,2.9203,3.0568,3.0568,3.0568,3.0568,3.0568,3.0568,3.0568,3.0568,3.0568,3.0568,3.0568,3.0568,3.0568,3.0568,3.0568,3.0568,0.0,3.0568,3.0568,3.0568,3.0568,3.2135,3.437,3.4303,3.2695,3.019,0.0,0.0,0.0,0.0,0.0,0.0,0.0,1.5313,1.5313,1.5313,1.601,1.6518,1.6518,1.8071,1.8337,1.6493,0.0,0.0,0.0,0.0,0.0,0.0,0.0,0.0,0.0,0.0,0.0,0.0,0.0,0.0,1.7698,1.7833,1.7743,1.7515,1.7515,1.7515,0.0,0.0,0.0,0.0,0.0,0.0,0.0,0.0,0.0,0.0,0.0,0.0,0.0,0.0,0.0,0.0,0.0,0.0,0.0,1.7552,1.9855,2.241,2.3934,2.4862,2.5209,2.453,2.2716,2.0865,1.9838,1.8332,1.7224,1.7451,1.7947,1.8532,1.92,1.8997,1.9005,1.9851,2.0025,2.0393,2.1466,2.3163,2.4641,2.5568,2.7366,2.8375,2.7974,3.0178,3.1139,2.9972,2.9581,2.8623,2.6881,2.9189,3.0568,3.0568,3.0568,3.0568,3.0568,3.0568,3.0568,3.0568,3.0568,3.0568,3.0568,3.0568,3.154,3.3195,3.3195,3.3195,3.3195,3.3195,3.3195,3.3195,3.3195,3.3703,3.4414,3.4414,3.3891,3.2772,0.0,0.0,0.0,0.0,0.0,0.0,0.0,1.5313,1.5313,1.5313,1.5313,1.5313,1.5313,1.6721,1.7092,1.5743,0.0,0.0,0.0,0.0,0.0,0.0,0.0,0.0,0.0,0.0,0.0,0.0,0.0,0.0,0.0,0.0,1.7515,1.7515,1.7515,1.7265,0.0,0.0,0.0,0.0,0.0,0.0,1.6024,0.0,0.0,0.0,0.0,0.0,0.0,0.0,0.0,0.0,0.0,0.0,0.0,0.0,1.801,1.9701,2.1453,2.2327,2.2626,2.2062,2.0772,1.9487,1.893,1.7979,1.7248,1.7451,1.7922,1.85,1.913,1.9034,1.9063,1.9822,2.0426,2.0993,2.1525,2.3133,2.4881,2.6668,2.7653,2.8404,2.8928,3.0529,3.1212,3.0393,3.019,2.9334,2.7592,2.9464,3.0568,3.0568,3.0568,3.0568,3.0568,2.9624,2.9624,3.0568,3.0568,3.0568,3.0611,3.1584,3.2904,3.4414,3.4414,3.4414,0.0,3.4414,3.4414,3.4414,3.4414,3.4414,3.4414,3.4414,3.3687,3.2533,0.0,0.0,0.0,0.0,0.0,0.0,0.0,0.0,0.0,0.0,1.5313,1.5313,1.5313,1.5313,1.5313,0.0,0.0,0.0,0.0,0.0,0.0,0.0,0.0,0.0,0.0,0.0,0.0,1.7378,2.0345,2.1681,2.1416,0.0,0.0,0.0,1.7378,0.0,0.0,0.0,0.0,0.0,1.5799,1.5799,0.0,0.0,0.0,0.0,0.0,0.0,0.0,0.0,0.0,0.0,0.0,0.0,0.0,0.0,0.0,0.0,0.0,1.9386,2.0097,1.8757,1.8385,1.8219,1.7623,1.7474,0.0,1.7474,1.7722,1.8065,1.8491,1.9202,1.9681,1.964,2.1641,2.2753,2.1702,2.2899,2.4837,2.7445,2.7402,2.7886,2.9879,3.0456,3.1326,3.2745,3.0771,2.9261,2.8753,2.99,3.0568,3.0568,3.0568,3.0539,3.0437,2.81,2.8144,3.0568,3.0568,3.0568,3.0655,3.305,3.424,0.0,3.4414,3.4414,3.4414,3.4414,3.4414,3.4414,3.4414,3.4414,3.4414,3.4414,3.2605,3.052,0.0,0.0,0.0,0.0,0.0,0.0,0.0,0.0,0.0,0.0,0.0,1.5313,1.5313,1.5313,0.0,0.0,0.0,0.0,0.0,0.0,0.0,0.0,0.0,0.0,0.0,0.0,0.0,1.6207,1.9971,2.0655,1.8485,1.6923,0.0,0.0,0.0,0.0,0.0,0.0,0.0,0.0,1.5697,1.5712,0.0,0.0,0.0,0.0,1.5799,1.5799,0.0,0.0,0.0,0.0,0.0,0.0,0.0,0.0,1.6501,1.6517,1.7187,0.0,1.7853,1.7757,1.7394,1.7142,0.0,1.7125,1.6933,1.7403,1.7355,1.7652,1.9069,1.9487,1.9932,2.0876,2.302,2.4224,2.3148,2.5135,2.7379,2.9264,2.9953,3.0093,2.9734,3.0807,3.1183,3.048,3.0959,3.0669,2.9247,3.006,3.0568,3.0568,3.0568,3.0103,2.9131,2.8536,2.9015,3.0568,3.0568,3.0568,3.0597,3.1206,3.2556,3.4414,3.4414,3.4414,3.4414,3.4414,3.4414,3.4414,3.4414,3.4414,3.4414,3.4414,3.3908,3.3115,0.0,0.0,0.0,0.0,0.0,0.0,0.0,0.0,0.0,0.0,0.0,0.0,0.0,0.0,0.0,0.0,0.0,0.0,0.0,0.0,0.0,0.0,0.0,0.0,0.0,0.0,0.0,0.0,0.0,1.9941,0.0,0.0,0.0,0.0,0.0,1.5566,1.5566,1.561,1.5668,1.5712,1.5712,0.0,0.0,0.0,0.0,0.0,1.5799,1.5799,0.0,1.5799,1.5799,1.5799,0.0,0.0,0.0,0.0,1.6313,1.6285,1.6712,1.6815,1.6866,1.705,1.6933,1.6866,1.7199,1.715,1.7075,1.7224,1.7369,1.7779,1.8806,1.9556,2.0606,2.237,2.4058,2.5101,2.4865,2.6531,2.8229,2.9592,3.0203,3.0362,2.9888,3.0705,3.0804,2.9697,3.0655,3.0872,2.9943,3.0321,3.0568,3.0568,3.0568,3.0248,2.9552,2.9552,2.99,3.0568,3.0568,3.0568,3.0568,3.0568,3.1337,3.2716,3.3891,3.4414,3.4414,3.4414,3.4414,3.4414,3.4414,3.4414,3.4414,3.4414,3.4128,3.3563,0.0,0.0,0.0,0.0,0.0,0.0,0.0,0.0,0.0,0.0,0.0,0.0,0.0,0.0,0.0,0.0,0.0,0.0,0.0,0.0,0.0,0.0,0.0,0.0,0.0,0.0,0.0,0.0,0.0,0.0,0.0,0.0,1.9068,0.0,0.0,1.5313,1.5313,1.5595,1.5654,1.558,1.5697,0.0,0.0,0.0,0.0,0.0,0.0,0.0,0.0,1.5799,1.5799,1.5799,1.5799,0.0,0.0,0.0,0.0,0.0,1.6517,1.6649,1.6696,1.6665,1.6921,1.7154,1.7154,1.7419,1.7592,1.7291,1.7653,1.8111,1.8367,1.9655,2.1316,2.3283,2.4734,2.5986,2.6981,2.7747,2.8539,2.9597,2.9813,2.9983,3.0182,3.0485,3.0409,2.9813,3.0263,3.0568,3.0568,3.0568,3.0568,3.0568,3.0568,3.0568,3.0568,3.0568,3.0568,3.0568,3.0568,3.0568,3.0582,3.0785,3.0974,3.1279,0.0,0.0,3.4414,3.4414,3.4414,3.4414,3.4414,3.4414,3.4414,3.4414,3.3839,3.3199,0.0,0.0,0.0,0.0,0.0,0.0,0.0,0.0,0.0,0.0,0.0,0.0,0.0,0.0,0.0,0.0,0.0,0.0,0.0,0.0,0.0,0.0,0.0,0.0,0.0,0.0,0.0,0.0,0.0,0.0,1.9101,1.9101,1.799,1.5972,0.0,1.5313,1.5313,1.5358,1.5418,1.5418,1.5448,0.0,0.0,0.0,0.0,0.0,0.0,0.0,0.0,1.5799,1.5799,1.5799,1.5799,0.0,0.0,0.0,0.0,0.0,1.6463,1.6886,1.7155,1.6985,1.7446,1.7925,1.7856,1.8203,1.848,1.8377,1.8264,1.8331,1.878,2.0395,2.1617,2.168,2.4729,2.7904,3.0243,2.9856,2.9735,3.0853,3.1147,3.1087,3.0704,3.0891,3.0851,3.0497,3.051,3.0568,3.0568,3.0568,3.0568,3.0568,3.0568,3.0568,3.0568,3.0568,3.0568,3.0568,3.0568,3.0568,3.0611,3.1714,3.2803,3.3848,0.0,3.4414,3.4414,3.4414,3.4414,3.4414,3.4414,3.4414,3.4414,3.4414,3.4278,3.4128,0.0,0.0,0.0,0.0,0.0,0.0,0.0,0.0,0.0,0.0,0.0,0.0,0.0,0.0,0.0,0.0,0.0,0.0,0.0,0.0,0.0,0.0,0.0,0.0,0.0,0.0,0.0,0.0,0.0,1.9812,2.1106,1.9754,1.8477,1.7359,0.0,1.6982,1.6329,1.641,1.6032,1.5418,0.0,0.0,0.0,0.0,0.0,0.0,0.0,0.0,0.0,0.0,1.5799,1.5799,1.5799,0.0,0.0,0.0,0.0,0.0,1.6301,1.6655,1.6936,1.6998,1.7844,1.8583,1.8141,1.8637,1.924,1.9466,1.9716,1.9862,1.9808,2.1045,2.2923,2.5572,2.7883,2.9633,3.0584,3.0499,3.0455,3.0709,3.0945,3.1099,3.0989,3.0881,3.0762,3.0628,3.0568,3.0568,3.0568,3.0568,3.0568,3.0568,3.0568,3.0568,3.0568,3.0568,3.0568,3.0568,3.0568,3.0756,3.109,3.1351,3.2295,3.3703,0.0,3.3964,3.4414,3.4414,3.4414,3.4414,3.4414,3.4414,3.4414,3.4414,3.4414,3.4264,0.0,0.0,0.0,0.0,0.0,0.0,0.0,0.0,0.0,0.0,0.0,0.0,0.0,0.0,0.0,0.0,0.0,0.0,0.0,0.0,0.0,0.0,0.0,0.0,0.0,0.0,1.9391,2.0001,2.0001,2.0698,2.1961,2.0016,1.9101,0.0,1.9101,1.839,1.7185,1.6998,1.6327,1.5403,0.0,0.0,0.0,0.0,0.0,0.0,0.0,0.0,0.0,0.0,0.0,0.0,0.0,0.0,0.0,1.5799,1.5799,1.5856,1.612,1.653,1.6865,1.6914,1.8113,1.923,1.8924,1.9698,2.0685,2.1308,2.1714,2.1808,2.1405,2.221,2.4428,2.8981,3.0324,3.0722,3.0533,3.0865,3.096,3.0645,3.0803,3.0941,3.1087,3.0895,3.0702,3.0628,3.0642,3.0642,3.0568,3.0568,3.0568,3.0568,3.0568,3.0568,3.0568,3.0568,3.0568,3.0568,3.0727,3.0974,3.1293,3.1264,3.1874,3.2977,3.3282,3.379,3.4414,3.4414,3.4414,3.4414,3.4414,3.4414,3.4414,3.4414,3.4414,3.4332,0.0,0.0,0.0,0.0,0.0,0.0,0.0,0.0,0.0,0.0,0.0,0.0,0.0,0.0,0.0,0.0,0.0,0.0,0.0,0.0,0.0,0.0,0.0,0.0,0.0,1.9014,2.0277,2.2627,2.2627,2.1497,1.9377,1.9188,1.9101,1.9101,1.9101,1.839,1.7127,1.5951,1.54,1.5313,1.5313,0.0,0.0,0.0,0.0,0.0,0.0,0.0,0.0,0.0,0.0,0.0,0.0,0.0,1.5799,1.5799,1.5799,1.5856,1.612,1.6901,1.7452,1.6791,1.8103,1.9822,2.0852,2.2167,2.3495,2.4559,2.4238,2.3808,2.3771,2.4348,2.5721,2.8531,2.9702,3.0518,3.127,3.1447,3.1462,3.1407,3.1334,3.1233,3.1132,3.1087,3.0955,3.0642,3.0702,3.0702,3.0628,3.0568,3.0568,3.0568,3.0568,3.0568,3.0568,3.0568,3.0568,3.0582,3.1177,3.1163,3.0698,3.2469,3.3006,3.2629,3.3804,3.4356,3.4414,3.4414,3.4414,3.4414,3.4414,3.4414,3.4414,3.4414,3.4414,3.4414,0.0,0.0,0.0,0.0,0.0,0.0,0.0,0.0,0.0,0.0,0.0,0.0,0.0,0.0,0.0,0.0,0.0,0.0,0.0,0.0,0.0,0.0,0.0,1.9101,1.9101,2.0669,2.1917,2.2888,2.1294,2.0059,1.9101,1.9101,0.0,0.0,1.9101,1.884,1.8361,1.7882,1.6764,1.5313,1.5313,1.5358,0.0,0.0,0.0,0.0,0.0,0.0,0.0,0.0,1.5799,1.5799,1.5799,1.5799,1.5799,1.5799,1.5799,1.5856,1.612,1.6933,1.7666,1.7562,1.8931,2.0454,2.1205,2.2998,2.4755,2.5595,2.6281,2.6613,2.6308,2.6545,2.7427,2.9268,3.0038,3.0769,3.1901,3.1754,3.1482,3.1482,3.1409,3.1234,3.1132,3.1014,3.0821,3.0642,3.0642,3.0642,3.0568,3.0568,3.0568,3.0568,3.0568,3.0568,3.0568,3.0568,3.0568,3.0582,3.1221,3.1613,3.1816,3.2542,3.2962,3.3137,3.3616,3.4051,3.4414,3.4414,3.4414,3.4414,3.4414,3.4414,3.4414,3.4414,3.4414,3.4414,0.0,0.0,0.0,0.0,0.0,0.0,0.0,0.0,0.0,0.0,0.0,0.0,0.0,0.0,0.0,0.0,0.0,0.0,0.0,0.0,0.0,0.0,0.0,1.9101,1.9101,2.0828,2.1685,2.1685,1.9957,1.9101,1.9101,0.0,0.0,0.0,1.9101,1.9101,1.9101,1.9101,1.7635,1.5327,1.5603,1.5561,0.0,0.0,0.0,0.0,0.0,0.0,0.0,0.0,1.5799,1.5799,1.5799,1.5799,1.5799,1.5799,1.5856,1.5983,1.6148,1.6988,1.7855,1.7952,1.9514,2.1341,2.2524,2.4362,2.6137,2.7313,2.8174,2.8636,2.8371,2.8249,2.8614,2.9892,3.0492,3.1122,3.1972,3.1739,3.1482,3.1482,3.1409,3.1292,3.119,3.1014,3.0821,3.0702,3.0642,3.0642,3.0568,3.0568,3.0568,3.0568,3.0568,3.0568,3.0568,3.0568,3.0785,3.1192,3.1627,3.1859,3.1917,3.2542,3.2948,3.3195,3.3587,3.4008,3.4414,3.4414,3.4414,3.4414,3.4414,3.4414,3.4414,3.4414,3.4414,3.4414,0.0,0.0,0.0,0.0,0.0,0.0,0.0,0.0,0.0,0.0,0.0,0.0,0.0,0.0,0.0,0.0,0.0,0.0,0.0,0.0,0.0,0.0,0.0,1.9101,1.9101,1.9101,1.9101,1.9101,1.9101,1.9101,1.9101,1.9101,0.0,0.0,1.9101,1.9101,1.9101,1.9101,1.765,1.5429,1.6288,1.6082,1.5313,0.0,0.0,0.0,0.0,0.0,0.0,0.0,1.5799,1.5799,1.5799,1.5799,1.5799,1.5799,1.5983,1.6203,1.6219,1.714,1.8049,1.7789,1.9792,2.2514,2.5209,2.6587,2.7893,3.0079,2.993,2.9527,2.9827,2.9227,2.907,3.02,3.0973,3.1411,3.1492,3.1482,3.1482,3.1482,3.1409,3.1278,3.1278,3.119,3.1014,3.0821,3.0821,3.0762,3.0628,3.0568,3.0568,3.0568,3.0568,3.0568,3.0568,3.0568,3.1221,3.2513,3.2513,3.1845,3.0669,3.26,3.3137,3.26,3.3862,3.4414,3.4414,3.4414,3.4414,3.4414,3.4414,3.4414,3.4414,3.4414,3.4414,3.4414,0.0,0.0,0.0,0.0,0.0,0.0,0.0,0.0,0.0,0.0,0.0,0.0,0.0,0.0,0.0,0.0,0.0,0.0,0.0,0.0,0.0,0.0,0.0,0.0,0.0,0.0,1.9101,1.9101,1.9101,1.9101,0.0,0.0,0.0,1.9101,0.0,0.0,1.9101,1.9101,1.8666,1.8033,1.8564,1.7525,1.5624,0.0,0.0,0.0,0.0,0.0,0.0,0.0,0.0,0.0,1.5799,1.5799,1.5799,1.5799,1.5983,1.6296,1.6846,1.788,1.9086,2.0049,2.1835,2.3967,2.6313,2.7077,2.808,3.0742,3.0709,3.0243,3.0514,3.0028,2.9769,3.0202,3.0548,3.097,3.1435,3.1482,3.1482,3.1482,3.1467,3.1409,3.1278,3.1292,3.1176,3.1014,3.1014,3.1014,3.0955,3.0955,3.0895,3.0762,3.0762,3.0702,3.0568,3.0568,3.0988,3.1816,3.1816,3.2092,3.2643,3.3674,3.379,3.3238,3.4051,3.4414,3.4414,3.4414,3.4414,3.4414,3.4414,3.4414,3.4414,3.4563,3.4631,3.4616,0.0,0.0,0.0,0.0,0.0,0.0,0.0,0.0,0.0,0.0,0.0,0.0,0.0,0.0,0.0,0.0,0.0,0.0,0.0,0.0,0.0,0.0,0.0,0.0,0.0,1.9101,1.9101,0.0,0.0,0.0,0.0,0.0,0.0,1.9101,0.0,1.9101,1.9101,1.9101,1.9101,1.9101,1.9347,1.8214,1.6334,0.0,0.0,0.0,0.0,0.0,0.0,0.0,0.0,0.0,1.5799,1.5799,1.5827,1.5926,1.6163,1.6487,1.7031,1.8242,1.9722,2.118,2.2996,2.5094,2.7561,2.8787,3.0079,3.2431,3.1924,3.1275,3.1963,3.1166,3.0566,3.0997,3.118,3.1328,3.148,3.1482,3.1482,3.1482,3.1482,3.1467,3.1409,3.1351,3.1292,3.119,3.1073,3.1014,3.1087,3.1264,3.1219,3.091,3.113,3.107,3.0702,3.0702,3.0962,3.1526,3.1526,3.2208,3.3485,3.3862,3.3819,3.3499,3.4138,3.4414,3.4414,3.4414,3.4414,3.4414,3.4414,3.4414,3.4414,3.4631,3.4698,3.4698,0.0,0.0,0.0,0.0,0.0,0.0,0.0,0.0,0.0,0.0,1.9101,0.0,0.0,0.0,0.0,0.0,0.0,0.0,0.0,0.0,0.0,0.0,0.0,0.0,0.0,0.0,0.0,0.0,0.0,0.0,0.0,0.0,1.9101,1.9101,0.0,1.9101,1.9101,1.9101,1.9101,1.9101,1.9101,1.8419,1.7374,1.7548,0.0,0.0,0.0,0.0,0.0,0.0,0.0,0.0,1.5799,1.5844,1.5931,1.6123,1.646,1.6865,1.7085,1.8451,2.0163,2.1715,2.3918,2.6402,2.9102,3.1355,3.3226,3.4435,3.3334,3.253,3.3792,3.249,3.144,3.2198,3.2342,3.212,3.1582,3.1482,3.1482,3.1482,3.1482,3.1482,3.1482,3.1409,3.1351,3.1351,3.1058,3.0955,3.1132,3.1573,3.1586,3.125,3.1708,3.1602,3.0924,3.085,3.1083,3.1526,3.1526,3.2271,3.3536,3.3536,3.3565,3.3652,3.4234,3.4414,3.4414,3.4414,3.4414,3.4414,3.4414,3.4414,3.4481,3.4698,3.4765,3.4765,0.0,0.0,0.0,0.0,0.0,0.0,0.0,0.0,0.0,0.0,0.0,0.0,0.0,0.0,0.0,0.0,0.0,0.0,0.0,0.0,0.0,0.0,0.0,0.0,0.0,0.0,0.0,0.0,0.0,0.0,0.0,0.0,0.0,1.9101,0.0,1.9101,1.9101,1.9101,1.9101,1.9101,1.9101,1.8941,1.8731,1.9078,1.7739,0.0,0.0,0.0,0.0,0.0,0.0,0.0,1.577,1.6129,1.6428,1.6006,1.7003,1.8279,1.8378,1.9854,2.1814,2.3884,2.733,3.0526,3.1719,3.3243,3.4187,3.3342,3.373,3.4055,3.3515,3.3013,3.2482,3.1807,3.1697,3.164,3.1539,3.1482,3.1482,3.1482,3.1482,3.1482,3.1482,3.1467,3.1467,3.1467,3.1409,3.1351,3.1424,3.1499,3.1693,3.202,3.1634,3.1545,3.1735,3.1249,3.1337,3.1909,3.1909,3.2585,3.3912,3.3703,3.3915,3.4441,3.4677,3.475,3.4631,3.4631,3.4683,3.4802,3.4683,3.4683,3.4802,3.5016,3.5082,3.5096,0.0,0.0,0.0,0.0,0.0,0.0,0.0,0.0,0.0,0.0,0.0,0.0,0.0,0.0,0.0,0.0,0.0,0.0,0.0,0.0,0.0,0.0,0.0,0.0,0.0,0.0,0.0,0.0,0.0,0.0,0.0,0.0,0.0,1.9101,0.0,1.9101,1.9101,1.9101,1.9101,1.9101,1.9101,1.9101,1.9139,1.9325,1.8244,1.6546,1.6009,0.0,0.0,0.0,0.0,0.0,0.0,0.0,1.6682,1.6516,1.7422,1.8451,1.8454,1.9719,2.1782,2.4877,2.839,3.1371,3.2448,3.3557,3.4253,3.3822,3.394,3.3885,3.3303,3.2772,3.2201,3.1582,3.1482,3.1482,3.1482,3.1482,3.1347,3.1076,3.1046,3.1046,3.1046,3.1046,3.118,3.1452,3.1409,3.126,3.1061,3.1287,3.1424,3.1453,3.1424,3.1499,3.1649,3.1338,3.1294,3.1589,3.1589,3.2328,3.3676,3.4089,3.4479,3.4817,3.4868,3.4868,3.4817,3.4817,3.4802,3.4868,3.4817,3.4802,3.4935,3.5148,3.5213,3.5213,0.0,0.0,0.0,0.0,0.0,0.0,0.0,0.0,0.0,0.0,0.0,0.0,0.0,0.0,0.0,0.0,0.0,0.0,0.0,0.0,0.0,0.0,0.0,0.0,0.0,0.0,0.0,0.0,0.0,0.0,0.0,0.0,0.0,1.9101,0.0,1.9101,1.9101,1.9101,1.9101,1.9101,1.9101,1.9101,1.9101,1.9101,1.8556,1.7625,1.6545,1.6099,1.6009,1.598,0.0,0.0,0.0,0.0,1.7088,1.7228,1.7869,1.8517,1.8403,1.9609,2.1758,2.5454,2.8373,3.0709,3.2166,3.3077,3.3806,3.4551,3.4054,3.3459,3.3355,3.2516,3.1739,3.1697,3.1582,3.1482,3.1482,3.1482,3.1285,3.0582,3.0507,3.0462,3.0357,3.0342,3.0582,3.115,3.1081,3.0827,3.0372,3.0768,3.0857,3.0522,3.0956,3.1243,3.1336,3.1232,3.1174,3.119,3.1309,3.2049,3.3374,3.4357,3.4898,3.4935,3.5001,3.5001,3.4935,3.4935,3.5001,3.5001,3.5001,3.5001,3.5001,3.5213,3.5228,3.5294,0.0,0.0,0.0,0.0,0.0,0.0,0.0,0.0,0.0,0.0,1.9101,0.0,0.0,0.0,0.0,0.0,0.0,0.0,1.6522,0.0,0.0,1.685,1.6837,0.0,0.0,0.0,0.0,0.0,0.0,0.0,0.0,0.0,0.0,1.9101,0.0,0.0,1.9101,1.9101,1.9101,1.9101,1.9101,1.9101,1.9101,1.9101,0.0,1.876,1.7998,1.7695,1.7655,1.7415,1.7347,0.0,0.0,0.0,1.8328,1.7792,1.8748,1.9875,1.9625,2.1486,2.4067,2.6535,2.8357,2.9947,3.1437,3.2315,3.3044,3.3789,3.4341,3.4529,3.4084,3.3423,3.2841,3.2342,3.1853,3.1482,3.1482,3.1482,3.1285,3.0582,3.0507,3.0298,2.9759,2.9699,2.9744,2.9834,2.9834,2.9804,2.9699,2.9789,3.0043,3.0492,3.0073,3.0387,3.1467,3.0884,3.0884,3.1424,3.2064,3.2721,3.3529,3.42,3.4793,3.5148,3.5359,3.5294,3.5148,3.5148,3.5294,3.5424,3.5213,3.5294,3.5439,3.5439,3.5439,3.5439,0.0,0.0,0.0,0.0,0.0,0.0,0.0,0.0,0.0,0.0,0.0,1.8745,0.0,0.0,0.0,1.6637,1.7407,1.753,1.6552,1.6522,1.6921,1.7921,1.7974,1.7854,1.7652,0.0,0.0,0.0,0.0,0.0,0.0,1.9101,1.9101,0.0,0.0,0.0,0.0,1.9101,1.9139,1.9213,1.9139,1.9176,1.9302,0.0,0.0,0.0,0.0,0.0,1.7617,1.7556,1.7548,1.7673,1.8045,0.0,0.0,0.0,1.9045,1.9989,2.0285,2.194,2.3983,2.5476,2.733,2.9218,3.0675,3.1239,3.1785,3.2945,3.3241,3.3209,3.309,3.2909,3.2338,3.1019,3.0885,3.0836,3.0492,3.0447,3.0193,2.952,2.9445,2.9325,2.9056,2.9026,2.919,2.9549,2.9579,2.943,2.9056,2.9026,2.916,2.943,2.9175,2.9654,3.0941,3.0657,3.0851,3.1482,3.1824,3.2497,3.3499,3.3799,3.4439,3.5359,3.5439,3.5439,3.5359,3.5359,3.5439,3.5504,3.5424,3.5439,3.5504,3.5504,3.5504,3.5504,0.0,0.0,0.0,0.0,0.0,0.0,0.0,0.0,0.0,0.0,0.0,0.0,0.0,0.0,0.0,0.0,1.7693,1.7854,1.6423,1.6306,1.6964,1.8369,1.8461,1.8054,1.716,0.0,0.0,0.0,0.0,0.0,1.9101,1.9101,1.9101,0.0,1.9101,1.9101,0.0,0.0,0.0,1.9302,1.9228,1.9302,0.0,0.0,0.0,0.0,0.0,0.0,1.7915,1.8017,1.8085,1.8193,1.8649,1.8852,0.0,0.0,0.0,1.996,2.0545,2.1665,2.2866,2.3736,2.5589,2.7569,2.9046,2.9566,3.0046,3.1321,3.1368,3.1255,3.1402,3.1696,3.1443,3.0038,3.0063,3.0103,2.9639,2.9579,2.934,2.8682,2.8607,2.8532,2.8353,2.8338,2.8472,2.8786,2.8816,2.8607,2.8113,2.8083,2.8173,2.8338,2.8338,2.8876,3.0013,3.0342,3.0761,3.127,3.1392,3.2213,3.3499,3.3499,3.4233,3.5504,3.5504,3.5504,3.5504,3.5504,3.5504,3.5504,3.5504,3.5504,3.5504,3.5504,3.5504,3.5504,0.0,0.0,0.0,0.0,0.0,0.0,0.0,0.0,0.0,0.0,0.0,0.0,0.0,1.7188,1.6132,1.6479,1.6595,1.6423,1.5881,1.5836,1.6088,1.6595,1.6637,0.0,1.8936,0.0,0.0,0.0,0.0,0.0,1.9101,1.9101,1.9101,1.9101,1.9101,1.9101,1.9101,0.0,0.0,0.0,0.0,1.9465,0.0,0.0,0.0,0.0,0.0,0.0,0.0,1.9471,1.9543,1.9585,1.963,1.963,1.963,0.0,0.0,0.0,2.0376,2.066,2.1102,2.1763,2.285,2.4204,2.6033,2.6965,2.7699,2.8478,2.8796,2.9044,2.9198,2.9949,3.0464,3.0387,2.994,2.9624,2.9579,2.9579,2.934,2.8682,2.8607,2.8353,2.7679,2.7619,2.738,2.6797,2.6752,2.6737,2.6692,2.6692,2.6976,2.7655,2.7619,2.7979,2.8697,2.9894,3.0522,3.0567,3.1225,3.2213,3.3499,3.3499,3.4233,3.5504,3.5504,3.5504,3.5504,3.5504,3.5504,3.5504,3.5504,3.5504,3.5504,3.5504,3.5504,3.5504,0.0,0.0,0.0,0.0,0.0,0.0,0.0,0.0,0.0,0.0,0.0,0.0,0.0,1.7394,1.6219,1.6044,1.6057,1.6088,1.6262,1.6262,1.6306,1.6479,1.6522,1.6795,1.7407,1.7935,0.0,0.0,0.0,1.9101,1.9101,1.9101,1.9101,1.9101,1.9101,1.9101,1.9101,1.9101,0.0,0.0,0.0,0.0,0.0,0.0,0.0,0.0,0.0,1.9501,1.9413,1.9574,1.9523,1.9487,0.0,1.9647,1.9632,1.969,1.9995,2.0326,2.0292,2.0545,2.0893,2.1245,2.1886,2.2913,2.4778,2.5198,2.5575,2.6951,2.6903,2.6753,2.7281,2.8325,2.8993,2.8657,2.8432,2.8143,2.7724,2.7664,2.7425,2.6752,2.7051,2.7215,2.6961,2.732,2.7305,2.6632,2.6587,2.6587,2.6587,2.6587,2.6901,2.7595,2.7625,2.7904,2.8592,2.9864,3.0507,3.0507,3.121,3.2003,3.2886,3.3305,3.3993,3.4861,3.531,3.5504,3.5504,3.5504,3.5504,3.5504,3.5504,3.5504,3.5504,3.5504,3.5504,3.5504,0.0,0.0,0.0,0.0,0.0,0.0,0.0,0.0,0.0,0.0,0.0,0.0,0.0,0.0,1.6993,1.6088,1.6044,1.6175,1.6479,1.6522,1.6765,1.7366,1.7366,1.7366,1.7366,0.0,0.0,0.0,0.0,0.0,0.0,1.9101,1.9101,1.9101,1.9101,1.9101,0.0,0.0,0.0,1.9101,0.0,0.0,1.9647,0.0,0.0,1.9647,1.9611,1.9538,1.9435,1.9596,1.9632,1.9603,0.0,0.0,1.9632,1.969,1.9925,2.017,2.005,2.0239,2.0512,2.0795,2.1071,2.1664,2.3227,2.3401,2.3642,2.4936,2.4744,2.4544,2.5222,2.5797,2.6321,2.6864,2.6916,2.6752,2.6318,2.6258,2.6093,2.5659,2.5989,2.6258,2.6258,2.6662,2.6632,2.5974,2.5929,2.6033,2.6243,2.6258,2.6662,2.7595,2.7625,2.7784,2.8248,2.9549,3.0193,3.0208,3.1106,3.2003,3.2856,3.3305,3.3978,3.4846,3.531,3.5504,3.5504,3.5504,3.5504,3.5504,3.5504,3.5504,3.5504,3.5504,3.5504,3.5504,0.0,0.0,0.0,0.0,0.0,0.0,0.0,0.0,0.0,0.0,0.0,0.0,0.0,0.0,0.0,1.671,1.6522,1.6522,1.6522,1.6552,1.7325,1.9026,1.9101,1.9101,1.9101,0.0,0.0,0.0,0.0,0.0,0.0,0.0,1.9101,1.9101,1.9101,1.9101,1.9101,0.0,1.9101,1.9139,1.9265,1.9472,1.969,1.9647,1.9632,1.969,1.9647,1.9632,1.969,1.969,1.9909,2.0104,0.0,0.0,0.0,0.0,1.969,1.969,0.0,0.0,0.0,2.0273,2.0292,2.0379,2.1103,2.1534,2.1895,2.2263,2.2327,2.2463,2.3141,2.2404,2.2532,2.5076,2.5525,2.5555,2.5555,2.5555,2.554,2.5525,2.554,2.5555,2.557,2.56,2.533,2.4627,2.4582,2.4866,2.5555,2.5615,2.6243,2.758,2.7625,2.7625,2.7625,2.8906,2.9579,2.9594,3.0911,3.2213,3.3469,3.3484,3.4218,3.5474,3.5489,3.5504,3.5504,3.5504,3.5504,3.5504,3.5504,3.5504,3.5504,3.5504,3.5504,3.5504,0.0,0.0,0.0,0.0,0.0,0.0,0.0,0.0,0.0,0.0,0.0,0.0,0.0,0.0,0.0,1.8408,1.7242,1.6522,1.6522,1.768,1.8616,1.9064,1.9101,1.9101,1.9101,0.0,0.0,0.0,0.0,0.0,0.0,0.0,0.0,0.0,1.9101,1.9101,1.9101,1.9101,1.9288,1.9545,1.9487,1.9487,1.956,1.9632,1.969,1.969,1.969,1.9669,1.9647,1.969,1.9639,1.9617,1.9632,0.0,0.0,0.0,0.0,1.969,1.969,0.0,0.0,0.0,0.0,0.0,2.0811,2.1003,2.1171,2.1471,2.1507,2.1658,2.2052,2.1894,2.1934,2.2652,2.355,2.4148,2.4148,2.4148,2.3984,2.3535,2.3879,2.4343,2.4852,2.533,2.533,2.4627,2.4582,2.4657,2.4896,2.5809,2.6707,2.7595,2.7625,2.7625,2.7625,2.8906,2.9579,2.9594,3.0911,3.1973,3.2796,3.3275,3.3963,3.4786,3.5295,3.5504,3.5504,3.5504,3.5504,3.5504,3.5504,3.5504,3.5504,3.5504,3.5504,3.5504,0.0,0.0,0.0,0.0,0.0,0.0,0.0,0.0,0.0,0.0,0.0,0.0,0.0,0.0,0.0,1.9101,1.8173,1.7571,1.7571,1.8539,1.9101,1.9101,1.9101,1.9101,1.9101,0.0,0.0,0.0,0.0,0.0,0.0,0.0,0.0,0.0,0.0,0.0,0.0,1.9362,1.9398,1.9472,1.956,1.9762,2.0045,1.9889,1.9995,2.017,2.01,2.0178,2.0267,2.0192,1.996,1.9782,2.001,0.0,0.0,0.0,0.0,0.0,1.969,1.969,1.9747,1.9945,0.0,0.0,2.0462,2.0444,2.0416,2.0716,2.0666,2.0622,2.082,2.0857,2.0946,2.1246,2.1919,2.2488,2.2772,2.2802,2.2772,2.2724,2.2996,2.3475,2.4133,2.4552,2.4612,2.4223,2.4193,2.4313,2.4567,2.5869,2.6767,2.7156,2.7475,2.7625,2.7625,2.8637,2.931,2.9594,3.0612,3.1599,3.2542,3.32,3.3709,3.4128,3.5085,3.534,3.51,3.5385,3.5504,3.5504,3.5504,3.5504,3.5504,3.5504,3.5504,3.5504,0.0,0.0,0.0,0.0,0.0,0.0,0.0,0.0,0.0,0.0,0.0,0.0,0.0,0.0,0.0,0.0,1.9101,1.9101,1.9101,1.9101,1.9101,1.9101,1.9101,1.9101,1.9101,0.0,0.0,0.0,0.0,0.0,0.0,0.0,0.0,0.0,0.0,0.0,0.0,1.969,1.9493,1.9213,1.9545,2.01,2.0613,2.0204,2.0308,2.0646,2.053,2.0733,2.106,2.0866,2.0579,2.0326,2.0679,2.0342,0.0,0.0,1.9903,0.0,0.0,0.0,0.0,1.9809,1.9854,0.0,2.0115,2.0005,1.9908,2.01,1.9945,1.9747,1.9726,1.969,1.9884,2.0498,2.0602,2.0827,2.1485,2.159,2.1799,2.2398,2.2499,2.2697,2.3325,2.3385,2.3415,2.349,2.3565,2.3894,2.4552,2.5734,2.6437,2.6587,2.7156,2.755,2.7625,2.8248,2.8936,2.9594,3.0208,3.121,3.2542,3.3125,3.3425,3.3559,3.4756,3.4981,3.4532,3.513,3.5429,3.5504,3.5504,3.5504,3.5504,3.5504,3.5504,3.5504,0.0,0.0,0.0,0.0,0.0,0.0,0.0,0.0,0.0,0.0,0.0,0.0,0.0,0.0,0.0,0.0,0.0,1.9101,1.9101,1.9101,1.9101,1.9101,1.9101,1.9101,1.9101,1.9101,0.0,0.0,0.0,0.0,0.0,0.0,0.0,0.0,0.0,0.0,0.0,1.969,1.9639,1.9581,1.969,1.9797,1.9889,1.9818,1.9818,1.9925,1.9889,2.0106,2.0428,2.0693,2.0761,2.0679,2.0794,2.0695,2.0689,2.1302,2.1182,0.0,0.0,0.0,0.0,2.0647,2.0917,0.0,2.0038,2.037,2.0706,1.9959,1.9945,2.0015,1.9747,1.969,1.9735,1.9869,1.9884,2.0124,2.0812,2.0917,2.0946,2.1081,2.1096,2.135,2.2009,2.2069,2.2278,2.2858,2.3325,2.3894,2.4552,2.4821,2.5495,2.6557,2.6722,2.7036,2.756,2.8248,2.8936,2.9594,3.0208,3.121,3.2512,3.2647,3.2991,3.3499,3.3784,3.4113,3.4487,3.4622,3.4996,3.5504,3.5504,3.5504,3.5504,3.5504,3.5504,3.5504,0.0,0.0,0.0,0.0,0.0,0.0,0.0,0.0,0.0,0.0,0.0,0.0,0.0,0.0,0.0,0.0,0.0,0.0,0.0,0.0,1.9101,1.9101,1.9101,1.9101,1.9101,1.9101,1.9101,0.0,0.0,0.0,0.0,0.0,0.0,0.0,0.0,0.0,0.0,1.969,1.9833,2.003,1.9782,1.998,2.0395,2.0308,2.0462,2.0731,2.0731,2.0878,2.1055,2.1406,2.1567,2.1535,2.1167,2.1148,2.1363,2.1777,2.1717,2.1615,2.2167,2.2141,2.1849,2.1315,2.1201,0.0,0.0,2.0315,2.0425,2.022,2.0059,1.998,2.0175,2.0198,2.0094,1.9735,1.9974,2.0198,2.0198,2.0198,2.0333,2.0677,2.0722,2.0976,2.1635,2.1695,2.1829,2.2158,2.2772,2.3295,2.364,2.4268,2.5076,2.6078,2.6422,2.6901,2.761,2.7919,2.8427,2.9101,2.9744,3.0552,3.1539,3.2213,3.2512,3.2557,3.3215,3.3679,3.4008,3.4337,3.4891,3.5504,3.5504,3.5504,3.5504,3.5504,3.5504,3.5504,1.9101,0.0,0.0,0.0,0.0,0.0,0.0,0.0,0.0,0.0,0.0,0.0,0.0,0.0,0.0,0.0,0.0,0.0,0.0,0.0,1.9101,1.9101,1.9101,1.9101,1.9101,1.9101,1.9101,0.0,0.0,0.0,0.0,0.0,0.0,0.0,0.0,0.0,0.0,1.9889,2.0135,2.0376,2.003,2.0361,2.1023,2.0844,2.1135,2.1601,2.1678,2.1691,2.1777,2.2264,2.246,2.2411,2.1955,2.2004,2.2253,2.2479,2.2426,2.2378,2.2705,2.2816,2.2601,2.1858,2.1458,2.1091,0.0,0.0,0.0,2.0423,2.0079,1.9854,2.0423,2.0513,2.0333,1.9779,2.0258,2.0483,1.9779,1.9794,2.0094,2.0647,2.0602,2.0782,2.144,2.1515,2.1515,2.1515,2.2233,2.2724,2.2724,2.3789,2.4792,2.5585,2.6123,2.6782,2.761,2.7625,2.7919,2.8607,2.9265,2.9909,3.0552,3.1764,3.2033,3.1541,3.2662,3.326,3.3529,3.4068,3.4771,3.5504,3.5504,3.5504,3.5504,3.5504,3.5504,3.5504,1.9101,1.9101,0.0,0.0,0.0,0.0,0.0,0.0,0.0,0.0,0.0,0.0,0.0,0.0,0.0,0.0,0.0,0.0,1.9101,0.0,0.0,1.9101,1.9101,1.9101,1.9101,1.9101,1.9101,1.9101,0.0,0.0,0.0,0.0,0.0,0.0,2.0376,0.0,1.9747,2.0581,2.073,2.041,2.0579,2.0761,2.0827,2.0794,2.086,2.0958,2.1246,2.134,2.1516,2.2486,2.2828,2.2927,2.3505,2.3704,2.3902,2.4562,2.4484,2.4241,2.4515,2.4587,2.4147,2.2203,2.2358,2.2447,2.0309,0.0,2.0453,1.9914,0.0,1.9705,1.9794,0.0,0.0,1.969,2.0258,2.0483,1.9779,2.0213,2.0617,2.0707,2.0183,2.0079,2.0752,2.0827,2.0827,2.0827,2.1979,2.2724,2.2724,2.3325,2.4298,2.557,2.5674,2.6318,2.761,2.7625,2.7919,2.8607,2.9265,2.9909,3.0537,3.13,3.1541,3.1482,3.1631,3.2422,3.3499,3.3574,3.4352,3.5504,3.5504,3.5504,3.5504,3.5504,3.5504,3.5504,1.9101,1.9101,0.0,0.0,0.0,0.0,0.0,0.0,0.0,0.0,0.0,0.0,0.0,0.0,0.0,0.0,0.0,2.0698,1.9203,0.0,0.0,1.9101,1.9101,1.9101,1.9101,1.9101,1.9101,1.9101,1.9325,0.0,0.0,0.0,0.0,0.0,2.0224,2.0154,1.9762,2.0311,2.0681,2.0795,2.0778,2.1039,2.1355,2.1151,2.1198,2.1435,2.2031,2.221,2.2356,0.0,2.3818,0.0,0.0,2.4299,2.4696,2.5011,2.499,2.4912,2.5174,2.5237,2.4844,0.0,0.0,0.0,2.0655,0.0,2.0154,2.0258,0.0,0.0,0.0,0.0,0.0,0.0,2.0258,2.0483,1.9779,1.9929,2.0124,2.0124,2.0213,2.0393,2.0692,2.0348,2.0124,2.0124,2.135,2.2113,2.2113,2.3056,2.4044,2.5016,2.542,2.6063,2.6991,2.743,2.7919,2.8607,2.9265,2.9909,3.0522,3.121,3.1482,3.1482,3.1482,3.2063,3.2961,3.3335,3.4115,3.5048,3.5439,3.5589,3.5589,3.5589,3.5653,3.5797,1.9101,0.0,0.0,0.0,0.0,0.0,0.0,0.0,0.0,0.0,0.0,0.0,1.9145,1.9725,2.0146,2.0146,2.1178,2.1048,1.9217,1.9101,1.9101,1.9101,1.9101,1.9101,1.9101,1.9213,1.925,1.925,0.0,0.0,0.0,0.0,0.0,0.0,0.0,2.012,1.9762,2.0581,2.1079,2.1308,2.1359,2.1534,2.1751,2.1526,2.1702,2.2162,2.2708,2.3023,2.3305,2.405,2.4663,0.0,2.4713,2.4978,2.5408,2.5408,2.5408,2.5403,2.5484,0.0,0.0,0.0,0.0,0.0,0.0,0.0,0.0,0.0,2.0602,0.0,0.0,0.0,0.0,0.0,0.0,2.0677,1.9809,1.9854,2.0034,2.0213,2.0677,2.0917,2.0737,2.0094,1.9765,1.9944,2.1036,2.1695,2.1695,2.2906,2.3924,2.4567,2.527,2.5929,2.6572,2.7245,2.7919,2.8607,2.9265,2.9909,3.0522,3.121,3.1482,3.1482,3.1482,3.2003,3.2826,3.3366,3.4102,3.5024,3.557,3.5816,3.5816,3.5831,3.5894,3.5973,1.9101,1.9101,0.0,0.0,0.0,0.0,0.0,0.0,0.0,0.0,2.1714,2.0465,1.9232,2.128,2.2772,2.2772,2.0611,1.9188,1.9101,1.9101,1.9101,1.9101,1.9101,1.9101,1.9101,1.9457,1.969,1.969,0.0,0.0,0.0,0.0,0.0,0.0,2.0444,2.0376,1.9827,2.194,2.2458,2.1945,2.259,2.2427,2.1797,2.1797,2.2228,2.2857,2.2891,0.0,0.0,2.4829,2.5094,0.0,0.0,0.0,0.0,0.0,0.0,0.0,0.0,0.0,0.0,2.3764,0.0,0.0,0.0,0.0,2.2218,0.0,0.0,0.0,0.0,0.0,0.0,0.0,0.0,0.0,0.0,2.0258,2.0917,2.156,2.165,2.141,2.0782,2.0094,1.9959,2.0632,2.1321,2.1695,2.1695,2.2906,2.3924,2.4567,2.527,2.5929,2.6572,2.7245,2.7919,2.8607,2.9265,2.9909,3.0522,3.121,3.1482,3.1482,3.1482,3.2273,3.3469,3.3683,3.4512,3.5657,3.5894,3.6085,3.6148,3.6037,3.5973,3.5973,0.0,0.0,0.0,1.9101,1.9101,1.929,1.9885,2.0335,2.1407,2.3668,2.3875,2.3671,2.3231,2.3023,2.3754,2.5853,2.3585,2.2073,2.2073,2.1796,2.1599,2.1599,2.0235,1.9347,1.9101,1.9493,1.969,1.969,0.0,0.0,0.0,0.0,0.0,0.0,0.0,2.0942,2.1613,2.1665,2.2313,2.329,2.3209,2.3189,2.3189,2.2708,2.2675,2.3023,2.4,2.453,0.0,2.559,2.5839,2.5889,2.6137,2.622,2.622,2.622,2.622,2.6168,0.0,0.0,2.5878,2.4478,0.0,0.0,0.0,0.0,0.0,0.0,0.0,0.0,0.0,0.0,0.0,0.0,0.0,0.0,0.0,2.0288,2.0632,2.0393,2.0363,2.0453,2.0692,2.0094,1.9779,2.0019,2.1066,2.1695,2.1695,2.2906,2.3699,2.3939,2.5031,2.5719,2.5944,2.7021,2.7919,2.8607,2.9265,2.9909,3.0522,3.121,3.1482,3.1539,3.167,3.2223,3.3081,3.3698,3.4501,3.5353,3.5415,3.5829,3.6352,3.6211,3.6226,3.6352,1.9101,1.9101,1.9101,1.9101,1.9478,1.9928,2.0349,2.116,2.2352,2.4126,2.5277,2.5819,2.5568,2.4611,2.4952,2.7395,2.6004,2.4612,2.3655,2.3304,2.3053,2.2902,2.175,2.0965,0.0,2.0965,0.0,0.0,0.0,2.0602,0.0,0.0,0.0,0.0,0.0,2.1077,2.1984,2.2264,2.3309,2.4729,2.4166,2.3951,2.3984,2.3768,2.3686,2.3818,0.0,2.5276,2.5574,2.6054,2.622,2.622,2.622,2.622,2.622,2.622,2.622,2.622,2.622,2.622,0.0,2.5131,2.4692,0.0,2.313,0.0,2.3394,0.0,0.0,0.0,0.0,0.0,0.0,0.0,0.0,0.0,0.0,2.0064,2.0183,1.9735,1.9899,2.0228,2.0677,2.0094,1.9794,2.0034,2.0857,2.1455,2.168,2.2697,2.337,2.3595,2.4687,2.5375,2.5615,2.6677,2.7679,2.8607,2.9265,2.9909,3.0537,3.1282,3.1597,3.1597,3.1784,3.2276,3.2942,3.3771,3.4546,3.5217,3.5539,3.603,3.6461,3.6075,3.6214,3.6492,1.9101,1.9101,1.9145,1.9275,2.0233,2.0886,2.0538,2.2586,2.4156,2.4214,2.5888,2.6831,2.6213,2.6154,2.6549,2.755,2.766,2.6594,2.3969,2.3626,2.3436,2.3068,2.3392,2.3595,2.3595,0.0,0.0,0.0,0.0,0.0,0.0,0.0,0.0,0.0,2.1671,2.105,2.1163,2.362,2.5259,2.6154,2.5441,2.4746,2.4199,2.4895,2.516,2.516,2.516,2.5607,2.622,2.622,2.622,2.622,2.622,2.622,2.622,2.622,2.622,2.622,2.622,2.622,2.6079,2.5631,2.5503,0.0,0.0,0.0,2.506,0.0,0.0,0.0,0.0,0.0,0.0,0.0,0.0,0.0,0.0,1.9779,1.9794,1.9824,2.0363,2.0669,2.0662,2.0064,1.9959,2.0617,2.0722,2.1036,2.1665,2.2338,2.2996,2.358,2.4298,2.4971,2.56,2.6303,2.7275,2.8562,2.925,2.9894,3.0477,3.1396,3.1799,3.1841,3.194,3.2391,3.3148,3.389,3.4621,3.5309,3.6137,3.6445,3.6368,3.5753,3.5938,3.6492,1.9101,1.9101,1.9711,2.1584,2.1423,2.1133,2.1525,2.3391,2.4972,2.5579,2.701,2.8149,2.8622,2.8217,2.8025,2.8319,2.8559,2.8122,2.6684,2.4397,2.3752,2.5269,2.4214,2.3595,2.3595,2.4863,2.4902,2.3595,0.0,0.0,2.2607,0.0,0.0,0.0,0.0,2.4523,2.4015,2.4133,2.4961,2.6187,2.6005,2.5806,2.5673,0.0,2.5938,2.5938,2.5938,2.6054,2.622,2.622,2.622,2.622,2.622,2.622,2.622,2.622,2.622,2.622,2.622,2.622,2.6168,2.6043,2.5775,2.5416,0.0,0.0,0.0,0.0,0.0,0.0,0.0,0.0,0.0,0.0,0.0,0.0,0.0,2.1093,2.1272,2.1844,2.1108,2.0385,2.0004,1.9794,1.975,1.9929,2.0887,2.1515,2.168,2.2757,2.343,2.3595,2.4747,2.5435,2.5615,2.6752,2.755,2.7844,2.917,2.9801,2.9997,3.1354,3.194,3.194,3.2094,3.2806,3.3905,3.4266,3.5093,3.6122,3.5861,3.5753,3.5784,3.6107,3.6338,3.6492,1.9101,2.0016,2.1193,2.2642,2.2294,2.2308,2.3831,2.4088,2.4686,2.6333,2.8005,2.9157,2.9379,2.9837,2.999,2.9735,2.9468,2.9074,2.8511,2.7039,2.6788,2.8015,2.5926,2.4744,2.4744,2.568,0.0,2.3595,0.0,0.0,2.3595,0.0,0.0,0.0,2.622,2.5988,2.5557,2.5143,2.5458,2.622,2.622,2.6402,0.0,2.6667,2.6882,2.7164,2.7164,2.675,2.622,2.622,2.6419,2.6667,2.6667,2.6899,2.7164,2.7164,2.7164,2.7164,2.7164,2.7164,2.7164,2.7164,2.6965,2.6782,2.6782,2.6726,2.6526,0.0,2.5774,2.5383,0.0,0.0,0.0,0.0,0.0,0.0,0.0,2.1655,2.1749,2.2203,2.155,2.0795,2.0198,1.9854,1.969,1.969,2.0932,2.1695,2.1695,2.2906,2.3595,2.3595,2.5181,2.5899,2.5615,2.7215,2.7925,2.769,2.9132,2.9818,2.9932,3.143,3.2094,3.2094,3.2247,3.2885,3.3897,3.4337,3.5091,3.6045,3.5953,3.5922,3.5968,3.6353,3.6492,3.6492,1.9609,2.1685,2.3395,2.3395,2.3395,2.419,2.6601,2.5137,2.4521,2.6549,2.8919,3.0177,2.9527,3.0974,3.1838,3.1451,3.0555,2.9964,2.9915,3.0281,3.0526,3.0526,2.776,2.622,2.622,2.622,2.5476,0.0,0.0,0.0,0.0,0.0,0.0,0.0,2.622,2.622,2.622,2.6203,2.6203,2.622,2.6319,2.6753,2.7354,2.7417,2.7864,2.845,2.845,2.7549,2.6369,2.6468,2.6849,2.7334,2.7417,2.7898,2.8412,2.8412,2.8412,2.8412,2.8412,2.8412,2.8412,2.8412,2.8412,2.8412,2.8412,2.8066,2.7751,2.7491,2.6789,2.5989,2.5171,0.0,0.0,0.0,0.0,0.0,0.0,2.1949,2.1979,2.2069,2.1934,0.0,2.1141,2.0318,1.9779,1.969,2.0932,2.1695,2.1695,0.0,2.3595,2.3595,2.5465,2.6273,2.5869,2.7679,2.8456,2.8077,2.9365,3.0016,3.0107,3.1525,3.2247,3.2247,3.2342,3.2829,3.3583,3.4214,3.4922,3.5676,3.6261,3.6492,3.6492,3.6492,3.6492,3.6492,2.2221,2.4341,2.6112,2.6112,2.6112,2.6612,2.8093,2.8338,2.7711,2.5981,2.9721,3.2079,3.0887,3.1502,3.219,3.2627,3.2371,3.2001,3.1622,3.0889,3.0526,3.0526,2.776,2.622,2.622,2.622,2.6059,0.0,0.0,0.0,0.0,0.0,0.0,2.622,2.622,2.622,2.622,2.6329,2.6312,2.6327,2.6925,2.7331,2.7587,2.8094,2.8448,2.8641,2.8641,2.7961,2.7218,2.7793,2.7715,2.7417,2.803,2.8312,2.8412,2.8412,2.8412,2.8412,2.8412,2.8412,2.8412,2.8412,2.8412,2.8412,2.8412,2.8334,2.8246,2.8207,2.7791,2.709,2.6021,0.0,0.0,0.0,0.0,0.0,0.0,2.3238,2.3419,2.4014,2.3076,2.2569,2.3056,2.1545,2.0303,1.9735,2.0932,2.1695,2.1695,0.0,2.3595,0.0,2.5016,2.6243,0.0,0.0,2.9011,2.9478,3.0487,3.067,3.0234,3.1673,3.2342,3.2342,3.2398,3.3121,3.4306,3.4429,3.5199,3.6322,3.6445,3.6492,3.6492,3.6492,3.6492,3.6492,2.8229,2.7655,2.7231,2.8634,2.8894,2.9566,3.1582,3.2152,3.1534,2.9492,2.9534,2.9828,2.9927,3.2078,3.3643,3.394,3.3551,3.2994,3.2398,3.1686,3.1056,3.0543,2.9185,2.7744,2.6236,2.622,2.622,2.622,0.0,0.0,0.0,0.0,0.0,2.622,2.622,2.669,2.7461,2.7214,2.7284,2.7604,2.7918,2.834,2.8762,2.9075,2.9443,2.9856,2.9856,2.9309,2.8598,2.8581,2.8543,2.8555,2.8921,2.9224,2.9483,2.9483,2.9483,2.9483,2.9483,2.9483,2.9483,2.9483,2.9483,2.9483,2.9483,2.9483,2.9383,2.9003,2.8728,2.816,2.6793,2.5722,0.0,0.0,0.0,0.0,0.0,0.0,2.3686,2.4059,2.3492,2.3103,2.3116,2.2278,2.1455,2.0782,2.1949,2.2547,2.2218,2.343,2.4133,0.0,0.0,0.0,2.7165,0.0,2.9788,2.9507,3.0942,3.1461,3.1285,3.2599,3.3055,3.2788,3.2788,3.3231,3.3983,3.4706,3.5584,3.6492,3.6492,3.6492,3.6492,3.6492,3.6492,3.6492,3.4323,3.1601,2.9134,3.1049,3.1539,3.2222,3.3778,3.4525,3.4468,3.3309,3.0393,2.8748,2.9635,3.2798,3.4899,3.4899,3.4369,3.3773,3.3193,3.2613,3.1901,3.1023,3.0692,2.945,2.7181,2.7131,2.7131,0.0,0.0,0.0,0.0,0.0,0.0,2.622,2.622,2.6978,0.0,0.0,2.8645,2.8867,2.8917,2.9302,2.9895,3.0007,3.0409,3.0952,3.0952,3.0583,3.0012,2.9425,2.9415,2.9665,2.9815,3.0225,3.0568,3.0568,3.0526,3.0526,3.0526,3.0526,3.0526,3.0526,3.0526,3.0526,3.0526,3.0526,3.0361,2.9764,2.9435,2.8903,2.7683,2.686,0.0,0.0,0.0,0.0,0.0,0.0,2.3655,2.3804,2.3684,2.34,2.2921,2.2877,2.2652,2.2143,2.2906,2.3191,2.2739,2.3924,2.4582,2.4582,0.0,2.7534,2.7429,0.0,3.0548,3.0043,3.1529,3.2313,3.2421,3.3512,3.3716,3.3182,3.3182,3.338,3.3721,3.4968,3.5891,3.6492,3.6492,3.6492,3.6492,3.6492,3.6492,3.6492,3.8121,3.6272,3.399,3.3425,3.399,3.3762,3.1526,3.3307,3.4849,3.47,3.4341,3.3667,3.2463,3.3876,3.4899,3.4899,3.4833,3.4767,3.47,3.3806,3.3044,3.2514,3.1222,3.0394,3.0112,3.0112,3.0112,0.0,0.0,2.622,0.0,0.0,0.0,0.0,0.0,0.0,0.0,2.9732,3.0297,2.9425,2.9681,2.9892,3.0137,3.0679,3.1004,3.1151,3.1151,3.1117,3.105,3.0965,3.0443,2.99,3.057,3.0821,3.0831,3.0733,3.0692,3.0651,3.051,3.0526,3.0526,3.0526,3.0526,3.0526,3.0526,3.0526,3.0493,3.0427,2.9592,2.8876,2.891,2.7515,2.6382,0.0,0.0,0.0,0.0,0.0,2.3834,2.4403,2.3984,2.358,2.352,2.352,2.349,2.343,2.3011,2.2783,2.2724,2.3924,2.4582,2.4582,2.6068,2.773,2.9531,3.0,3.1081,3.2645,3.2951,3.3029,3.2951,3.3662,3.3716,3.3182,3.3182,3.3662,3.4429,3.5183,3.5891,3.6492,3.6492,3.6492,3.6492,3.6492,3.6492,3.6492,3.5953,3.6206,3.5778,3.4364,3.3681,3.3307,3.3243,3.42,3.4899,3.4899,3.4899,3.4667,3.4071,3.4551,3.4899,3.4899,3.4899,3.4899,3.4899,3.4518,3.3442,3.147,3.0824,3.0526,3.0526,3.0526,3.0526,0.0,0.0,0.0,0.0,0.0,0.0,0.0,0.0,2.9265,2.9482,3.0683,3.0931,3.0521,3.0622,3.0712,3.0801,3.1033,3.1151,3.119,3.119,3.119,3.119,3.119,3.0909,3.0566,3.0851,3.0952,3.0871,3.0831,3.0831,3.0773,3.0651,3.0609,3.0609,3.0526,3.0526,3.0526,3.0526,3.0526,3.0526,3.0526,3.0153,2.9685,2.921,2.8495,2.7721,2.6748,0.0,0.0,0.0,0.0,0.0,2.4552,2.4029,2.3595,2.3595,2.3595,2.3774,2.4178,2.361,2.3236,2.3236,2.4191,2.4882,2.5211,0.0,2.8171,2.9334,3.0387,3.1471,3.2525,3.332,3.405,3.4824,3.5411,3.5432,3.5,3.4641,3.4726,3.5106,3.5368,3.5891,3.6492,3.6492,3.6492,3.6492,3.6492,3.6492,3.6492,3.5724,3.6074,3.6208,3.5399,3.4349,3.3925,3.4754,3.4899,3.4899,3.4899,3.4899,3.4899,3.4899,3.4899,3.4899,3.4899,3.4899,3.4899,3.4899,3.4899,3.3972,3.1901,3.1802,3.1404,3.0543,3.0526,3.0526,3.0526,3.0526,0.0,0.0,0.0,0.0,0.0,3.1072,3.119,3.119,3.119,3.119,3.119,3.119,3.1269,3.1368,3.1368,3.1368,3.1368,3.1368,3.1291,3.119,3.119,3.1151,3.1055,3.1055,3.1032,3.0992,3.0952,3.0952,3.0895,3.0773,3.0773,3.0749,3.0651,3.0609,3.0568,3.0568,3.0526,3.0526,3.0526,3.0526,3.0258,2.9438,2.9166,2.8685,2.7321,0.0,0.0,0.0,2.5285,0.0,2.4851,2.4133,2.3595,2.3595,2.3595,2.3879,2.4522,2.4222,2.4028,2.4267,2.4806,2.547,0.0,0.0,0.0,2.962,3.0814,3.1846,3.2758,3.3802,3.4971,3.6267,3.6693,3.6655,3.6189,3.5609,3.5472,3.5476,3.5476,3.5891,3.6492,3.6492,3.6492,3.6492,3.6492,3.6554,3.6616,3.9222,3.6903,3.5379,3.6837,3.7069,3.6572,3.5114,3.4899,3.4899,3.4899,3.4899,3.4899,3.4899,3.4899,3.4899,3.4899,3.4899,3.4899,3.4899,3.4899,3.4883,3.4849,3.4849,3.3491,3.0576,3.0526,3.0526,3.0526,0.0,0.0,3.0912,0.0,3.119,3.119,3.119,3.119,3.119,3.119,3.119,3.119,3.119,3.1389,3.1677,3.1677,3.1677,3.1677,3.1677,3.1487,3.119,3.119,3.119,3.119,3.119,3.119,3.1151,3.1015,3.1015,3.0975,3.0912,3.0912,3.0912,3.0912,3.079,3.0692,3.0692,3.0609,3.0526,3.0526,3.0526,3.0342,2.9897,2.9393,2.8935,2.8384,0.0,0.0,0.0,2.5869,0.0,2.5525,2.4418,2.3595,2.3595,2.3595,2.3879,2.4522,2.4747,2.5093,2.5757,0.0,0.0,2.7898,2.8763,0.0,3.1151,3.1328,3.2275,3.3986,3.4716,3.5696,3.6806,3.6969,3.6781,3.6189,3.5609,3.5472,3.5476,3.5476,3.5891,3.6492,3.6492,3.6492,3.6492,3.6492,3.6693,3.7015,3.9272,3.8526,3.803,3.851,3.6936,3.5446,3.4965,3.4899,3.4899,3.4899,3.4899,3.4899,3.4899,3.4899,3.4899,3.4899,3.4899,3.4899,3.4899,3.3027,3.1918,3.1918,3.1918,3.147,3.0543,3.0526,3.0526,3.0526,0.0,0.0,0.0,3.1032,3.119,3.119,3.119,3.119,3.119,3.119,3.119,3.123,3.1748,3.186,3.1714,3.1986,3.2109,3.2056,3.1787,3.162,3.1524,3.1291,3.119,3.119,3.119,3.119,3.119,3.1151,3.1151,3.1112,3.0975,3.0975,3.0952,3.0912,3.0871,3.0831,3.0831,3.0733,3.0609,3.0526,3.0526,3.0342,2.9897,2.9661,2.9287,2.8432,2.799,0.0,2.763,0.0,2.6033,2.6258,2.5495,2.4971,2.4971,2.4971,2.5241,2.5914,2.5586,2.5468,0.0,0.0,0.0,0.0,2.9337,0.0,3.1182,3.2135,3.3081,3.3986,3.5168,3.6621,3.8311,3.889,3.8838,3.8192,3.763,3.7138,3.6745,3.6337,3.6307,3.6492,3.6492,3.6492,3.6554,3.6754,3.6877,3.6999,3.9272,3.9272,3.9272,3.9272,3.7765,3.6174,3.5065,3.4899,3.4899,3.4899,3.4899,3.4899,3.4899,3.4899,3.4899,3.4899,3.4899,3.4899,3.4899,3.215,3.0526,3.0526,3.0526,3.0526,3.0526,3.0526,0.0,3.0526,3.0692,3.0692,3.051,3.0992,3.119,3.119,3.119,3.119,3.119,3.119,3.119,3.1269,3.2003,3.2144,3.1967,3.2334,3.2419,3.2283,3.2039,3.1768,3.1487,3.1252,3.119,3.1241,3.1512,3.141,3.119,3.119,3.119,3.119,3.1112,3.1072,3.1072,3.1032,3.0992,3.0952,3.0912,3.079,3.0692,3.0609,3.0526,3.0426,3.0113,2.9941,2.9528,2.8732,2.8591,2.8367,2.771,0.0,2.6814,2.6636,2.6019,2.5615,0.0,2.5646,2.5963,2.6639,2.663,0.0,0.0,0.0,2.7923,2.8854,3.0299,3.1477,3.2338,3.3441,3.4365,3.5166,3.6522,3.7918,3.9411,3.9868,3.9627,3.8849,3.8446,3.7838,3.7013,3.6677,3.6492,3.6492,3.6616,3.6677,3.6754,3.7044,3.7225,3.7389,3.9272,3.9272,3.9259,3.9007,3.8974,3.8046,3.5313,3.4899,3.4899,3.4899,3.4899,3.4899,3.4899,3.4899,3.4899,3.4899,3.4899,3.4899,3.4899,3.215,3.0526,3.0526,3.0526,3.0526,3.0526,3.0526,3.0526,3.0568,3.0992,3.0992,3.0568,3.0992,3.119,3.119,3.119,3.119,3.1207,3.141,3.1484,3.1482,3.2161,3.2405,3.2456,3.2787,3.2722,3.2439,3.2458,3.1962,3.1314,3.1326,3.1309,3.1393,3.2121,3.185,3.1275,3.1275,3.1241,3.119,3.119,3.119,3.119,3.119,3.1145,3.1043,3.0912,3.0864,3.0799,3.0749,3.0609,3.051,3.051,3.0156,2.9705,2.9212,2.9166,2.8795,2.786,2.7527,2.7271,2.6793,0.0,0.0,2.5749,2.5875,2.624,0.0,2.775,0.0,0.0,0.0,2.9011,3.0556,3.1695,3.2982,3.4413,3.5029,3.5987,3.7253,3.8453,3.9377,4.007,4.007,3.9454,3.8334,3.8334,3.7663,3.6616,3.6554,3.6554,3.6616,3.6938,3.6999,3.706,3.7298,3.7653,3.7886,3.9272,3.9272,3.856,3.6324,3.5926,3.5694,3.5015,3.4899,3.4899,3.4899,3.4899,3.4899,3.4899,3.4899,3.4899,3.4899,3.4899,3.4899,3.4899,3.215,3.0526,3.0526,3.0526,3.0526,3.0526,3.0526,3.0692,3.1015,3.1151,3.1151,3.1032,3.1151,3.119,3.119,3.119,3.119,3.1343,3.3609,3.4298,3.3838,3.3724,3.3649,3.3639,3.4015,3.392,3.363,3.397,3.3395,3.2539,3.2802,3.251,3.2154,3.2899,3.2628,3.2019,3.2019,3.163,3.119,3.119,3.119,3.119,3.119,3.1613,3.1827,3.115,3.1412,3.1607,3.0972,3.0733,3.0651,3.0651,3.0468,3.0156,2.9705,2.9617,2.9438,2.8842,2.8701,2.8498,0.0,2.7839,2.7666,2.7308,2.7421,2.7758,0.0,0.0,2.9154,2.9913,3.1182,3.2102,3.262,3.2882,3.3958,3.5792,3.6364,3.7269,3.857,3.8854,3.9377,4.007,4.007,3.9679,3.8974,3.8518,3.8026,3.7535,3.7044,3.6968,3.7178,3.7238,3.7314,3.7373,3.7653,3.7786,3.7876,3.9272,3.9272,3.8775,3.7185,3.5794,3.4899,3.4899,3.4899,3.4899,3.4899,3.4899,3.4899,3.4899,3.4899,3.4899,3.4899,3.4899,3.4899,3.4899,3.3408,3.1918,3.0576,3.0526,3.0526,3.0526,3.0526,3.0733,3.119,3.119,3.119,3.1207,3.1884,3.2968,3.4335,3.3283,3.2569,3.2357,3.4641,3.5274,3.4821,3.4817,3.4728,3.4592,3.5006,3.4911,3.4581,3.4783,3.4373,3.3723,3.3671,3.3413,3.3168,3.3744,3.3389,3.2865,3.3203,3.2307,3.119,3.119,3.119,3.119,3.119,3.1732,3.2087,3.128,3.1358,3.1486,3.1036,3.0855,3.0773,3.0773,3.0733,3.051,3.0011,3.014,3.0054,2.9332,2.9422,2.9377,2.8841,2.9171,2.9201,2.8698,2.9089,2.9443,2.952,3.0135,0.0,3.156,3.3156,3.3846,3.3319,3.441,3.5698,3.7137,3.8018,3.8824,3.9478,3.9478,3.9748,4.0188,4.0188,3.9918,3.9348,3.9065,3.8574,3.8001,3.7669,3.7492,3.7417,3.7594,3.7653,3.7653,3.8017,3.8091,3.8123,3.9272,3.9272,3.9193,3.8692,3.692,3.5562,3.5562,3.5181,3.4899,3.4899,3.4899,3.4899,3.4899,3.4899,3.4899,3.4899,3.4899,3.4899,3.4899,3.4899,3.3819,3.1373,3.1257,3.1257,3.1257,3.1257,3.1483,3.185,3.185,3.1749,3.1546,3.2594,3.4692,3.7623,3.5972,3.4801,3.4196,3.5352,3.5725,3.5507,3.572,3.5669,3.55,3.5869,3.572,3.5398,3.5506,3.519,3.4719,3.4441,3.4249,3.4123,3.4533,3.4167,3.3694,3.432,3.3085,3.1529,3.1529,3.1529,3.1529,3.1529,3.207,3.2391,3.1546,3.1365,3.1284,3.1066,3.0992,3.0912,3.0912,3.0912,3.0773,3.0309,3.0593,3.0593,2.9777,0.0,3.0201,2.9746,3.0357,3.0606,3.005,3.0826,3.1184,3.0815,3.197,3.2974,3.3693,3.4952,3.5169,3.4058,3.6135,3.7668,3.8485,3.9547,4.0121,4.0121,4.0121,4.0188,4.0355,4.0355,4.0054,3.961,3.961,3.9065,3.8157,3.8157,3.7927,3.7594,3.7886,3.796,3.8017,3.8278,3.8391,3.8391,3.9272,3.9272,3.8493,3.6009,3.7251,3.8593,3.8593,3.6489,3.4899,3.4899,3.4899,3.4899,3.4899,3.4899,3.4899,3.4899,3.4899,3.4899,3.4899,3.4899,3.4872,3.4813,3.4796,3.4796,3.4796,3.4796,3.484,3.4928,3.4928,3.4286,3.3051,3.2019,3.2882,3.5314,3.6931,3.7572,3.7433,3.7177,3.7306,3.761,3.6612,3.6412,3.6714,3.6798,3.6512,3.6221,3.6899,3.6262,3.5198,3.5756,3.5257,3.4524,3.5199,3.4928,3.4336,3.4455,3.3812,3.3068,3.3068,3.3068,3.3068,3.3068,3.3609,3.3795,3.2425,3.2611,3.2655,3.1421,3.1072,3.0975,3.0975,3.0952,3.0871,3.0773,3.0871,3.0871,3.0692,0.0,3.1523,3.0964,3.1724,3.2076,3.1532,3.2256,3.2983,3.3482,3.4341,3.5121,3.5801,3.7058,3.7612,3.7461,3.7831,3.8621,3.9784,4.002,4.0188,4.0255,4.0255,4.0337,4.0485,4.0485,4.0154,3.961,3.961,3.9172,3.8463,3.8463,3.8383,3.8278,3.8278,3.8335,3.8335,3.8391,3.8391,3.8391,3.9272,3.9272,3.8841,3.75,3.7069,3.692,3.692,3.576,3.4899,3.4899,3.4899,3.4899,3.4899,3.4899,3.4899,3.4899,3.5118,3.5258,3.5258,3.5258,3.5396,3.5577,3.5622,3.5622,3.5622,3.5622,3.5622,3.5622,3.5622,3.5736,3.598,3.5275,3.5545,3.6612,3.7363,3.7774,3.7792,3.7542,3.7596,3.7774,3.7184,3.7218,3.7631,3.7631,3.7494,3.7341,3.7453,3.7035,3.6408,3.6329,3.5933,3.5497,3.5593,3.5385,3.5098,3.5098,3.4303,3.3406,3.3406,3.3694,3.3897,3.3508,3.3947,3.4218,3.3136,3.3152,3.322,3.2527,3.2013,3.1685,3.1685,3.1341,3.1207,3.1594,3.1325,3.1207,3.1594,3.1948,3.2068,3.1809,3.3238,3.4039,3.3479,3.4545,3.525,3.5307,3.5887,3.66,3.7308,3.8152,3.8791,3.9227,3.9244,3.9514,4.0188,4.0188,4.0288,4.0387,4.0387,4.0485,4.06,4.06,4.0485,4.0286,4.0286,3.9868,3.9102,3.9102,3.8827,3.8391,3.8391,3.8391,3.8391,3.8391,3.8391,3.8391,3.9272,3.9272,3.9272,3.9272,3.6837,3.4899,3.4899,3.4899,3.4899,3.4899,3.4899,3.4899,3.4899,3.4899,3.493,3.5024,3.5396,3.5622,3.5622,3.5985,3.6011,3.5622,3.5622,3.5622,3.5622,3.5622,3.5827,3.6224,3.6224,3.69,3.8192,3.8192,3.8192,3.8192,3.7721,3.7559,3.7667,3.7667,3.7667,3.7667,3.7667,3.788,3.8192,3.8192,3.814,3.7967,3.7632,3.7395,3.7132,3.6533,3.6216,3.6088,3.5694,3.5622,3.5622,3.5622,3.481,3.388,3.3711,3.4184,3.4624,3.4066,3.4336,3.4556,3.3829,3.366,3.3609,3.344,3.2949,3.2544,3.2544,3.1935,3.163,3.2188,0.0,3.1647,3.2205,3.273,3.3051,3.3051,3.4878,3.5946,3.5554,3.6753,3.7352,3.696,3.745,3.8053,3.8603,3.9076,3.9562,4.0154,4.0188,4.0188,4.0305,4.0355,4.0387,4.0534,4.0534,4.0648,4.0745,4.0745,4.0793,4.0871,4.0776,4.0303,3.9594,3.9506,3.9061,3.8391,3.8391,3.8391,3.8391,3.8391,3.8391,3.8391,3.9272,3.9272,3.9272,3.9272,3.6837,3.4899,3.4899,3.4899,3.4899,3.4899,3.4899,3.4899,3.4899,3.4899,3.5088,3.5532,3.5577,3.5622,3.5622,3.7094,3.7301,3.565,3.5622,3.5622,3.5622,3.5622,3.6374,3.802,3.802,3.8054,3.8192,3.8192,3.8192,3.8192,3.814,3.814,3.814,3.814,3.814,3.814,3.814,3.8192,3.8192,3.8192,3.7933,3.7542,3.7505,3.7017,3.6367,3.6343,3.6002,3.5667,3.5622,3.5622,3.5622,3.5622,3.5537,3.5301,3.459,3.4962,3.552,3.547,3.5504,3.5351,3.459,3.4421,3.4218,3.3541,3.3372,3.3322,3.3322,3.2713,3.2222,3.2273,0.0,0.0,3.2273,3.4066,3.5368,3.5368,3.6772,3.7689,3.7689,3.8398,3.8854,3.8805,3.9479,3.9885,3.9935,4.0103,4.0286,4.0468,4.0337,4.0288,4.0305,4.0436,4.0534,4.0697,4.0697,4.0745,4.0888,4.0888,4.0888,4.0888,4.0502,4.0054,3.9558,3.9222,3.8821,3.8391,3.8391,3.8391,3.8391,3.8391,3.8391,3.8391,3.9272,3.9272,3.9272,3.9272,3.8344,3.7615,3.7615,3.7615,3.6953,3.5131,3.4899,3.5723,3.7901,3.6441,3.5396,3.5577,3.658,3.7226,3.7226,3.7828,3.7898,3.7226,3.7226,3.7226,3.7226,3.7226,3.7541,3.8192,3.8192,3.8192,3.8192,3.8192,3.8192,3.8192,3.8192,3.8192,3.821,3.8717,3.8934,3.8971,3.9441,3.9351,3.8989,3.9441,3.921,3.86,3.8067,3.7659,3.7241,3.6242,3.5756,3.5622,3.5622,3.5622,3.5622,3.5622,3.5622,3.5554,3.5267,3.5402,3.5622,3.5622,3.5622,3.5537,3.525,3.5182,3.5115,3.4844,3.4404,3.4083,3.4083,3.3474,3.3119,3.3575,0.0,3.3305,3.4218,3.5081,3.5808,3.6282,3.7669,3.8582,3.8582,3.9242,3.9665,3.9665,3.9918,4.0138,4.0238,4.0337,4.0436,4.0485,4.0534,4.0551,4.0551,4.06,4.092,4.1512,4.1047,4.134,4.2285,4.1785,4.1464,4.1218,4.1018,4.0323,3.9222,3.9061,3.8766,3.8391,3.8391,3.8391,3.8391,3.8391,3.8391,3.8391,3.9272,3.9272,3.9272,3.9272,3.9272,3.9272,3.9272,3.9272,3.8648,3.6769,3.6551,3.7466,3.9851,3.8786,3.748,3.6502,3.7504,3.8192,3.8192,3.8192,3.8192,3.8192,3.8192,3.8192,3.8192,3.8192,3.8192,3.8192,3.8192,3.8192,3.8192,3.8192,3.8192,3.8192,3.8518,3.8663,3.8717,3.9441,3.9749,3.9786,4.0311,4.0202,3.9804,4.0311,4.0113,3.9463,3.8709,3.8386,3.8014,3.6485,3.5994,3.5943,3.569,3.5622,3.5622,3.5622,3.5622,3.5673,3.591,3.5994,3.5926,3.5673,3.5808,3.5994,3.5994,3.6163,3.6332,3.6332,3.5926,3.5571,3.5571,3.4962,3.4624,3.5131,3.4793,3.4827,3.5842,3.6383,3.6874,3.7415,3.8582,3.9343,3.9343,3.9783,4.007,4.007,4.0138,4.0238,4.0404,4.0485,4.0583,4.0631,4.0968,4.0985,4.0745,4.0745,4.1051,4.163,4.1129,4.1561,4.2785,4.2085,4.1766,4.1733,4.1219,4.0358,3.9298,3.8958,3.8655,3.8391,3.8391,3.8391,3.8391,3.8391,3.8391,3.8391,3.9272,3.9272,3.9272,3.9272,3.9272,3.9272,3.9325,3.9325,3.9468,4.002,4.0121,4.0121,4.0121,4.1785,4.1615,3.8464,3.8192,3.8192,3.8192,3.8192,3.8192,3.8192,3.8192,3.8192,3.8192,3.8192,3.8192,3.8192,3.8192,3.8192,3.8192,3.8192,3.8192,3.8228,3.926,3.9678,3.9732,4.0293,4.0528,4.0528,4.0528,4.0528,4.0528,4.0528,4.0255,3.9839,3.9382,3.8963,3.8394,3.7211,3.6772,3.6637,3.5859,3.5622,3.5622,3.5622,3.5622,3.5791,3.6569,3.6772,3.6603,3.5825,3.6214,3.6789,3.6789,3.7364,3.7905,3.7905,3.7905,3.7905,3.7905,3.7297,3.6789,3.6789,3.6789,3.6789,3.6806,3.8058,3.8988,3.9005,3.9631,4.007,4.007,4.007,4.007,4.007,4.0238,4.0404,4.0697,4.0697,4.0745,4.0888,4.1595,4.163,4.0888,4.0888,4.0888,4.0905,4.0888,4.1285,4.2009,4.1545,4.1749,4.2428,4.0829,4.0127,4.0022,3.8853,3.8408,3.8408,3.8408,3.8408,3.8391,3.8391,3.8391,3.8391,3.9272,3.9272,3.9272,3.9272,3.9272,3.9432,3.9781,3.9884,3.9935,4.0087,4.1258,4.2056,4.2056,4.2577,4.1615,3.8464,3.8192,3.8192,3.8192,3.8192,3.8192,3.8192,3.8192,3.8192,3.8192,3.8192,3.8192,3.8192,3.8192,3.8192,3.8192,3.8192,3.8192,3.8228,3.9097,4.0003,4.0854,4.1198,4.1361,4.1415,4.1959,4.185,4.1415,4.1977,4.1533,4.0642,4.0176,3.9765,3.9204,3.7993,3.7212,3.6637,3.5859,3.5994,3.6332,3.5774,3.5622,3.5791,3.6569,3.6772,3.6857,3.7144,3.7398,3.7567,3.7567,3.7736,3.7905,3.7905,3.7905,3.7905,3.7905,3.7719,3.7567,3.7567,3.7567,3.7753,3.8261,3.8717,3.9174,3.9698,3.9952,4.007,4.007,4.0188,4.0238,4.0238,4.0453,4.06,4.0697,4.0793,4.0888,4.0888,4.1095,4.1095,4.0888,4.1388,4.194,4.2541,4.1923,4.2612,4.4371,4.3718,4.3408,4.3263,4.2216,4.1325,4.0538,3.9628,3.9061,3.8876,3.9098,3.8898,3.8448,3.8711,3.8655,3.8472,3.9272,3.9272,3.9272,3.9272,3.9484,3.9729,4.0037,4.007,4.0402,4.1094,4.2198,4.2882,4.2882,4.2882,4.2122,4.022,4.0039,3.9514,3.8264,3.8192,3.8192,3.8192,3.9369,3.9478,3.821,3.8192,3.8192,3.8192,3.8192,3.8192,3.8192,3.8808,3.9441,4.0057,4.022,4.0908,4.194,4.2103,4.2176,4.223,4.2701,4.2611,4.2193,4.2492,4.2153,4.1403,4.0771,4.0388,3.9932,3.8758,3.7635,3.6755,3.6569,3.6434,3.6349,3.6485,3.6315,3.6315,3.7364,3.7652,3.7838,3.8582,3.8548,3.8345,3.8345,3.8565,3.8768,3.8768,3.8768,3.8768,3.8768,3.8768,3.8768,3.8768,3.8768,3.892,3.936,3.9428,3.958,4.002,4.007,4.0138,4.0188,4.0238,4.0337,4.0453,4.06,4.0745,4.0793,4.084,4.0888,4.0888,4.1164,4.1181,4.0888,4.1923,4.2543,4.2699,4.2216,4.3026,4.4958,4.4319,4.4057,4.4011,4.2763,4.1839,4.1137,4.0029,3.9454,3.9259,3.9506,3.9295,3.8898,3.8969,3.9057,3.9105,3.9272,3.9325,3.9379,3.9379,3.9901,4.0336,4.0336,4.0336,4.0955,4.2673,4.2882,4.2882,4.2882,4.2882,4.2882,4.2882,4.2882,4.1669,3.8808,3.8608,3.8608,3.8608,4.1361,4.1542,3.8663,3.8337,3.8337,3.8608,3.8337,3.8192,3.8228,3.993,4.1506,4.2846,4.2031,4.2122,4.2882,4.2882,4.2882,4.2882,4.2882,4.2882,4.2844,4.2378,4.2157,4.2032,4.1111,4.0754,4.0556,3.9372,3.8142,3.7178,3.7736,3.6992,3.618,3.7516,3.7415,3.7195,3.8616,3.8988,3.9174,3.9901,3.958,3.9089,3.9089,3.9597,4.007,4.007,4.007,4.007,4.007,4.007,4.0121,4.0138,4.0138,4.0121,4.0121,4.0138,4.0121,4.0121,4.0138,4.0188,4.0288,4.0355,4.0453,4.0697,4.0697,4.0827,4.0974,4.0922,4.0905,4.0974,4.163,4.1664,4.0991,4.244,4.2802,4.2095,4.2164,4.2923,4.4285,4.3902,4.4099,4.4593,4.282,4.198,4.1795,4.0385,3.9764,3.9662,3.9714,3.9662,3.9558,3.9169,3.9452,3.9916,3.9272,3.9625,3.9935,3.9935,4.1258,4.2279,4.2279,4.2279,4.244,4.2844,4.2882,4.2882,4.2882,4.2882,4.2882,4.2882,4.2882,4.2592,4.1922,4.1868,4.1868,4.1868,4.252,4.2574,4.1886,3.9441,3.9405,4.1868,3.9405,3.8192,3.8246,4.1053,4.2556,4.2846,4.185,4.1959,4.2882,4.2882,4.2882,4.2882,4.2882,4.2882,4.2844,4.2378,4.1973,4.1569,4.1019,4.058,4.0102,3.9274,3.9157,3.9191,3.821,3.8075,3.821,3.7973,3.7787,3.7855,3.8751,3.8988,3.9174,3.9901,3.9952,3.9834,3.9834,3.9969,4.007,4.007,4.007,4.007,4.007,4.007,4.0121,4.0238,4.0255,4.0288,4.0387,4.0337,4.0288,4.0387,4.0337,4.0288,4.0436,4.0534,4.0697,4.084,4.084,4.1129,4.1716,4.1198,4.1147,4.1733,4.1905,4.1905,4.175,4.2699,4.3128,4.2973,4.3509,4.3958,4.4302,4.4784,4.4766,4.4389,4.3941,4.3409,4.2809,4.1866,4.0931,4.0171,4.0517,4.0187,3.961,3.9506,3.9358,3.9243,4.0856,4.0546,4.0385,4.1258,4.2239,4.2882,4.2882,4.2882,4.2882,4.2882,4.2882,4.2882,4.2882,4.2882,4.2882,4.2882,4.2882,4.2882,4.2882,4.2882,4.2882,4.2882,4.2882,4.2882,4.2882,4.127,4.1234,4.2882,4.1234,4.0437,4.0474,4.2122,4.2882,4.2864,4.2303,4.2357,4.2882,4.2882,4.2882,4.2882,4.2882,4.2882,4.2844,4.2139,4.17,4.1393,4.0707,4.0303,4.002,3.9631,3.9529,3.9478,3.9073,3.8717,3.8531,3.8853,3.87,3.8582,3.9309,3.9512,3.9597,3.9986,4.007,4.007,4.007,4.007,4.007,4.007,4.007,4.0138,4.0188,4.0188,4.0238,4.0387,4.0387,4.0436,4.0485,4.0436,4.0436,4.0485,4.0436,4.0436,4.0583,4.0745,4.0978,4.1371,4.1405,4.175,4.2509,4.2181,4.2147,4.2543,4.2543,4.2543,4.2543,4.332,4.3699,4.3749,4.4096,4.4475,4.4837,4.5234,4.5199,4.4803,4.444,4.3905,4.3162,4.2319,4.1446,4.06,4.084,4.0614,4.0187,3.9986,3.9757,3.9545,4.2577,4.1656,4.1094,4.2616,4.2882,4.2882,4.2882,4.2882,4.2882,4.2882,4.2882,4.2882,4.2882,4.2882,4.2882,4.2882,4.2882,4.2882,4.2882,4.2882,4.2882,4.2882,4.2882,4.2882,4.2882,4.2882,4.2882,4.2882,4.2882,4.2882,4.2882,4.2882,4.2882,4.2882,4.2882,4.2882,4.2882,4.2882,4.2882,4.2882,4.2882,4.2882,4.2806,4.1888,4.1481,4.1393,4.0434,4.007,4.007,4.007,3.9681,3.9276,3.9935,3.9291,3.8563,3.9815,3.9747,3.9359,3.9968,4.0121,4.0138,4.0138,4.0138,4.0121,4.0121,4.0121,4.0121,4.0121,4.0121,4.0188,4.0288,4.0457,4.054,4.0551,4.0637,4.0722,4.0771,4.0603,4.0585,4.0754,4.0771,4.082,4.0934,4.103,4.1388,4.213,4.2061,4.2388,4.337,4.3301,4.3283,4.3404,4.3404,4.3404,4.3404,4.4096,4.4475,4.4475,4.4475,4.4734,4.5234,4.5354,4.5354,4.5199,4.4699,4.3975,4.3162,4.2457,4.1664,4.0888,4.0888,4.0888,4.0823,4.0387,4.0129,4.0071,4.2844,4.2711,4.2577,4.2844,4.2882,4.2882,4.2882,4.2882,4.2882,4.2882,4.2882,4.2882,4.2882,4.2882,4.2882,4.2882,4.2882,4.2882,4.2882,4.2882,4.2882,4.2882,4.2882,4.2882,4.2882,4.2882,4.2882,4.2882,4.2882,4.2882,4.2882,4.2882,4.2882,4.2882,4.2882,4.2882,4.2882,4.2882,4.2882,4.2882,4.2882,4.2882,4.2806,4.1888,4.1481,4.1393,4.0434,4.007,4.007,4.007,4.0003,4.0002,4.0204,4.0119,4.0033,4.0368,4.0368,4.03,4.0271,4.0288,4.0238,4.0138,4.0188,4.0288,4.0288,4.0288,4.0288,4.0288,4.0387,4.0436,4.0485,4.0998,4.127,4.0751,4.1229,4.1641,4.1788,4.114,4.092,4.1719,4.1788,4.1788,4.1836,4.1836,4.2164,4.3007,4.2371,4.2612,4.4044,4.3577,4.3508,4.4113,4.413,4.413,4.413,4.4889,4.5268,4.5268,4.5268,4.4975,4.4458,4.5113,4.5061,4.4458,4.5027,4.4475,4.3214,4.3111,4.2164,4.0888,4.0888,4.0888,4.0823,3.9986,3.9901,4.0071,4.2882,4.2882,4.2882,4.2882,4.2882,4.2882,4.2882,4.2882,4.2882,4.2882,4.2882,4.2882,4.2882,4.2882,4.2882,4.2882,4.2882,4.2882,4.2882,4.2882,4.2882,4.2882,4.2882,4.2882,4.2882,4.2882,4.2882,4.2882,4.2882,4.2882,4.2882,4.2995,4.3123,4.3232,4.3068,4.3031,4.305,4.2938,4.2882,4.2882,4.2634,4.2498,4.2418,4.1455,4.1094,4.1019,4.0402,4.0188,4.0238,4.0288,4.032,4.032,4.0387,4.0387,4.0436,4.0468,4.0485,4.0485,4.0436,4.0387,4.0387,4.0337,4.0387,4.0387,4.0387,4.0502,4.0502,4.0436,4.081,4.115,4.1199,4.1883,4.2344,4.2117,4.2391,4.2597,4.2647,4.2322,4.2236,4.2612,4.2647,4.2647,4.2647,4.2647,4.2957,4.3784,4.3475,4.3751,4.4872,4.4613,4.4578,4.4906,4.4906,4.4906,4.4906,4.5251,4.5423,4.5423,4.5423,4.5251,4.4941,4.5268,4.5234,4.4941,4.5285,4.4561,4.3214,4.3214,4.2268,4.0888,4.0888,4.0888,4.0823,4.0451,4.0356,4.0425]}]]